[[{"header":{"parameterUnit":"m.s-1","parameterCategory":1,"la1":30.6,"la2":29.2853,"lo1":-89.7004,"lo2":-87.6739,"dy":0.0162,"dx":0.0183,"nx":112,"ny":82,"refTime":"2024-05-25T12:00:00:Z","depth":0,"parameterNumber":2,"parameterNumberName":"U-component_of_WINDS"},"data":[0.0,0.0,0.0,0.0,0.0,0.0,0.0,0.0,0.0,0.0,0.0,0.0,0.0,0.0,0.0,0.0,0.0,0.0,0.0,0.0,0.0,0.0,0.0,0.0,0.0,0.0,0.0,0.0,0.0,0.0,0.0,0.0,0.0,0.0,0.0,0.0,0.0,0.0,0.0,0.0,0.0,0.0,0.0,0.0,0.0,0.0,0.0,0.0,0.0,0.0,0.0,0.0,0.0,0.0,0.0,0.0,0.0,0.0,0.0,0.0,0.0,0.0,0.0,0.0,0.0,0.0,0.0,0.0,0.0,0.0,0.0,0.0,0.0,0.0,0.0,0.0,0.0,0.0,0.0,0.0,0.0,0.0,0.0,0.0,0.0,0.0,0.0,0.0,0.0,0.0,-3.2706,-3.6671,-3.9753,-4.1572,-4.1572,-4.0232,-3.7808,-3.4038,0.0,0.0,0.0,0.0,0.0,0.0,0.0,0.0,0.0,0.0,0.0,0.0,0.0,0.0,0.0,0.0,0.0,0.0,0.0,0.0,0.0,0.0,0.0,0.0,0.0,0.0,0.0,0.0,0.0,0.0,0.0,0.0,0.0,0.0,0.0,0.0,0.0,0.0,0.0,0.0,0.0,0.0,0.0,0.0,0.0,0.0,0.0,0.0,0.0,0.0,0.0,0.0,0.0,0.0,0.0,0.0,0.0,0.0,0.0,0.0,0.0,0.0,0.0,0.0,0.0,0.0,0.0,0.0,0.0,0.0,0.0,0.0,0.0,0.0,0.0,0.0,0.0,0.0,0.0,0.0,0.0,0.0,0.0,0.0,0.0,0.0,0.0,0.0,0.0,0.0,0.0,0.0,0.0,0.0,0.0,0.0,0.0,0.0,0.0,0.0,0.0,0.0,0.0,0.0,-3.2437,-3.9095,-4.1287,-4.2246,-4.2246,-4.0502,-3.8212,-3.537,0.0,0.0,0.0,0.0,0.0,0.0,0.0,0.0,0.0,0.0,0.0,0.0,0.0,0.0,0.0,0.0,0.0,0.0,0.0,0.0,0.0,0.0,0.0,0.0,0.0,0.0,0.0,0.0,0.0,0.0,0.0,0.0,0.0,0.0,0.0,0.0,0.0,0.0,0.0,0.0,0.0,0.0,0.0,0.0,0.0,0.0,0.0,0.0,0.0,0.0,0.0,0.0,0.0,0.0,0.0,0.0,0.0,0.0,0.0,0.0,0.0,0.0,0.0,0.0,0.0,0.0,0.0,0.0,0.0,0.0,0.0,0.0,0.0,0.0,0.0,0.0,0.0,0.0,0.0,0.0,0.0,0.0,0.0,0.0,0.0,0.0,0.0,0.0,0.0,0.0,0.0,0.0,0.0,0.0,0.0,0.0,0.0,0.0,0.0,0.0,0.0,0.0,0.0,-3.2647,-3.5654,-4.0427,-4.2102,-4.2746,-4.2425,-4.0876,-3.8527,-3.516,-3.2153,0.0,0.0,0.0,0.0,0.0,0.0,0.0,0.0,0.0,0.0,0.0,0.0,0.0,0.0,0.0,0.0,0.0,0.0,0.0,0.0,0.0,0.0,0.0,0.0,0.0,0.0,0.0,0.0,0.0,0.0,0.0,0.0,0.0,0.0,0.0,0.0,0.0,0.0,0.0,0.0,0.0,0.0,0.0,0.0,0.0,0.0,0.0,0.0,0.0,0.0,0.0,0.0,0.0,0.0,0.0,0.0,0.0,0.0,0.0,0.0,0.0,0.0,0.0,0.0,0.0,0.0,0.0,0.0,0.0,0.0,0.0,0.0,0.0,0.0,0.0,0.0,0.0,0.0,0.0,0.0,0.0,0.0,0.0,0.0,0.0,0.0,0.0,0.0,0.0,0.0,0.0,0.0,0.0,0.0,0.0,0.0,0.0,0.0,0.0,0.0,0.0,0.0,-3.6701,-3.8841,-4.1392,-4.2641,-4.3135,-4.2626,-4.0816,-3.8272,-3.4968,-3.1629,0.0,0.0,0.0,0.0,0.0,0.0,0.0,0.0,0.0,0.0,0.0,0.0,0.0,0.0,0.0,0.0,0.0,0.0,0.0,0.0,0.0,0.0,0.0,0.0,0.0,0.0,0.0,0.0,0.0,0.0,0.0,0.0,0.0,0.0,0.0,0.0,0.0,0.0,0.0,0.0,0.0,0.0,0.0,0.0,0.0,0.0,0.0,0.0,0.0,0.0,0.0,0.0,0.0,0.0,0.0,0.0,0.0,0.0,0.0,0.0,0.0,0.0,0.0,0.0,0.0,0.0,0.0,0.0,0.0,0.0,0.0,0.0,0.0,0.0,0.0,0.0,0.0,0.0,0.0,0.0,0.0,0.0,0.0,0.0,0.0,0.0,0.0,0.0,0.0,0.0,0.0,0.0,0.0,0.0,0.0,0.0,0.0,0.0,0.0,0.0,0.0,0.0,-3.6941,-4.0053,-4.2111,-4.291,-4.3275,-4.323,-3.9798,-3.7,-3.5519,-3.064,0.0,0.0,0.0,0.0,0.0,0.0,0.0,0.0,0.0,0.0,0.0,0.0,0.0,0.0,0.0,0.0,0.0,0.0,0.0,0.0,0.0,0.0,0.0,0.0,0.0,0.0,0.0,0.0,0.0,0.0,0.0,0.0,0.0,0.0,0.0,0.0,0.0,0.0,0.0,0.0,0.0,0.0,0.0,0.0,0.0,0.0,0.0,0.0,0.0,0.0,0.0,0.0,0.0,0.0,0.0,0.0,0.0,0.0,0.0,0.0,0.0,0.0,0.0,0.0,0.0,0.0,0.0,0.0,0.0,0.0,0.0,0.0,0.0,0.0,0.0,0.0,0.0,0.0,0.0,0.0,0.0,0.0,0.0,0.0,0.0,0.0,0.0,0.0,0.0,0.0,0.0,0.0,0.0,0.0,0.0,0.0,0.0,0.0,0.0,0.0,0.0,0.0,-3.6836,-3.9694,0.0,-4.294,-4.3125,-4.2761,-4.0606,-3.8003,-3.5055,0.0,0.0,0.0,0.0,0.0,0.0,0.0,0.0,0.0,0.0,0.0,0.0,0.0,0.0,0.0,0.0,0.0,0.0,0.0,0.0,0.0,0.0,0.0,0.0,0.0,0.0,0.0,0.0,0.0,0.0,0.0,0.0,0.0,0.0,0.0,0.0,0.0,0.0,0.0,0.0,0.0,0.0,0.0,0.0,0.0,0.0,0.0,0.0,0.0,0.0,0.0,0.0,0.0,0.0,0.0,0.0,0.0,0.0,0.0,0.0,0.0,0.0,0.0,0.0,0.0,0.0,0.0,0.0,0.0,0.0,0.0,0.0,0.0,0.0,0.0,0.0,0.0,0.0,0.0,0.0,0.0,0.0,0.0,0.0,0.0,0.0,0.0,0.0,0.0,0.0,0.0,0.0,0.0,0.0,0.0,0.0,0.0,0.0,0.0,0.0,0.0,0.0,-3.4143,-3.7285,-3.9963,0.0,-4.306,-4.3075,-4.2455,-4.0576,-3.7943,-3.4414,0.0,0.0,0.0,0.0,0.0,0.0,0.0,0.0,0.0,0.0,0.0,0.0,0.0,0.0,0.0,0.0,0.0,0.0,0.0,0.0,0.0,0.0,0.0,0.0,0.0,0.0,0.0,0.0,0.0,0.0,0.0,0.0,0.0,0.0,0.0,0.0,0.0,0.0,0.0,0.0,0.0,0.0,0.0,0.0,0.0,0.0,0.0,0.0,0.0,0.0,0.0,0.0,0.0,0.0,0.0,0.0,0.0,0.0,0.0,0.0,0.0,0.0,0.0,0.0,0.0,0.0,0.0,0.0,0.0,0.0,0.0,0.0,0.0,0.0,0.0,0.0,0.0,0.0,0.0,0.0,0.0,0.0,0.0,0.0,0.0,0.0,0.0,0.0,0.0,0.0,0.0,0.0,0.0,0.0,0.0,0.0,0.0,0.0,0.0,0.0,0.0,0.0,-3.4921,-3.8377,-4.116,-4.308,-4.329,-4.306,-4.244,-3.9334,-3.6312,0.0,0.0,0.0,0.0,0.0,0.0,0.0,0.0,0.0,0.0,0.0,0.0,0.0,0.0,0.0,0.0,0.0,0.0,0.0,0.0,0.0,0.0,0.0,0.0,0.0,0.0,0.0,0.0,0.0,0.0,0.0,0.0,0.0,0.0,0.0,0.0,0.0,0.0,0.0,0.0,0.0,0.0,0.0,0.0,0.0,0.0,0.0,0.0,0.0,0.0,0.0,0.0,0.0,0.0,0.0,0.0,0.0,0.0,0.0,0.0,0.0,0.0,0.0,0.0,0.0,0.0,0.0,0.0,0.0,0.0,0.0,0.0,0.0,0.0,0.0,0.0,0.0,0.0,0.0,0.0,0.0,0.0,0.0,0.0,0.0,0.0,0.0,0.0,0.0,0.0,0.0,0.0,0.0,0.0,0.0,0.0,0.0,0.0,0.0,0.0,0.0,0.0,0.0,-3.4981,-3.8781,-4.1669,-4.3125,-4.329,-4.288,-4.1811,-3.9918,-3.7105,-3.3066,0.0,0.0,0.0,0.0,0.0,0.0,0.0,0.0,0.0,0.0,0.0,0.0,0.0,0.0,0.0,0.0,0.0,0.0,0.0,0.0,0.0,0.0,0.0,0.0,0.0,0.0,0.0,0.0,0.0,0.0,0.0,0.0,0.0,0.0,0.0,0.0,0.0,0.0,0.0,0.0,0.0,0.0,0.0,0.0,0.0,0.0,0.0,0.0,0.0,0.0,0.0,0.0,0.0,0.0,0.0,0.0,0.0,0.0,0.0,0.0,0.0,0.0,0.0,0.0,0.0,0.0,0.0,0.0,0.0,0.0,0.0,0.0,0.0,0.0,0.0,0.0,0.0,0.0,0.0,0.0,0.0,0.0,0.0,0.0,0.0,0.0,0.0,0.0,0.0,0.0,0.0,0.0,0.0,0.0,0.0,0.0,0.0,0.0,0.0,0.0,0.0,0.0,-3.4996,-3.8945,-4.1878,-4.3155,-4.329,-4.2766,-4.1489,-4.0172,-3.7554,-3.3185,0.0,0.0,0.0,0.0,0.0,0.0,0.0,0.0,0.0,0.0,0.0,0.0,0.0,0.0,0.0,0.0,0.0,0.0,0.0,0.0,0.0,0.0,0.0,0.0,0.0,0.0,0.0,0.0,0.0,0.0,0.0,0.0,0.0,0.0,0.0,0.0,0.0,0.0,0.0,0.0,0.0,0.0,0.0,0.0,0.0,0.0,0.0,0.0,0.0,0.0,0.0,0.0,0.0,0.0,0.0,0.0,0.0,0.0,0.0,0.0,0.0,0.0,0.0,0.0,0.0,0.0,0.0,0.0,0.0,0.0,0.0,0.0,0.0,0.0,0.0,0.0,0.0,0.0,0.0,0.0,0.0,0.0,0.0,0.0,0.0,0.0,0.0,0.0,0.0,0.0,0.0,0.0,0.0,0.0,0.0,0.0,0.0,0.0,0.0,0.0,0.0,0.0,-3.5085,-3.8975,-4.1878,-4.3155,-4.329,-4.2836,-4.1579,-4.0262,-3.7838,-3.3933,0.0,0.0,0.0,0.0,0.0,0.0,0.0,0.0,0.0,0.0,0.0,0.0,0.0,0.0,0.0,0.0,0.0,0.0,0.0,0.0,0.0,0.0,0.0,0.0,0.0,0.0,0.0,0.0,0.0,0.0,0.0,0.0,0.0,0.0,0.0,0.0,0.0,0.0,0.0,0.0,0.0,0.0,0.0,0.0,0.0,0.0,0.0,0.0,0.0,0.0,0.0,0.0,0.0,0.0,0.0,0.0,0.0,0.0,0.0,0.0,-2.8498,0.0,0.0,0.0,0.0,0.0,0.0,0.0,0.0,0.0,0.0,0.0,0.0,0.0,0.0,0.0,0.0,0.0,0.0,0.0,0.0,0.0,0.0,0.0,0.0,0.0,0.0,0.0,0.0,0.0,0.0,0.0,0.0,0.0,0.0,0.0,0.0,0.0,0.0,0.0,0.0,0.0,-3.5759,-3.926,-4.1878,-4.3155,-4.329,-4.3015,-4.2261,-4.095,-3.8721,-3.5295,-3.1809,0.0,0.0,0.0,0.0,0.0,0.0,0.0,0.0,0.0,0.0,0.0,0.0,0.0,0.0,0.0,0.0,0.0,0.0,0.0,0.0,0.0,0.0,0.0,0.0,0.0,0.0,0.0,0.0,0.0,0.0,0.0,0.0,0.0,0.0,0.0,0.0,0.0,0.0,0.0,0.0,0.0,0.0,0.0,0.0,0.0,0.0,0.0,0.0,0.0,0.0,0.0,0.0,0.0,0.0,0.0,0.0,0.0,0.0,0.0,0.0,-3.0986,0.0,0.0,0.0,0.0,0.0,0.0,0.0,0.0,0.0,0.0,0.0,0.0,0.0,0.0,0.0,0.0,0.0,0.0,0.0,0.0,0.0,0.0,0.0,0.0,0.0,0.0,0.0,0.0,0.0,0.0,0.0,0.0,0.0,0.0,0.0,0.0,0.0,0.0,0.0,0.0,-3.5968,-3.9349,-4.1878,-4.3155,-4.329,-4.3075,-4.2455,-4.116,-3.9394,-3.7045,-3.3484,0.0,0.0,0.0,0.0,0.0,0.0,0.0,0.0,0.0,0.0,0.0,0.0,0.0,0.0,0.0,0.0,0.0,0.0,0.0,0.0,0.0,0.0,0.0,0.0,0.0,0.0,0.0,0.0,0.0,0.0,0.0,0.0,0.0,0.0,0.0,0.0,0.0,0.0,0.0,0.0,0.0,0.0,0.0,0.0,0.0,0.0,0.0,0.0,0.0,0.0,0.0,0.0,0.0,-3.6985,-3.7883,-3.8287,-3.8945,-3.9634,-4.0046,-3.6806,-3.5684,-3.5983,-3.3409,0.0,0.0,0.0,0.0,0.0,0.0,0.0,0.0,0.0,0.0,0.0,0.0,0.0,0.0,0.0,0.0,0.0,0.0,0.0,0.0,0.0,0.0,-3.5986,-3.7075,-3.7808,-3.7195,-3.3245,0.0,0.0,0.0,0.0,0.0,0.0,0.0,0.0,0.0,0.0,0.0,-3.6327,-3.9589,-4.2013,-4.317,-4.329,-4.312,-4.262,-4.1324,-4.0053,-3.8826,-3.516,-3.2482,0.0,0.0,0.0,0.0,0.0,0.0,0.0,0.0,0.0,0.0,0.0,0.0,0.0,0.0,0.0,0.0,0.0,0.0,0.0,0.0,0.0,0.0,0.0,0.0,0.0,0.0,0.0,0.0,0.0,0.0,0.0,0.0,-2.004,-2.1134,0.0,0.0,0.0,0.0,0.0,0.0,0.0,0.0,0.0,0.0,0.0,0.0,0.0,-3.4771,-3.6477,-3.8497,-3.9529,-3.9634,-4.1496,-4.2177,-4.1767,-4.2387,-4.3006,-4.3643,-4.3105,0.0,-3.8751,-3.6686,0.0,0.0,0.0,0.0,0.0,0.0,0.0,0.0,0.0,0.0,0.0,0.0,0.0,0.0,0.0,0.0,0.0,0.0,0.0,0.0,0.0,0.0,-4.0554,-4.0733,-4.1272,-4.1422,-4.0239,-3.5893,-3.1809,-3.0283,-2.8391,-2.6549,0.0,0.0,0.0,0.0,0.0,0.0,-3.7778,-4.0569,-4.2506,-4.3215,-4.329,-4.326,-4.317,-4.1998,-4.0935,-4.0172,-3.6971,-3.4756,-3.4009,-3.0342,0.0,0.0,0.0,0.0,0.0,0.0,0.0,0.0,0.0,0.0,0.0,0.0,0.0,0.0,0.0,0.0,0.0,0.0,0.0,0.0,0.0,0.0,0.0,0.0,0.0,0.0,0.0,0.0,0.0,-1.9999,-2.104,-2.1838,-2.179,-2.143,0.0,0.0,0.0,0.0,0.0,0.0,0.0,0.0,0.0,-3.4102,-3.6915,-3.8981,-4.0209,-4.1788,-4.2596,-4.2611,-4.4201,-4.487,-4.4616,-4.5274,-4.5723,-4.5992,-4.5992,-4.4975,-4.312,-4.0756,-3.8427,-3.6118,0.0,0.0,0.0,0.0,-3.4744,-3.5529,-3.6566,-3.6986,-3.6881,-3.5759,0.0,0.0,0.0,0.0,0.0,0.0,0.0,-3.6447,-3.7883,-4.0083,-4.2156,-4.2851,-4.3524,-4.3838,-4.3165,-4.0696,-3.754,-3.408,-3.2364,-3.0449,-2.716,-2.6797,0.0,0.0,0.0,-3.5358,-3.8546,-4.095,-4.265,-4.323,-4.329,-4.329,-4.329,-4.2132,-4.125,-4.0965,-3.8542,-3.6671,-3.5687,-3.326,-3.079,0.0,0.0,0.0,0.0,0.0,0.0,0.0,0.0,0.0,0.0,0.0,0.0,0.0,0.0,0.0,0.0,0.0,0.0,0.0,0.0,0.0,0.0,0.0,0.0,0.0,0.0,0.0,0.0,-2.1444,-2.2234,-2.3031,-2.3619,-2.3602,0.0,0.0,0.0,0.0,0.0,0.0,-3.0455,-3.3698,-3.6429,-3.8414,-4.087,-4.2536,-4.3399,-4.4347,-4.4915,-4.5095,-4.6097,-4.6576,-4.6591,-4.7085,-4.7309,-4.7309,-4.7309,-4.7025,-4.6381,-4.3883,-4.1594,-3.9574,-3.8751,-3.7838,-3.7161,-3.8531,-3.9199,-3.9709,-4.1579,-4.1984,-4.1482,-4.0277,-3.9035,-3.7629,-3.5639,0.0,0.0,0.0,0.0,-3.9095,-4.092,-4.2252,-4.3444,-4.4556,-4.5319,-4.5633,-4.4975,-4.4396,-4.2599,-3.7665,-3.6023,-3.413,-2.9878,-2.9069,0.0,0.0,0.0,-3.6357,-3.9525,-4.1489,-4.2791,-4.3245,-4.329,-4.323,-4.309,-4.2043,-4.1347,-4.113,-3.9409,-3.7883,-3.6776,-3.5444,-3.335,-3.0387,0.0,0.0,0.0,0.0,0.0,0.0,0.0,0.0,0.0,0.0,0.0,0.0,0.0,0.0,0.0,0.0,0.0,0.0,0.0,0.0,0.0,0.0,0.0,0.0,0.0,0.0,0.0,0.0,0.0,-2.5229,-2.5959,0.0,0.0,0.0,0.0,-2.7783,-3.0725,-3.3146,-3.4606,-3.8153,-4.0627,-4.163,-4.3305,-4.4796,-4.607,-4.6145,-4.6531,-4.716,-4.7219,-4.7249,-4.7249,-4.7294,-4.7309,-4.7309,-4.7309,-4.7279,-4.71,-4.5065,-4.3763,-4.2916,-4.1683,-4.1145,-4.1084,-4.0792,-4.1307,-4.2151,-4.193,-4.2067,-4.253,-4.3643,-4.3135,-4.2081,-4.1946,-4.1048,0.0,0.0,-4.1587,-4.2455,-4.3763,-4.4631,-4.5334,-4.6052,-4.6726,-4.7025,-4.6324,-4.6145,-4.4822,-4.0267,-3.8166,-3.6317,-3.3834,0.0,-3.3622,-3.4909,-3.7009,-3.9155,-4.1062,-4.2447,-4.326,-4.329,-4.329,-4.309,-4.25,-4.1811,-4.1115,-4.0487,-3.9155,-3.8078,-3.7389,-3.6133,-3.4472,-3.2378,-2.9819,0.0,0.0,0.0,0.0,0.0,0.0,0.0,0.0,0.0,0.0,0.0,0.0,0.0,0.0,0.0,0.0,0.0,0.0,0.0,0.0,0.0,0.0,0.0,0.0,0.0,0.0,0.0,0.0,-2.7055,-2.8649,0.0,-2.8386,-2.9428,-3.0482,-3.1248,-3.3005,-3.524,-3.8082,-4.0187,-4.2367,-4.4642,-4.5704,-4.6471,-4.695,-4.7369,-4.7713,-4.7938,-4.8356,-4.8566,-4.8566,-4.8566,-4.8566,-4.8566,-4.8566,-4.8327,-4.7878,-4.716,-4.6232,-4.5173,-4.4751,-4.4287,-4.3932,-4.4246,-4.4596,-4.4964,-4.5213,-4.5146,-4.484,-4.4451,-4.4003,-4.3539,-4.312,-4.2955,-4.297,-4.321,-4.3748,-4.4451,-4.5379,-4.5741,-4.6127,-4.68,-4.713,-4.7234,-4.701,-4.695,-4.5869,-4.2303,-4.0467,-3.8417,-3.4955,-3.429,-3.4695,-3.5849,-3.7358,-3.9282,-4.1716,-4.2791,-4.329,-4.329,-4.329,-4.3075,-4.2455,-4.1796,-4.092,-3.9843,-3.8901,-3.7913,-3.6851,-3.6372,-3.54,-3.3814,-3.2033,-2.9594,0.0,0.0,0.0,0.0,0.0,0.0,0.0,0.0,0.0,0.0,0.0,0.0,0.0,0.0,0.0,0.0,0.0,0.0,0.0,0.0,0.0,0.0,0.0,0.0,0.0,0.0,-2.7708,-2.8812,-3.0733,-3.1675,-3.0972,-3.2215,-3.337,-3.4167,-3.5587,-3.7762,-4.0772,-4.2234,-4.4145,-4.655,-4.7294,-4.7638,-4.7638,-4.8282,-4.8626,-4.8626,-4.9105,-4.9314,-4.9314,-4.9314,-4.9314,-4.9314,-4.9314,-4.906,-4.8626,-4.8626,-4.7967,-4.6965,-4.6741,-4.6381,-4.6022,-4.6486,-4.6651,-4.6711,-4.716,-4.7025,-4.6516,-4.5618,-4.5319,-4.5244,-4.4755,-4.4975,-4.5319,-4.5319,-4.5633,-4.6082,-4.6531,-4.6651,-4.677,-4.7204,-4.7309,-4.7309,-4.7309,-4.7309,-4.6461,-4.3538,-4.2127,-4.026,-3.6438,-3.583,-3.6166,-3.7088,-3.8281,-3.9802,-4.1846,-4.2808,-4.329,-4.329,-4.329,-4.297,-4.2141,-4.1467,-4.0487,-3.9155,-3.8437,-3.7584,-3.6537,-3.6267,-3.5624,-3.4533,-3.2736,-3.0657,-2.8274,0.0,0.0,0.0,0.0,0.0,0.0,0.0,0.0,0.0,0.0,0.0,0.0,0.0,0.0,0.0,0.0,0.0,0.0,0.0,0.0,0.0,0.0,0.0,-2.5674,-2.762,-2.9402,-3.0557,-3.2164,-3.3224,-3.3224,-3.4218,-3.5311,-3.6452,-3.8691,-4.0811,-4.2685,-4.4453,-4.5973,-4.7281,-4.7952,-4.8297,-4.8312,-4.9015,-4.9344,-4.9344,-4.9359,-4.9374,-4.9374,-4.9374,-4.9374,-4.9374,-4.9374,-4.9359,-4.9344,-4.9344,-4.8955,-4.8252,-4.7593,-4.7324,-4.7309,-4.7309,-4.7309,-4.7309,-4.7309,-4.7309,-4.7309,-4.7309,-4.7309,-4.7309,-4.7309,-4.7309,-4.7309,-4.7309,-4.7309,-4.7309,-4.7309,-4.7309,-4.7309,-4.7309,-4.7309,-4.7309,-4.7309,-4.7309,-4.6535,-4.3975,-4.3081,-4.1726,-3.8596,-3.8077,-3.8303,-3.8911,-4.0006,0.0,-4.1604,-4.2644,-4.329,-4.329,-4.329,-4.2766,-4.1489,-4.0786,-3.9813,-3.8437,-3.7749,-3.7105,-3.6477,-3.5848,-3.519,-3.4548,-3.1913,-3.0253,-2.9666,0.0,0.0,0.0,0.0,0.0,0.0,0.0,0.0,0.0,0.0,0.0,0.0,0.0,0.0,0.0,0.0,0.0,0.0,0.0,0.0,0.0,0.0,-2.7419,-2.7419,-2.9666,-3.1574,-3.2315,-3.4255,-3.55,-3.55,-3.7286,-3.8794,-3.9551,-4.1046,-4.2745,-4.4541,-4.5121,-4.6222,-4.7953,-4.8192,-4.8521,-4.9045,-4.9643,-4.9972,-4.9972,-5.0451,-5.0676,-5.0676,-5.0676,-5.0676,-5.0676,-5.0676,-5.0406,-4.9972,-4.9972,-4.9583,-4.8985,-4.8282,-4.7728,-4.7309,-4.7309,-4.7309,-4.7309,-4.7309,-4.7309,-4.7309,-4.7309,-4.7309,-4.7309,-4.7309,-4.7309,-4.7309,-4.7309,-4.7309,-4.7309,-4.7309,-4.7309,-4.7309,-4.7309,-4.7309,-4.7309,-4.7309,-4.7309,-4.6535,-4.3975,-4.3365,-4.2304,-3.9193,-3.9426,-4.025,-4.0857,-4.1579,0.0,-4.3448,-4.3413,-4.329,-4.329,-4.329,-4.2766,-4.1489,-4.0786,-3.9619,-3.7793,-3.709,-3.6447,-3.5804,-3.5609,-3.5415,-3.5235,-3.308,-3.1644,0.0,0.0,0.0,0.0,0.0,0.0,0.0,0.0,0.0,0.0,0.0,0.0,0.0,0.0,0.0,0.0,0.0,0.0,0.0,0.0,0.0,0.0,-2.8047,-2.9641,-3.0118,-3.1763,-3.3294,-3.4381,-3.631,-3.7736,-3.8178,-3.9952,-4.1288,-4.1895,-4.3119,-4.4305,-4.5329,-4.6175,-4.711,-4.8267,-4.882,-4.9284,-4.9673,-5.0316,-5.0599,-5.0599,-5.0988,-5.1214,-5.1214,-5.1214,-5.1214,-5.1214,-5.1214,-5.1005,-5.0599,-5.0599,-5.0272,-4.9583,0.0,0.0,0.0,0.0,-4.7309,-4.7309,-4.7309,-4.7309,-4.7309,-4.7309,-4.7309,-4.7309,-4.7309,-4.7309,-4.7309,-4.7309,-4.7309,-4.7309,-4.7309,-4.7309,-4.7309,-4.7309,-4.7309,-4.7309,-4.7309,-4.7309,-4.6682,-4.4688,-4.4303,0.0,-4.1204,-4.1005,-4.1183,-4.1295,-4.2261,-4.3096,-4.3534,-4.3437,-4.329,-4.329,-4.329,-4.291,-4.1916,-4.0935,0.0,0.0,0.0,-3.6058,-3.5115,-3.507,0.0,0.0,0.0,0.0,0.0,0.0,0.0,0.0,-3.122,-3.0351,0.0,0.0,0.0,0.0,0.0,0.0,0.0,0.0,0.0,0.0,0.0,0.0,0.0,0.0,0.0,0.0,-3.0181,-3.2001,-3.3181,-3.3834,-3.4726,-3.6229,-3.8117,-3.9666,-4.0676,-4.216,-4.3204,-4.3699,-4.4872,-4.5673,-4.573,0.0,0.0,0.0,0.0,-5.0226,-5.03,-5.0883,-5.1214,-5.1214,-5.1214,-5.1214,-5.1214,-5.1214,-5.1214,-5.1214,-5.1214,-5.1214,-5.1214,-5.1214,-5.0779,-5.0061,-4.8805,-4.8282,-4.8207,-4.7549,-4.7309,-4.7309,-4.7309,0.0,0.0,-4.7309,-4.7309,-4.7309,-4.7309,-4.7309,-4.7309,-4.7309,-4.7309,-4.7309,-4.7309,-4.7309,-4.7309,-4.7309,-4.7309,-4.7309,-4.7309,-4.7309,-4.6916,-4.5644,-4.5403,-4.5024,-4.374,-4.2689,-4.1848,-4.1376,-4.2656,-4.3444,-4.298,-4.3127,-4.329,-4.329,-4.329,0.0,-4.2455,-4.122,-3.9933,-3.8586,-3.73,-3.6058,-3.4893,-3.4833,-3.4833,-3.4833,-3.5415,-3.6013,-3.6596,-3.715,-3.7336,-3.7128,-3.2227,-3.1183,0.0,0.0,0.0,0.0,0.0,0.0,0.0,0.0,0.0,0.0,0.0,0.0,0.0,0.0,0.0,-2.9817,-3.1599,-3.3294,-3.4806,-3.5542,-3.6053,-3.6367,-3.883,-4.0531,-4.0755,-4.3268,-4.4941,-4.501,-4.6211,-4.7154,-4.7718,-4.8118,-4.8775,-4.9777,-5.0061,-5.045,-5.102,-5.1154,-5.1214,-5.1214,0.0,0.0,-5.1214,-5.1214,-5.1214,-5.1214,-5.1214,-5.1214,-5.1214,-5.1214,-5.0779,-5.0061,-4.8805,-4.8282,-4.8207,-4.7549,-4.7309,-4.7309,-4.7309,-4.7309,-4.7309,-4.7309,-4.7309,-4.7309,-4.7309,-4.7309,0.0,-4.7309,-4.7309,-4.7309,-4.7309,-4.7309,-4.7309,-4.7309,-4.7309,-4.7309,-4.7309,-4.7309,-4.6916,-4.5644,-4.5403,-4.5024,-4.374,-4.4163,-4.4645,-4.4532,-4.4734,-4.4882,-4.4805,-4.3901,-4.329,-4.329,-4.329,-4.3075,-4.2455,-4.1677,-4.0621,-3.9305,-3.7973,-3.712,-3.6851,-3.6851,-3.6851,-3.6851,-3.6971,-3.7105,-3.724,-3.7345,-3.6996,-3.6256,-3.5942,-3.5658,0.0,0.0,0.0,0.0,0.0,0.0,0.0,0.0,0.0,0.0,0.0,-2.4707,0.0,0.0,-2.9905,-3.1574,-3.3006,-3.4374,-3.5768,-3.7236,-3.8174,-3.8174,-4.0292,-4.212,-4.302,-4.5066,-4.6344,-4.6344,-4.6931,-4.7593,-4.8252,-4.864,-4.9224,-5.0166,-5.051,-5.0838,-5.1214,-5.1214,-5.1214,-5.1214,-5.1214,-5.1214,-5.1214,-5.1214,-5.1214,-5.1214,-5.1214,-5.1214,-5.1214,-5.1214,-5.102,-5.0584,-4.9643,-4.9075,-4.8701,-4.8042,-4.7803,-4.7743,-4.7414,-4.7309,-4.7309,-4.7309,-4.7309,-4.7309,-4.7309,-4.7309,-4.7309,-4.7309,-4.7309,-4.7309,-4.7309,-4.7309,-4.7309,-4.7309,-4.7309,-4.7309,-4.7309,-4.7309,-4.7121,-4.6447,-4.6344,-4.6166,-4.5494,-4.5928,-4.6107,-4.5494,-4.5608,-4.5678,-4.5334,-4.4436,-4.3663,-4.3334,-4.329,-4.317,-4.288,-4.1953,-4.0965,-3.9963,-3.8646,-3.7898,-3.7898,-3.7584,-3.7404,-3.7404,-3.7734,-3.7898,-3.7898,-3.8242,-3.8145,-3.7723,-3.818,-3.7703,0.0,0.0,0.0,0.0,0.0,0.0,0.0,0.0,-2.3622,-2.4734,-2.5737,-2.6892,-2.8448,-3.003,-3.1599,-3.3144,-3.4445,-3.5605,-3.6756,-3.8815,-4.0381,-4.077,-4.2246,-4.3814,-4.5255,-4.6535,-4.7309,-4.7309,-4.7429,-4.7788,-4.8446,-4.9105,-4.9763,-5.036,-5.0945,-5.1214,-5.1214,-5.1214,-5.1214,-5.1214,-5.1214,-5.1214,-5.1214,-5.1214,-5.1214,-5.1214,-5.1214,-5.1214,-5.1214,-5.1214,-5.1214,-5.1169,-5.0584,-5.0107,-4.9553,-4.876,-4.8401,-4.8207,-4.7683,-4.7414,-4.7309,-4.7309,-4.7309,-4.7309,-4.7309,-4.7309,-4.7309,-4.7309,-4.7309,-4.7309,-4.7309,-4.7309,-4.7309,-4.7309,-4.7309,-4.7309,-4.7309,-4.7309,-4.7309,-4.7309,-4.7309,-4.7309,-4.7309,-4.7309,-4.6975,-4.5928,-4.6077,-4.6112,-4.5559,-4.4811,-4.4107,-4.3544,-4.3364,-4.329,-4.329,-4.2252,-4.1339,-4.0816,-3.9634,-3.8975,-3.8975,-3.8452,-3.8123,-3.8003,-3.8512,-3.8721,-3.8601,-3.9155,-3.9484,-3.9568,-3.9568,-3.8891,-2.447,-2.4236,-2.4416,-2.5285,-2.5186,-2.5316,0.0,0.0,-2.7105,-2.8131,-2.8888,-2.9679,-3.0809,-3.2001,-3.3181,-3.4349,-3.5935,-3.7432,-3.8622,-4.0356,-4.2129,-4.3865,-4.4674,-4.518,-4.5389,-4.6535,-4.7309,-4.7309,-4.7848,-4.8461,-4.9164,-4.9778,-5.039,-5.1094,-5.1184,-5.1214,-5.1214,-5.1214,-5.1214,-5.1214,-5.1214,-5.1214,-5.1214,-5.1214,-5.1214,-5.1214,-5.1214,-5.1214,-5.1214,-5.1214,-5.1214,-5.1214,-5.1139,-5.1065,-5.0855,-4.9613,-4.8835,-4.8282,-4.8192,-4.7803,-4.7309,-4.7309,-4.7309,-4.7309,-4.7309,-4.7309,-4.7309,-4.7309,-4.7309,-4.7309,-4.7309,-4.7309,-4.7309,-4.7309,-4.7309,-4.7309,-4.7309,-4.7309,-4.7309,-4.7309,-4.7309,-4.7309,-4.7309,-4.7309,-4.7251,-4.7121,-4.6655,-4.6249,-4.6175,-4.5095,-4.4287,-4.4212,-4.3648,-4.329,-4.329,-4.2671,-4.2261,-4.2186,-4.1497,-4.104,-4.104,-4.098,-4.0666,-4.0083,-4.0142,-3.9888,-3.9305,-3.9343,-3.9723,-4.0292,-4.0292,-4.021,-2.7217,-2.7225,0.0,0.0,-2.7277,-2.7749,-2.8391,-2.8393,-2.8678,-3.0057,-3.0809,-3.1436,-3.2227,-3.3282,-3.4299,0.0,-3.6962,-3.8621,-3.9441,-4.1424,-4.3204,-4.4336,-4.5347,-4.6079,-4.6462,-4.6975,-4.7309,-4.7309,-4.7923,-4.8566,-4.9269,-4.9883,-5.0495,-5.1199,-5.1214,-5.1214,-5.1214,-5.1214,-5.1214,-5.1214,-5.1214,-5.1214,-5.1214,-5.1214,-5.1214,-5.1214,-5.1214,-5.1214,-5.1214,-5.1214,-5.1214,-5.1214,-5.1214,-5.1214,-5.1109,-5.0167,-4.9658,-4.9314,-4.8551,-4.8102,-4.7818,-4.7429,-4.7309,-4.7309,-4.7309,-4.7309,-4.7309,-4.7309,-4.7309,-4.7309,-4.7309,-4.7309,-4.7309,-4.7309,-4.7309,-4.7309,-4.7309,-4.7309,-4.7309,-4.7309,-4.7309,-4.7309,-4.7309,-4.7309,-4.7309,-4.7309,-4.707,-4.6756,-4.6324,-4.5828,-4.5143,-4.4392,-4.3678,-4.329,-4.329,-4.309,-4.2925,-4.2925,-4.2312,-4.1991,-4.1991,-4.1632,-4.1287,-4.098,-4.0965,-4.0831,-4.0561,-4.0561,-4.0711,-4.0965,-4.0965,-4.1175,-2.9168,0.0,0.0,-2.8985,-2.9686,-3.037,-3.0238,-3.0361,-3.0866,-3.2211,-3.2791,-3.3225,-3.3688,-3.4781,-3.5704,-3.5965,-3.8304,-4.0255,-4.0852,-4.2727,-4.4297,-4.4851,-4.5602,-4.6307,-4.698,-4.7189,-4.7309,-4.7309,-4.8072,-4.8805,-4.9284,-5.0062,-5.0689,-5.1199,-5.1214,-5.1214,-5.1214,-5.1394,-5.1498,-5.1498,-5.1678,-5.1753,-5.1753,-5.1573,-5.1394,-5.1214,-5.1214,-5.1214,-5.1214,-5.1214,-5.1214,-5.1214,-5.1214,-5.1214,-5.1154,-5.0629,-5.0345,-5.0061,-4.9149,-4.8581,-4.8207,-4.7728,-4.7459,-4.7309,-4.7309,-4.7309,-4.7309,-4.7309,-4.7309,-4.7309,-4.7309,-4.7309,-4.7309,-4.7309,-4.7309,-4.7309,-4.7309,-4.7309,-4.7309,-4.7309,-4.7309,-4.7309,-4.7309,-4.7309,-4.7309,-4.7309,-4.7309,-4.713,-4.6651,-4.6384,-4.5813,-4.4451,-4.3883,-4.3484,-4.3305,-4.329,-4.329,-4.329,-4.2895,-4.2626,-4.2626,-4.2177,-4.1833,-4.1692,-4.1692,-4.1602,-4.1422,-4.1422,-4.1512,-4.1692,-4.1692,-4.2051,0.0,0.0,-3.0542,-3.1685,-3.2331,-3.2852,-3.3348,-3.3956,-3.4592,-3.5151,-3.5303,-3.5323,-3.5409,-3.6845,-3.7821,-3.7334,-4.0185,-4.2725,-4.3372,-4.449,-4.5502,-4.6147,-4.5696,-4.5589,0.0,-4.6935,-4.7309,-4.7309,-4.8506,-4.9284,-4.9314,-5.0496,-5.1199,-5.1214,-5.1214,-5.1214,-5.1214,-5.1858,-5.2172,-5.2172,-5.2815,-5.3114,-5.3099,-5.2456,-5.1813,-5.1214,-5.1214,-5.1214,-5.1214,-5.1214,-5.1214,-5.1214,-5.1214,-5.1214,-5.1214,-5.1199,-5.0749,-5.0181,-5.0151,-4.9344,-4.8282,-4.8267,-4.7818,-4.7309,-4.7309,-4.7309,-4.7309,-4.7309,-4.7309,-4.7309,-4.7309,-4.7309,-4.7309,-4.7309,-4.7309,-4.7309,-4.7309,-4.7309,-4.7309,-4.7309,-4.7309,-4.7309,-4.7309,-4.7309,-4.7309,-4.7309,-4.7309,-4.7294,-4.7279,-4.6711,-4.5813,-4.4451,-4.4302,-4.3992,-4.3349,-4.329,-4.329,-4.329,-4.3275,-4.326,-4.326,-4.3245,-4.297,-4.2381,-4.2366,-4.2051,-4.1422,-4.1422,-4.1752,-4.2366,-4.2366,-4.2686,0.0,0.0,-3.1778,-3.3044,-3.3359,-3.3586,-3.4574,-3.4976,-3.5183,-3.5314,-3.5317,-3.5311,-3.5248,-3.606,-3.7002,-3.7612,-4.0435,-4.2853,-4.3517,-4.4973,-4.5888,-4.5663,-4.5843,0.0,0.0,0.0,0.0,-4.7279,-4.8521,-4.9314,-4.9314,-5.0511,-5.1214,-5.1214,-5.1214,-5.1214,-5.1214,-5.1872,-5.2202,-5.2217,-5.286,-5.3174,-5.3159,-5.2501,-5.2082,-5.1843,-5.1409,-5.1214,-5.1214,-5.1214,-5.1214,-5.1214,-5.1214,-5.1214,-5.1214,-5.1214,-5.1079,-5.0779,-5.0345,-4.9912,-4.9434,-4.8566,-4.8132,-4.7878,-4.7429,-4.7309,-4.7309,-4.7309,-4.7309,-4.7309,-4.7309,-4.7309,-4.7309,-4.7309,-4.7309,-4.7309,-4.7309,-4.7309,-4.7309,-4.7309,-4.7309,-4.7309,-4.7309,-4.7309,-4.7309,-4.7309,-4.7309,-4.7309,-4.7309,-4.6726,-4.6157,-4.5693,-4.5244,-4.4691,-4.4007,-4.3947,-4.3753,-4.3319,-4.329,-4.329,-4.329,-4.329,-4.3185,-4.3015,-4.3015,-4.2895,-4.2671,-4.2671,-4.2791,-4.3015,-4.3015,-4.3135,0.0,-3.3083,-3.3317,-3.4835,-3.5284,-3.5517,-3.6308,-3.6479,-3.6442,-3.6418,-3.6026,-3.5651,-3.5451,-3.6029,-3.6929,-3.8024,-4.083,-4.3169,-4.4061,-4.5393,-4.6115,-4.5723,-4.5843,-4.5873,0.0,0.0,0.0,-4.7249,-4.8521,-4.9314,-4.9314,-5.0511,-5.1214,-5.1214,-5.1214,-5.1214,-5.1214,-5.2097,-5.28,-5.3279,-5.3698,-5.3773,-5.3533,-5.3114,-5.265,-5.2172,-5.1753,-5.1439,-5.1214,-5.1214,-5.1214,-5.1214,-5.1214,-5.1214,-5.1214,-5.1214,-5.1214,-5.1154,-5.0689,-5.039,-5.0061,-4.9269,-4.8671,-4.8207,-4.7788,-4.7489,-4.7309,-4.7309,-4.7309,-4.7309,-4.7309,-4.7309,-4.7309,-4.7309,-4.7309,-4.7309,-4.7309,-4.7309,-4.7309,-4.7309,-4.7309,-4.7309,-4.7309,-4.7309,-4.7309,-4.7309,-4.7309,-4.7309,-4.7309,-4.6935,-4.6591,-4.6309,-4.5918,-4.5394,-4.4721,-4.4451,-4.4137,-4.3663,-4.3424,-4.329,-4.329,-4.329,-4.329,-4.329,-4.329,-4.329,-4.329,-4.329,-4.329,-4.329,-4.329,-4.329,-3.4008,-3.4608,-3.5085,-3.6985,-3.7928,-3.8392,-3.8392,-3.8392,-3.8362,-3.8257,-3.7285,-3.6297,0.0,0.0,-3.7658,-3.8562,-4.1303,-4.3753,-4.511,-4.5918,-4.6324,0.0,0.0,0.0,0.0,0.0,0.0,-4.7309,0.0,-4.9314,-4.9314,-5.0511,-5.1214,-5.1214,-5.1214,-5.1214,-5.1214,-5.2516,-5.3847,-5.5194,-5.5194,-5.4865,-5.4266,-5.4221,-5.3488,-5.2247,-5.2217,-5.1828,-5.1214,-5.1214,-5.1214,-5.1214,-5.1214,-5.1214,-5.1214,-5.1214,-5.1214,-5.1214,-5.1214,-5.0764,-5.024,-5.0196,-4.9404,-4.8371,-4.8312,-4.7848,-4.7354,-4.7309,-4.7309,-4.7309,-4.7309,-4.7309,-4.7309,-4.7309,-4.7309,-4.7309,-4.7309,-4.7309,-4.7309,-4.7309,-4.7309,-4.7309,-4.7309,-4.7309,-4.7309,-4.7309,-4.7309,-4.7309,-4.7309,-4.7309,-4.707,-4.6399,-4.6324,-4.6097,-4.5409,-4.4751,-4.4347,-4.4317,-4.3663,-4.329,-4.329,-4.329,-4.329,-4.329,-4.329,-4.329,-4.329,-4.329,-4.329,-4.329,-4.329,-4.329,-3.4966,-3.5938,-3.6896,-3.7898,-3.8257,-3.8392,-3.8392,-3.8392,-3.7988,-3.6537,-3.5983,-3.5275,0.0,0.0,0.0,-3.7623,-4.0867,0.0,-4.511,-4.6307,0.0,0.0,0.0,-4.6666,-4.6309,-4.677,0.0,0.0,-4.879,-4.9314,-4.9314,-5.0511,-5.1214,-5.1214,-5.1214,-5.1214,-5.1214,-5.2516,-5.3847,-5.5194,-5.5194,-5.5104,-5.4925,-5.4431,-5.3743,-5.2905,-5.2411,-5.1828,-5.1214,-5.1214,-5.1214,-5.1214,-5.1214,-5.1214,-5.1214,-5.1214,-5.1214,-5.1214,-5.1214,-5.1109,-5.0838,-5.0345,-4.9971,-4.9553,-4.8581,-4.8162,-4.7938,-4.7444,-4.7309,-4.7309,-4.7309,-4.7309,-4.7309,-4.7309,-4.7309,-4.7309,-4.7309,-4.7309,-4.7309,-4.7309,-4.7309,-4.7309,-4.7309,-4.7309,-4.7309,-4.7309,-4.7309,-4.7309,-4.7309,-4.7309,-4.7234,-4.707,-4.7055,-4.6785,-4.6112,-4.5439,-4.484,-4.4347,-4.3663,-4.329,-4.329,-4.329,-4.329,-4.329,-4.329,-4.329,-4.329,-4.329,-4.329,-4.329,-4.329,-4.329,-3.6432,-3.7285,-3.8003,-3.8676,-3.8616,-3.8242,-3.7689,-3.709,-3.6193,-3.4532,-3.3724,0.0,0.0,0.0,0.0,0.0,0.0,0.0,-4.4646,-4.6277,-4.7174,0.0,-4.7085,0.0,-4.68,-4.7354,-4.7893,0.0,-4.894,-4.9434,-4.9673,-5.0661,-5.1214,-5.1214,-5.1214,-5.1498,-5.2067,-5.3114,-5.4147,-5.5194,-5.5194,-5.5194,-5.5179,-5.4805,-5.4266,-5.3593,-5.292,-5.2261,-5.1633,-5.1334,-5.1214,-5.1214,-5.1214,-5.1214,-5.1214,-5.1214,-5.1214,-5.1214,-5.1214,-5.1214,-5.1154,-5.0749,-5.042,-5.0061,-4.9359,-4.8745,-4.8207,-4.7833,-4.7534,-4.7309,-4.7309,-4.7309,-4.7309,-4.7309,-4.7309,-4.7309,-4.7309,-4.7309,-4.7309,-4.7309,-4.7309,-4.7309,-4.7309,-4.7309,-4.7309,-4.7309,-4.7309,-4.7309,-4.7309,-4.7309,-4.7309,-4.7309,-4.7309,-4.716,-4.6785,-4.6127,-4.5454,-4.4781,-4.4122,-4.3604,-4.3305,-4.329,-4.329,-4.329,-4.329,-4.329,-4.329,-4.329,-4.329,-4.329,-4.329,-4.329,-3.7913,-3.8452,-3.8646,-3.9155,-3.8841,-3.8003,-3.6585,-3.5282,-3.3918,-3.2437,0.0,0.0,-3.0898,0.0,-3.3365,-3.5938,0.0,-4.1998,-4.4137,-4.6022,-4.7204,-4.7294,-4.7309,-4.7339,-4.7429,-4.7952,-4.8356,-4.8536,-4.9075,-4.9643,-5.0166,-5.0823,-5.1214,-5.1214,-5.1214,-5.1858,-5.3174,-5.3773,-5.4446,-5.5194,-5.5194,-5.5149,-5.5059,-5.5059,-5.4655,-5.3907,-5.3309,-5.268,-5.2022,-5.1454,-5.1214,-5.1214,-5.1214,-5.1214,-5.1214,-5.1214,-5.1214,-5.1214,-5.1214,-5.1214,-5.1214,-5.1214,-5.0794,-5.03,-5.0226,-4.9389,-4.8401,-4.8312,-4.7818,-4.7309,-4.7309,-4.7309,-4.7309,-4.7309,-4.7309,-4.7309,-4.7309,-4.7309,-4.7309,-4.7309,-4.7309,-4.7309,-4.7309,-4.7309,-4.7309,-4.7309,-4.7309,-4.7309,-4.7309,-4.7309,-4.7309,-4.7309,-4.7309,-4.7309,-4.7309,-4.6711,-4.6067,-4.5469,-4.4721,-4.4062,-4.3454,-4.3349,-4.329,-4.329,-4.329,-4.329,-4.329,-4.329,-4.329,-4.329,-4.329,-4.329,-3.8153,-3.8796,-3.9125,-3.8676,-3.8482,-3.7764,-3.5402,-3.4218,0.0,0.0,0.0,-2.9457,-2.8468,-3.0597,0.0,-3.5325,0.0,0.0,0.0,0.0,-4.6696,0.0,0.0,0.0,0.0,0.0,0.0,0.0,0.0,-5.0076,-5.0181,-5.0823,-5.1214,-5.1214,-5.1214,-5.1858,-5.3174,-5.3294,-5.3982,-5.5194,-5.5194,-5.491,-5.4386,-5.4386,-5.3713,-5.2546,-5.2411,0.0,-5.1379,-5.1274,-5.1214,-5.1214,-5.1214,-5.1214,-5.1214,-5.1214,-5.1214,-5.1214,-5.1214,-5.1214,-5.1214,-5.1214,-5.1139,-5.0898,-5.036,-4.9703,-4.903,-4.8446,-4.7818,-4.7309,-4.7309,-4.7309,-4.7309,-4.7309,-4.7309,-4.7309,-4.7309,-4.7309,-4.7309,-4.7309,-4.7309,-4.7309,-4.7309,-4.7309,-4.7309,-4.7309,-4.7309,-4.7309,-4.7309,-4.7309,-4.7309,-4.7309,-4.7309,-4.7309,-4.7309,-4.6711,-4.6234,-4.6157,-4.499,-4.4272,-4.4152,-4.3589,-4.329,-4.329,-4.329,-4.329,-4.329,-4.329,-4.329,-4.329,-4.329,-4.329,-3.8646,-3.917,-3.926,-3.8556,-3.8138,-3.7105,-3.4128,0.0,0.0,0.0,0.0,-2.7425,-2.7136,0.0,0.0,0.0,0.0,0.0,0.0,0.0,0.0,0.0,0.0,0.0,0.0,0.0,0.0,0.0,0.0,-5.0704,-5.0704,-5.105,-5.1214,-5.1214,-5.1558,-5.2037,-5.2665,-5.3369,-5.4042,-5.4685,-5.4685,-5.4521,-5.4206,-5.3832,-5.3324,-5.2695,-5.2351,-5.2022,-5.1693,-5.1364,-5.1214,-5.1214,-5.1214,-5.1214,-5.1214,-5.1214,-5.1214,-5.1214,-5.1214,-5.1214,-5.1214,-5.1214,-5.1214,-5.1154,-5.084,-5.0287,-4.9643,-4.8985,-4.8327,-4.7743,-4.7399,-4.7309,-4.7309,-4.7309,-4.7309,-4.7309,-4.7309,-4.7309,-4.7309,-4.7309,-4.7309,-4.7309,-4.7309,-4.7309,-4.7309,-4.7309,-4.7309,-4.7309,-4.7309,-4.7309,-4.7309,-4.7309,-4.7309,-4.7309,-4.7309,-4.701,-4.6696,-4.6309,-4.5681,-4.52,-4.484,-4.4197,-4.3798,-4.3798,-4.3469,-4.329,-4.329,-4.329,-4.329,-4.329,-4.329,-4.3484,-3.8871,-3.9305,-3.9179,-3.8392,-3.7689,-3.6342,-3.302,-3.1165,0.0,0.0,0.0,-2.56,-2.6258,0.0,0.0,0.0,0.0,0.0,0.0,0.0,0.0,0.0,0.0,0.0,0.0,0.0,0.0,0.0,0.0,0.0,-5.1214,-5.1214,-5.1214,-5.1214,-5.1723,-5.2052,-5.2202,-5.3249,-5.3847,-5.3997,-5.3997,-5.3922,-5.3758,-5.3219,-5.289,-5.2725,-5.2217,-5.1992,-5.1947,-5.1439,-5.1214,-5.1214,-5.1214,-5.1214,-5.1214,-5.1214,-5.1214,-5.1214,-5.1214,-5.1214,-5.1214,-5.1214,-5.1214,-5.1214,-5.1214,-5.0719,-5.0046,-4.9449,-4.8835,-4.8132,-4.7474,-4.7309,-4.7309,-4.7309,-4.7309,-4.7309,-4.7309,-4.7309,-4.7309,-4.7309,-4.7309,-4.7309,-4.7309,-4.7309,-4.7309,-4.7309,-4.7309,-4.7309,-4.7309,-4.7309,-4.7309,-4.7309,-4.7309,-4.7309,-4.7309,-4.7309,-4.7085,-4.6576,-4.6396,-4.6082,-4.5544,-4.487,-4.4526,-4.4526,-4.4018,-4.3708,-4.3708,-4.3708,-4.3708,-4.3708,-4.3708,-4.3992,-3.8287,-3.8945,-3.9074,-3.7823,-3.703,-3.5699,-3.2348,0.0,0.0,0.0,-2.5158,-2.4903,-2.557,-2.6782,0.0,0.0,0.0,0.0,0.0,0.0,0.0,0.0,0.0,0.0,0.0,0.0,0.0,0.0,0.0,0.0,-5.1214,-5.1214,-5.1214,-5.1214,-5.1274,-5.1588,-5.2187,-5.2321,-5.268,-5.3279,-5.3279,-5.2965,-5.2381,-5.2321,-5.1962,-5.1394,-5.1334,-5.1304,0.0,-5.1244,-5.1214,-5.1214,-5.1214,-5.1214,-5.1214,-5.1214,-5.1214,-5.1214,-5.1214,-5.1214,-5.1214,-5.1214,-5.1214,-5.1214,-5.1214,-5.0719,-5.0046,-4.9449,-4.8835,-4.8132,-4.7474,-4.7309,-4.7309,-4.7309,-4.7309,-4.7309,-4.7309,-4.7309,-4.7309,-4.7309,-4.7309,-4.7309,-4.7309,-4.7309,-4.7309,-4.7309,-4.7309,-4.7309,-4.7309,-4.7309,-4.7309,-4.7309,-4.7309,-4.7309,-4.7309,-4.7309,-4.7279,-4.7219,-4.6651,-4.6249,-4.619,-4.5559,-4.5214,-4.5214,-4.5155,-4.511,-4.511,-4.511,-4.511,-4.511,-4.511,-4.5155,-3.8003,-3.8586,-3.8571,-3.7644,-3.6941,-3.5609,-3.2258,0.0,0.0,-2.5995,-2.4762,-2.4343,-2.5405,-2.6033,-2.747,0.0,-3.1749,-3.3709,0.0,0.0,0.0,0.0,0.0,0.0,0.0,0.0,0.0,0.0,0.0,0.0,-5.1214,-5.1214,-5.1214,-5.1214,-5.1214,-5.1349,-5.1618,-5.2007,-5.2336,-5.2591,-5.2591,-5.2456,-5.2187,-5.1798,-5.1468,-5.1214,-5.1214,-5.1214,0.0,-5.1214,-5.1214,-5.1214,-5.1214,-5.1214,-5.1214,-5.1214,-5.1214,-5.1214,-5.1214,-5.1214,-5.1214,-5.1214,-5.1214,-5.1214,-5.1214,-5.0988,-5.069,-5.0032,-4.9389,-4.8775,-4.8072,-4.7593,-4.7309,-4.7309,-4.7309,-4.7309,-4.7309,-4.7309,-4.7309,-4.7309,-4.7309,-4.7309,-4.7309,-4.7309,-4.7309,-4.7309,-4.7309,-4.7309,-4.7309,-4.7309,-4.7309,-4.7309,-4.7309,-4.7309,-4.7309,-4.7309,-4.7309,-4.7309,-4.7055,-4.692,-4.692,-4.6277,-4.5918,-4.5918,-4.5514,-4.5289,-4.5289,-4.5289,-4.5289,-4.5289,-4.5289,-4.5514,-3.7105,-3.7808,-3.7943,-3.73,-3.6507,-3.513,0.0,0.0,-2.7784,-2.5974,-2.4702,-2.4253,-2.539,-2.5764,-2.6856,-2.9759,-3.0552,-3.2287,-3.6537,0.0,0.0,0.0,0.0,0.0,0.0,0.0,0.0,0.0,0.0,0.0,-5.1214,-5.1214,-5.1214,-5.1214,-5.1214,-5.1214,-5.1214,-5.1678,-5.1902,-5.1902,-5.1902,-5.1902,-5.1887,-5.1439,-5.1214,-5.1214,-5.1214,-5.1214,0.0,-5.1214,-5.1214,-5.1214,-5.1214,-5.1214,-5.1214,-5.1214,-5.1214,-5.1214,-5.1214,-5.1214,-5.1214,-5.1214,-5.1214,-5.1214,-5.1214,-5.1214,-5.1079,-5.0375,-4.9628,-4.8865,-4.8162,-4.7653,-4.7309,-4.7309,-4.7309,-4.7309,-4.7309,-4.7309,-4.7309,-4.7309,-4.7309,-4.7309,-4.7309,-4.7309,-4.7309,-4.7309,-4.7309,-4.7309,-4.7309,-4.7309,-4.7309,-4.7309,-4.7309,-4.7309,-4.7309,-4.7309,-4.7309,-4.7309,-4.7309,-4.7309,-4.7309,-4.686,-4.6621,-4.6621,-4.6142,-4.5888,-4.5888,-4.5888,-4.5888,-4.5888,-4.5888,-4.6142,-3.534,-3.6462,-3.727,-3.6656,-3.5522,-3.3978,0.0,-2.9475,-2.7225,-2.5884,-2.5053,-2.4799,-2.5495,-2.6138,-2.7255,-2.9292,-3.0672,-3.2647,-3.6028,0.0,0.0,0.0,0.0,0.0,0.0,0.0,0.0,0.0,0.0,0.0,-5.1214,-5.1214,-5.1214,-5.1214,-5.1214,-5.1214,-5.1214,-5.1229,-5.1229,-5.1229,-5.1229,-5.1229,-5.1229,-5.1214,-5.1214,-5.1214,-5.1214,-5.1214,0.0,-5.1214,-5.1214,-5.1214,-5.1214,-5.1214,-5.1214,-5.1214,-5.1214,-5.1214,-5.1214,-5.1214,-5.1214,-5.1214,-5.1214,-5.1214,-5.1214,-5.1214,-5.1079,-5.0375,-4.9299,-4.8147,-4.7489,-4.7309,-4.7309,-4.7309,-4.7309,-4.7309,-4.7309,-4.7309,-4.7309,-4.7309,-4.7309,-4.7309,-4.7309,-4.7309,-4.7309,-4.7309,-4.7309,-4.7309,-4.7309,-4.7309,-4.7309,-4.7309,-4.7309,-4.7309,-4.7309,-4.7309,-4.7309,-4.7309,-4.7309,-4.7309,-4.7309,-4.7294,-4.7294,-4.7294,-4.7294,-4.7279,-4.7279,-4.7279,-4.7279,-4.7279,-4.7279,-4.7294,-3.3155,-3.4083,-3.4577,-3.3933,-3.311,-3.2063,-3.0552,-2.8487,-2.6686,-2.5794,-2.5068,-2.4799,-2.5495,-2.6153,-2.753,-3.0447,-3.1241,0.0,0.0,0.0,0.0,0.0,0.0,0.0,0.0,0.0,0.0,0.0,0.0,0.0,-5.1214,-5.1214,-5.1214,-5.1214,-5.1214,-5.1214,-5.1214,-5.1214,-5.1214,-5.1214,-5.1214,-5.1214,-5.1214,-5.1214,-5.1214,-5.1214,-5.1214,-5.1214,-5.1214,-5.1214,-5.1214,-5.1214,-5.1214,-5.1214,-5.1214,-5.1214,-5.1214,-5.1214,-5.1214,-5.1214,-5.1214,-5.1214,-5.1214,-5.1214,-5.1214,-5.1214,-5.099,-4.9883,-4.9269,-4.8701,-4.7593,-4.7309,-4.7309,-4.7309,-4.7309,-4.7309,-4.7309,-4.7309,-4.7309,-4.7309,-4.7309,-4.7309,-4.7309,-4.7309,-4.7309,-4.7309,-4.7309,-4.7309,-4.7309,-4.7309,-4.7309,-4.7309,-4.7309,-4.7309,-4.7309,-4.7309,-4.7309,-4.7309,-4.7309,-4.7309,-4.7309,-4.7309,-4.7309,-4.7309,-4.7309,-4.7309,-4.7309,-4.7309,-4.7309,-4.7309,-4.7309,-4.7309,0.0,-3.2223,-3.2706,-3.2506,-3.1944,-3.1084,-2.9559,-2.8032,-2.6613,-2.5467,-2.5083,-2.5098,-2.5516,-2.6348,-2.7799,-3.0372,-3.1182,0.0,0.0,0.0,0.0,0.0,0.0,0.0,0.0,0.0,0.0,0.0,0.0,0.0,-5.1214,-5.1214,-5.1214,-5.1214,-5.1214,-5.1214,-5.1214,-5.1214,-5.1214,-5.1214,-5.1214,-5.1214,-5.1214,-5.1214,-5.1214,-5.1214,-5.1214,-5.1214,0.0,-5.1214,-5.1214,-5.1214,-5.1214,-5.1214,-5.1214,-5.1214,-5.1214,-5.1214,-5.1214,-5.1214,-5.1214,-5.1214,-5.1214,-5.1214,-5.1214,-5.1003,-5.0631,-4.9614,-4.9134,-4.8656,-4.7578,-4.7309,-4.7309,-4.7309,-4.7309,-4.7309,-4.7309,-4.7309,-4.7309,-4.7309,-4.7309,-4.7309,-4.7309,-4.7309,-4.7309,-4.7309,-4.7309,-4.7309,-4.7309,-4.7309,-4.7309,-4.7309,-4.7309,-4.7309,-4.7309,-4.7309,-4.7309,-4.7309,-4.7309,-4.7309,-4.7309,-4.7309,-4.7309,-4.7309,-4.7309,-4.7309,-4.7309,-4.7309,-4.7309,-4.7309,-4.7309,-4.7309,0.0,0.0,0.0,0.0,0.0,-3.0612,-2.8845,-2.7902,0.0,-2.498,-2.5129,-2.5631,-2.5719,-2.6786,-2.8171,-2.9702,-3.0923,0.0,0.0,0.0,0.0,0.0,0.0,0.0,0.0,0.0,0.0,0.0,0.0,0.0,-5.1214,-5.1214,-5.1214,-5.1214,-5.1214,-5.1214,-5.1214,-5.1214,-5.1214,-5.1214,-5.1214,-5.1214,-5.1214,-5.1214,-5.1214,0.0,-5.1214,-5.1214,-5.1214,-5.1214,-5.1214,-5.1214,-5.1214,-5.1214,-5.1214,-5.1214,-5.1214,-5.1214,-5.1214,-5.1214,-5.1214,-5.1122,-5.1109,-5.1079,-5.1079,-5.0644,-5.0046,-4.9449,-4.8835,-4.8132,-4.7474,-4.7309,-4.7309,-4.7309,-4.7309,-4.7309,-4.7309,-4.7309,-4.7309,-4.7309,-4.7309,-4.7309,-4.7309,-4.7309,-4.7309,-4.7309,-4.7309,-4.7309,-4.7309,-4.7309,-4.7309,-4.7309,-4.7309,-4.7309,-4.7309,-4.7309,-4.7309,-4.7309,-4.7309,-4.7309,-4.7309,-4.7309,-4.7309,-4.7309,-4.7309,-4.7309,-4.7309,-4.7309,-4.7309,-4.7309,-4.7309,-4.7309,-2.7352,0.0,-2.8818,-2.85,-2.8316,-2.796,0.0,-2.6704,-2.6136,0.0,0.0,0.0,0.0,-2.7814,-2.9452,0.0,0.0,0.0,0.0,0.0,0.0,0.0,0.0,0.0,0.0,0.0,0.0,0.0,0.0,-5.0644,-5.1184,-5.1214,-5.1214,-5.1214,-5.1214,-5.1214,-5.1214,-5.1214,-5.1214,-5.1214,-5.1214,-5.1214,-5.1214,-5.1214,-5.1214,-5.1214,-5.1214,-5.1214,-5.1214,-5.1214,-5.1214,-5.1214,-5.1214,-5.1214,-5.1214,-5.1214,-5.1214,-5.1214,-5.1214,-5.1214,-5.1139,-5.0584,-5.0137,-4.9733,-4.9733,-4.9957,-5.0046,-4.9449,-4.8835,-4.8132,-4.7474,-4.7309,-4.7309,-4.7309,-4.7309,-4.7309,-4.7309,-4.7309,-4.7309,-4.7309,-4.7309,-4.7309,-4.7309,-4.7309,-4.7309,-4.7309,-4.7309,-4.7309,-4.7309,-4.7309,-4.7309,-4.7309,-4.7309,-4.7309,-4.7309,-4.7309,-4.7309,-4.7309,-4.7309,-4.7309,-4.7309,-4.7309,-4.7309,-4.7309,-4.7309,-4.7309,-4.7309,-4.7309,-4.7309,-4.7309,-4.7309,-4.7309,-2.6086,-2.7528,-2.8674,-2.8645,-2.8611,-2.8404,-2.7525,0.0,0.0,0.0,0.0,0.0,0.0,0.0,0.0,0.0,0.0,0.0,0.0,0.0,0.0,0.0,0.0,0.0,0.0,0.0,0.0,0.0,0.0,-5.0077,-5.0689,-5.0719,-5.0868,-5.1214,-5.1214,-5.1214,-5.1214,-5.1214,-5.1214,-5.1214,-5.1214,-5.1214,-5.1214,-5.1214,-5.1214,-5.1214,-5.1214,-5.1214,-5.1214,-5.1214,-5.1214,-5.1214,-5.1214,-5.1214,-5.1214,-5.1214,-5.1214,-5.1214,-5.1214,-5.102,-5.0614,-5.0002,-4.9553,-4.9314,-4.9314,-4.9299,-4.9269,-4.891,-4.8341,-4.7758,-4.7399,-4.7309,-4.7309,-4.7309,-4.7309,-4.7309,-4.7309,-4.7309,-4.7309,-4.7309,-4.7309,-4.7309,-4.7309,-4.7309,-4.7309,-4.7309,-4.7309,-4.7309,-4.7309,-4.7309,-4.7309,-4.7309,-4.7309,-4.7309,-4.7309,-4.7309,-4.7309,-4.7309,-4.7309,-4.7309,-4.7309,-4.7309,-4.7309,-4.7309,-4.7309,-4.7309,-4.7309,-4.7309,-4.7309,-4.7309,-4.7309,-4.7309,-2.5815,-2.7866,-2.9702,-2.9881,-3.0104,-2.9926,-2.8666,0.0,0.0,0.0,0.0,0.0,0.0,0.0,0.0,0.0,0.0,0.0,0.0,0.0,0.0,0.0,0.0,0.0,0.0,0.0,0.0,0.0,0.0,-4.9404,-5.0001,-5.0046,-5.0346,-5.09,-5.102,-5.1158,-5.1329,-5.1419,-5.1464,-5.1464,-5.1464,-5.1386,-5.1214,-5.1214,-5.1214,-5.1214,-5.1214,0.0,-5.1214,-5.1214,-5.1214,-5.1214,-5.1214,-5.1214,-5.1214,-5.1109,-5.1065,-5.105,-5.096,-5.0496,-4.9807,-4.9299,-4.909,-4.9015,-4.9015,-4.8581,-4.8132,-4.8132,-4.7743,-4.7309,-4.7309,-4.7309,-4.7309,-4.7309,-4.7309,-4.7309,-4.7309,-4.7309,-4.7309,-4.7309,-4.7309,-4.7309,-4.7309,-4.7309,-4.7309,-4.7309,-4.7309,-4.7309,-4.7309,-4.7309,-4.7309,-4.7309,-4.7309,-4.7309,-4.7309,-4.7309,-4.7309,-4.7309,-4.7309,-4.7309,-4.7309,-4.7309,-4.7309,-4.7309,-4.7309,-4.7309,-4.7309,-4.7309,-4.7309,-4.7309,-4.7309,-4.7309,-2.7483,-2.9673,-3.0485,-2.8642,-2.9183,-2.9791,-2.8524,0.0,0.0,0.0,0.0,0.0,0.0,0.0,0.0,0.0,0.0,0.0,0.0,0.0,0.0,0.0,0.0,0.0,0.0,0.0,0.0,0.0,0.0,-4.8716,-4.9374,-4.9419,-4.9509,-4.9614,-5.0107,-5.0804,-5.1786,-5.2372,-5.2649,-5.2649,-5.2649,-5.2139,-5.1214,-5.1214,-5.1214,-5.1214,0.0,-5.1214,-5.1214,-5.1214,-5.1214,-5.1214,-5.1214,-5.1214,-5.1154,-5.0539,-5.0345,-5.027,-4.9763,-4.9134,-4.8566,-4.8461,-4.8057,-4.7608,-4.7608,-4.7534,-4.7459,-4.7459,-4.7384,-4.7309,-4.7309,-4.7309,-4.7309,-4.7309,-4.7309,-4.7309,-4.7309,-4.7309,-4.7309,-4.7309,-4.7309,-4.7309,-4.7309,-4.7309,-4.7309,-4.7309,-4.7309,-4.7309,-4.7309,-4.7309,-4.7309,-4.7309,-4.7309,-4.7309,-4.7309,-4.7309,-4.7309,-4.7309,-4.7309,-4.7309,-4.7309,-4.7309,-4.7309,-4.7309,-4.7309,-4.7309,-4.7309,-4.7309,-4.7309,-4.7309,-4.7309,-4.7309,-2.5931,-2.8248,-2.9939,-2.9702,-3.1357,-3.282,-3.1842,0.0,0.0,0.0,0.0,0.0,0.0,0.0,0.0,0.0,0.0,0.0,0.0,0.0,0.0,0.0,0.0,0.0,0.0,0.0,0.0,0.0,0.0,-4.8275,-4.9532,-4.9563,-5.0002,-5.0882,-5.1192,-5.1884,-5.3022,-5.3342,-5.3598,-5.3828,-5.3193,-5.262,-5.2109,-5.1464,-5.102,-5.0644,-5.0644,-5.0481,-5.0167,-5.0167,-5.0167,-5.0167,-5.0167,-5.0167,-5.0122,-4.9823,-4.9703,-4.9613,-4.8955,-4.8536,-4.8222,-4.7878,-4.7549,-4.7309,-4.7309,-4.7309,-4.7309,-4.7309,-4.7309,-4.7309,-4.7309,-4.7309,-4.7309,-4.7309,-4.7309,-4.7309,-4.7309,-4.7309,-4.7309,-4.7309,-4.7309,-4.7309,-4.7309,-4.7309,-4.7309,-4.7309,-4.7309,-4.7309,-4.7309,-4.7309,-4.7309,-4.7309,-4.7309,-4.7309,-4.7309,-4.7309,-4.7309,-4.7309,-4.7309,-4.7309,-4.7309,-4.7309,-4.7309,-4.7309,-4.7309,-4.7309,-4.7309,-4.7309,-4.7309,-4.7309,-4.7309,-4.7309,-2.5168,-2.7233,-2.945,-3.1258,0.0,-3.4827,-3.4776,-3.4184,0.0,0.0,0.0,0.0,0.0,0.0,0.0,0.0,0.0,0.0,0.0,0.0,0.0,0.0,0.0,0.0,0.0,0.0,0.0,0.0,0.0,-4.7948,-4.9501,-4.9558,-5.0272,-5.183,-5.2005,-5.264,-5.3745,-5.3926,-5.4168,-5.4462,-5.3576,-5.2868,-5.2376,-5.1501,-5.0681,-5.0017,-5.0017,-4.9733,-4.9314,-4.9553,-4.9672,-4.9657,-4.9907,-4.9772,-4.9445,-4.9445,-4.9178,-4.8745,-4.8237,-4.8057,-4.7967,-4.7474,-4.7309,-4.7309,-4.7309,-4.7309,-4.7309,-4.7309,-4.7309,-4.7309,-4.7309,-4.7309,-4.7309,-4.7309,-4.7309,-4.7309,-4.7309,-4.7309,-4.7309,-4.7309,-4.7309,-4.7309,-4.7309,-4.7309,-4.7309,-4.7309,-4.7309,-4.7309,-4.7309,-4.7309,-4.7309,-4.7309,-4.7309,-4.7309,-4.7309,-4.7309,-4.7309,-4.7309,-4.7309,-4.7309,-4.7309,-4.7309,-4.7309,-4.7309,-4.7309,-4.7309,-4.7309,-4.7309,-4.7309,-4.7309,-4.7309,-4.7309,-2.7723,-2.8824,-2.9687,-3.2527,-3.2882,0.0,-3.5042,-3.4962,0.0,-3.6271,0.0,0.0,0.0,0.0,0.0,0.0,0.0,0.0,0.0,0.0,0.0,0.0,0.0,0.0,0.0,0.0,0.0,0.0,-4.7309,-4.7737,-4.8821,-4.8862,-4.939,-5.0502,-5.1142,-5.1968,-5.3041,-5.3679,-5.402,-5.4043,-5.3967,-5.2885,-5.0967,-5.0882,-5.0306,-4.9374,-4.9374,-4.9359,-4.9389,-5.0299,-5.07,-5.077,-5.1714,-5.113,-4.9758,-4.9758,-4.8785,-4.7444,-4.7399,-4.7369,-4.7369,-4.7324,-4.7309,-4.7309,-4.7309,-4.7309,-4.7309,-4.7309,-4.7309,-4.7309,-4.7309,-4.7309,-4.7309,-4.7309,-4.7309,-4.7309,-4.7309,-4.7309,-4.7309,-4.7309,-4.7309,-4.7309,-4.7309,-4.7309,-4.7309,-4.7309,-4.7309,-4.7309,-4.7309,-4.7309,-4.7309,-4.7309,-4.7309,-4.7309,-4.7309,-4.7309,-4.7309,-4.7309,-4.7309,-4.7309,-4.7309,-4.7309,-4.7309,-4.7309,-4.7309,-4.7309,-4.7309,-4.7309,-4.7309,-4.7309,-4.7309,-4.7309,-2.6251,-2.7909,-2.9602,-3.209,-3.3541,0.0,0.0,-3.751,-3.8413,-3.9901,-4.0426,0.0,0.0,0.0,0.0,0.0,0.0,0.0,0.0,0.0,0.0,0.0,0.0,0.0,0.0,0.0,0.0,0.0,-4.7876,-4.8692,-4.9734,-5.0381,-5.1229,-5.2293,-5.2558,-5.2903,-5.3306,-5.3556,-5.369,-5.3707,-5.391,-5.3574,-5.2763,-5.2041,-5.1303,-5.0611,-5.0611,-5.0377,-5.0012,-5.0403,-5.0563,-5.0588,-5.0985,-5.0731,-5.0089,-4.9402,-4.8784,-4.8141,-4.7538,-4.7309,-4.7309,-4.7309,-4.7722,-4.821,-4.821,-4.821,-4.821,-4.821,-4.7792,-4.7309,-4.7309,-4.7309,-4.7309,-4.7309,-4.7309,-4.7309,-4.7309,-4.7309,-4.7309,-4.7309,-4.7309,-4.7309,-4.7309,-4.7309,-4.7309,-4.7309,-4.7309,-4.7309,-4.7309,-4.7309,-4.7309,-4.7309,-4.7309,-4.7309,-4.7309,-4.7309,-4.7309,-4.7309,-4.7309,-4.7309,-4.7309,-4.7309,-4.7309,-4.7309,-4.7309,-4.7309,-4.7309,-4.7309,-4.7309,-4.7309,-4.7309,-4.7309,-2.5676,-2.7435,-2.9534,-3.1752,0.0,0.0,-3.8075,-3.9394,-4.0654,-4.2608,0.0,0.0,0.0,0.0,0.0,0.0,0.0,0.0,0.0,0.0,0.0,0.0,0.0,0.0,0.0,0.0,0.0,-4.8282,-4.8922,-4.9758,-5.0817,-5.1541,-5.2383,-5.3467,-5.3501,-5.3501,-5.3501,-5.3501,-5.3501,-5.3518,-5.3716,-5.3662,-5.3296,-5.2545,-5.1784,-5.1078,-5.1078,-5.0806,-5.0435,-5.0741,-5.1059,-5.1373,-5.1373,-5.0984,-5.032,-4.9575,-4.8866,-4.8225,-4.7538,-4.7309,-4.7309,-4.7309,-4.7988,-4.8784,-4.8784,-4.8784,-4.8784,-4.8784,-4.8072,-4.7309,-4.7309,-4.7309,-4.7309,-4.7309,-4.7309,-4.7309,-4.7309,-4.7309,-4.7309,-4.7309,-4.7309,-4.7309,-4.7309,-4.7309,-4.7309,-4.7309,-4.7566,-4.7651,-4.7337,-4.7566,-4.7651,-4.7337,-4.7309,-4.7309,-4.7309,-4.7609,-4.7651,-4.7309,-4.7609,-4.7651,-4.7294,-4.7309,-4.7309,-4.7309,-4.7309,-4.7309,-4.7309,-4.7309,-4.7309,-4.7309,-4.7309,-4.7309,-2.6691,-2.7842,0.0,0.0,0.0,0.0,-3.9266,-4.0121,-4.0975,-4.4005,0.0,0.0,0.0,0.0,0.0,0.0,0.0,0.0,0.0,0.0,0.0,0.0,0.0,0.0,0.0,0.0,-5.0397,-5.0397,-5.0413,-5.0855,-5.1849,-5.1921,-5.24,-5.3467,-5.3501,-5.3501,-5.3501,-5.3501,-5.3501,-5.3501,-5.3501,-5.2956,-5.1921,-5.1921,-5.1394,-5.0451,-5.0451,-5.0451,-5.0512,-5.1504,-5.2557,-5.3501,-5.3501,-5.2222,-5.0397,-5.0397,-4.9085,-4.7294,-4.7309,-4.7309,-4.7294,-4.7294,-4.7988,-4.8825,-4.8825,-4.8825,-4.8825,-4.8825,-4.8099,-4.7294,-4.7309,-4.7309,-4.7309,-4.7309,-4.7309,-4.7309,-4.7309,-4.7309,-4.7309,-4.7309,-4.7309,-4.7309,-4.7309,-4.7309,-4.7309,-4.7309,-4.8141,-4.8444,-4.7452,-4.8183,-4.8418,-4.7424,-4.7309,-4.7309,-4.7309,-4.821,-4.8361,-4.7381,-4.8252,-4.8377,-4.7337,-4.7309,-4.7309,-4.7309,-4.7309,-4.7309,-4.7309,-4.7309,-4.7309,-4.7309,-4.7309,-4.7309,-2.6691,-2.8569,0.0,0.0,0.0,0.0,0.0,-4.1271,0.0,0.0,0.0,0.0,0.0,0.0,0.0,0.0,0.0,0.0,0.0,0.0,0.0,0.0,0.0,0.0,0.0,0.0,-5.0397,-5.0397,-5.1059,-5.1578,-5.1869,-5.2627,-5.3179,-5.3501,-5.3501,-5.3501,-5.3501,-5.3501,-5.3501,-5.3501,-5.3501,-5.3348,-5.3025,-5.3025,-5.287,-5.2574,-5.2574,-5.2574,-5.2609,-5.2904,-5.3213,-5.3501,-5.3501,-5.2679,-5.1394,-5.0665,-4.9536,-4.8252,-4.7538,-4.7764,-4.8377,-4.8377,-4.956,-5.0989,-5.0989,-5.0989,-5.0838,-5.011,-4.9191,-4.8183,-4.7495,-4.7309,-4.7309,-4.7309,-4.7309,-4.7309,-4.7309,-4.7309,-4.7309,-4.7309,-4.7309,-4.7309,-4.7309,-4.7309,-4.7309,-4.7309,-4.8141,-4.8948,-4.9432,-4.846,-4.7919,-4.8293,-4.7722,-4.7309,-4.7309,-4.821,-4.8677,-4.8361,-4.9352,-4.9125,-4.7381,-4.7309,-4.7309,-4.7309,-4.7309,-4.7309,-4.7309,-4.7309,-4.7309,-4.7309,-4.7309,-4.7309,-2.7875,0.0,0.0,0.0,0.0,0.0,0.0,0.0,0.0,0.0,0.0,0.0,0.0,0.0,0.0,0.0,0.0,0.0,0.0,0.0,0.0,0.0,0.0,0.0,0.0,-5.1647,-5.1647,-5.1647,-5.2205,-5.2557,-5.2557,-5.3144,-5.3501,-5.3501,-5.3501,-5.3501,-5.3501,-5.3501,-5.3501,-5.3501,-5.3501,-5.3501,-5.3501,-5.3501,-5.3501,-5.3501,-5.3501,-5.3501,-5.3501,-5.3501,-5.3501,-5.3501,-5.3501,-5.2835,-5.1849,-5.1229,-5.0342,-4.9336,-4.8733,-4.8922,-4.9416,-4.9416,-5.0534,-5.1921,-5.1921,-5.1921,-5.176,-5.1171,-5.0227,-4.9191,-4.8141,-4.7919,-4.7807,-4.7381,-4.7309,-4.7309,-4.7309,-4.7609,-4.7919,-4.7919,-4.8225,-4.8392,-4.7961,-4.8225,-4.824,-4.7424,-4.8141,-4.9191,-5.0242,-4.8922,-4.7988,-4.8183,-4.7651,-4.7452,-4.7876,-4.8841,-4.9416,-4.9416,-5.0435,-5.0048,-4.7988,-4.7919,-4.7722,-4.7309,-4.7309,-4.7309,-4.7309,-4.7309,-4.7309,-4.7309,-4.7309,-4.7309,0.0,0.0,0.0,0.0,0.0,0.0,0.0,0.0,0.0,0.0,0.0,0.0,0.0,0.0,0.0,0.0,0.0,0.0,0.0,0.0,0.0,0.0,0.0,0.0,-5.3501,-5.3501,-5.3501,-5.3501,-5.3501,-5.3501,-5.3501,-5.3501,-5.3501,-5.3501,-5.3501,-5.3501,-5.3501,-5.3501,-5.3501,-5.3501,-5.3501,-5.3501,-5.3501,-5.3501,-5.3501,-5.3501,-5.3501,-5.3501,-5.3501,-5.3501,-5.3501,-5.3501,-5.3501,-5.2835,-5.1921,-5.1921,-5.1266,-5.0397,-5.0397,-5.0435,-5.055,-5.055,-5.1229,-5.2046,-5.2046,-5.2046,-5.2046,-5.1921,-5.1229,-5.0281,-4.9094,-4.8784,-4.8553,-4.7651,-4.7424,-4.7424,-4.7424,-4.8225,-4.8948,-4.8948,-4.9655,-4.997,-4.911,-4.9655,-4.9671,-4.7961,-4.8335,-4.9256,-5.0512,-4.9575,-4.8486,-4.7651,-4.7495,-4.7807,-4.8702,-4.9773,-5.0435,-5.0512,-5.1467,-5.1139,-4.9175,-4.8907,-4.8335,-4.7309,-4.7309,-4.7309,-4.7309,-4.7309,-4.7309,-4.7309,-4.7309,-4.7309,0.0,0.0,0.0,0.0,0.0,0.0,0.0,0.0,0.0,0.0,0.0,0.0,0.0,0.0,0.0,0.0,0.0,0.0,0.0,0.0,0.0,0.0,0.0,0.0,-5.3501,-5.3501,-5.3501,-5.3501,-5.3501,-5.3501,-5.3501,-5.3501,-5.3501,-5.3501,-5.3501,-5.3501,-5.3501,-5.3501,-5.3501,-5.3501,-5.3501,-5.3501,-5.3501,-5.3501,-5.3501,-5.3501,-5.3501,-5.3501,-5.3501,-5.3501,-5.3501,-5.3501,-5.3501,-5.2835,-5.1921,-5.1921,-5.1266,-5.0397,-5.0397,-5.093,-5.1578,-5.1578,-5.2277,-5.3144,-5.3144,-5.3144,-5.299,-5.2153,-5.1724,-5.1155,-4.9296,-4.8784,-4.8759,-4.8527,-4.8486,-4.8486,-4.8486,-4.9311,-5.0048,-5.0048,-4.9575,-4.9336,-4.9931,-4.9536,-4.9536,-5.0725,-4.9718,-4.9758,-5.2487,-5.0458,-4.9029,-4.9671,-4.9004,-4.8553,-4.8784,-4.9773,-5.0741,-5.1541,-5.2557,-5.2592,-5.1303,-4.9679,-4.8335,-4.7309,-4.7309,-4.7309,-4.7309,-4.7309,-4.7309,-4.7309,-4.7309,-4.7309,0.0,0.0,0.0,0.0,0.0,0.0,0.0,0.0,0.0,0.0,0.0,0.0,0.0,0.0,0.0,0.0,0.0,0.0,0.0,0.0,0.0,0.0,0.0,-5.2926,-5.2926,-5.3281,-5.3501,-5.3501,-5.3501,-5.3501,-5.3501,-5.3501,-5.3501,-5.3501,-5.3501,-5.3501,-5.3501,-5.3501,-5.3501,-5.3501,-5.3501,-5.3501,-5.3501,-5.3501,-5.3501,-5.3501,-5.3501,-5.3501,-5.3501,-5.3501,-5.3501,-5.3501,-5.3501,-5.3144,-5.2679,-5.2679,-5.2329,-5.1865,-5.1865,-5.2222,-5.2679,-5.2679,-5.3025,-5.3501,-5.3501,-5.3501,-5.3382,-5.2818,-5.2312,-5.1541,-4.9954,-4.9575,-4.9456,-4.8907,-4.8784,-4.8948,-4.9456,-5.0381,-5.1117,-5.1117,-5.108,-5.1043,-5.1117,-5.0281,-5.0265,-5.2364,-5.1303,-5.0876,-5.2522,-5.1303,-5.0304,-5.0397,-4.9891,-4.9758,-5.0249,-5.0817,-5.1541,-5.2592,-5.3195,-5.3025,-5.1957,-5.0876,-4.956,-4.8072,-4.803,-4.7792,-4.7309,-4.7309,-4.7309,-4.7309,-4.7309,-4.7309,0.0,0.0,0.0,0.0,0.0,0.0,0.0,0.0,0.0,0.0,0.0,0.0,0.0,0.0,0.0,0.0,0.0,0.0,0.0,0.0,0.0,0.0,0.0,-5.2114,-5.2114,-5.2723,-5.3112,-5.3112,-5.323,-5.3298,-5.3298,-5.3433,-5.3501,-5.3501,-5.3501,-5.3501,-5.3501,-5.3501,-5.3501,-5.3501,-5.3501,-5.3501,-5.3501,-5.3501,-5.3501,-5.3501,-5.3501,-5.3501,-5.3501,-5.3501,-5.3501,-5.3501,-5.3501,-5.3501,-5.3501,-5.3501,-5.3501,-5.3501,-5.3501,-5.3501,-5.3501,-5.3501,-5.3501,-5.3501,-5.3501,-5.3501,-5.3501,-5.3501,-5.2714,-5.1724,-5.0855,-5.0512,-5.0204,-4.948,-4.9336,-4.956,-5.0474,-5.1467,-5.2189,-5.2189,-5.2904,-5.3144,-5.2082,-5.1357,-5.1521,-5.323,-5.2592,-5.1957,-5.2153,-5.1993,-5.1578,-5.0741,-5.0665,-5.1021,-5.1832,-5.1921,-5.2348,-5.3416,-5.3501,-5.311,-5.2189,-5.2189,-5.1266,-4.936,-4.8973,-4.8403,-4.7581,-4.7381,-4.7309,-4.7309,-4.7309,-4.7381,0.0,0.0,0.0,0.0,0.0,0.0,0.0,0.0,0.0,0.0,0.0,0.0,0.0,0.0,0.0,0.0,0.0,0.0,0.0,0.0,0.0,0.0,0.0,-5.1369,-5.1369,-5.1422,-5.1522,-5.1522,-5.2114,-5.2469,-5.2469,-5.3129,-5.3501,-5.3501,-5.3501,-5.3501,-5.3501,-5.3501,-5.3501,-5.3501,-5.3501,-5.3501,-5.3501,-5.3501,-5.3501,-5.3501,-5.3501,-5.3501,-5.3501,-5.3501,-5.3501,-5.3501,-5.3501,-5.3501,-5.3501,-5.3501,-5.3501,-5.3501,-5.3501,-5.3501,-5.3501,-5.3501,-5.3501,-5.3501,-5.3501,-5.3501,-5.3501,-5.3501,-5.2714,-5.1885,-5.1724,-5.1043,-5.0589,-5.1303,-5.1488,-5.1525,-5.1651,-5.2557,-5.3298,-5.3298,-5.3382,-5.3144,-5.2082,-5.2557,-5.3195,-5.3467,-5.2592,-5.2241,-5.3161,-5.247,-5.1849,-5.1724,-5.1687,-5.176,-5.1885,-5.1921,-5.2348,-5.3416,-5.3501,-5.3433,-5.3298,-5.3298,-5.2714,-5.1525,-4.9718,-4.8743,-4.8594,-4.7722,-4.7309,-4.7309,-4.7309,-4.7764,0.0,0.0,0.0,0.0,0.0,0.0,0.0,0.0,0.0,0.0,0.0,0.0,0.0,0.0,0.0,0.0,0.0,0.0,0.0,0.0,0.0,0.0,0.0,-5.0591,-5.0591,-5.098,-5.1185,-5.1185,-5.1505,-5.1691,-5.1691,-5.2418,-5.2841,-5.2841,-5.3264,-5.3501,-5.3501,-5.3501,-5.3501,-5.3501,-5.3501,-5.3501,-5.3501,-5.3501,-5.3501,-5.3501,-5.3501,-5.3501,-5.3501,-5.3501,-5.3501,-5.3501,-5.3501,-5.3501,-5.3501,-5.3501,-5.3501,-5.3501,-5.3501,-5.3501,-5.3501,-5.3501,-5.3501,-5.3501,-5.3501,-5.3501,-5.3501,-5.3501,-5.2714,-5.1921,-5.1921,-5.1578,-5.134,-5.1796,-5.2348,-5.28,-5.28,-5.3161,-5.3501,-5.3501,-5.3501,-5.3348,-5.287,-5.3195,-5.3501,-5.3501,-5.311,-5.299,-5.3433,-5.3076,-5.28,-5.28,-5.28,-5.28,-5.28,-5.28,-5.299,-5.3467,-5.3501,-5.3501,-5.3501,-5.3501,-5.328,-5.28,-5.1303,-5.0265,-4.9694,-4.9231,-4.9044,-4.9044,-4.9044,-4.9271,0.0,0.0,0.0,0.0,0.0,0.0,0.0,0.0,0.0,0.0,0.0,0.0,0.0,0.0,0.0,0.0,0.0,0.0,0.0,0.0,0.0,0.0,0.0,-4.9813,-4.9813,-5.0321,-5.0659,-5.0659,-5.0828,-5.093,-5.093,-5.1623,-5.2029,-5.2029,-5.2604,-5.301,-5.3196,-5.3399,-5.3501,-5.3501,-5.3501,-5.3501,-5.3501,-5.3501,-5.3501,-5.3501,-5.3501,-5.3501,-5.3501,-5.3501,-5.3501,-5.3501,-5.3501,-5.3501,-5.3501,-5.3501,-5.3501,-5.3501,-5.3501,-5.3501,-5.3501,-5.3501,-5.3501,-5.3501,-5.3501,-5.3501,-5.3501,-5.3501,-5.2714,-5.1957,-5.2241,-5.2117,-5.1957,-5.2241,-5.2904,-5.3501,-5.3501,-5.3501,-5.3501,-5.3501,-5.3501,-5.3501,-5.3501,-5.3501,-5.3501,-5.3501,-5.3501,-5.3501,-5.3501,-5.3501,-5.3501,-5.3501,-5.3501,-5.3501,-5.3501,-5.3501,-5.3501,-5.3501,-5.3501,-5.3501,-5.3501,-5.3501,-5.3501,-5.3501,-5.2714,-5.1813,-5.0779,-5.0512,-5.0397,-5.0397,-5.0397,-5.055,0.0,0.0,0.0,0.0,0.0,0.0,0.0,0.0,0.0,0.0,0.0,0.0,0.0,0.0,0.0,0.0,0.0,0.0,0.0,0.0,0.0,0.0,0.0,-4.9069,-4.9069,-4.9086,-4.912,-4.912,-4.9763,-5.0152,-5.0152,-5.0862,-5.1268,-5.1268,-5.1319,-5.1674,-5.2367,-5.3129,-5.3501,-5.3501,-5.3501,-5.3501,-5.3501,-5.3501,-5.3501,-5.3501,-5.3501,-5.3501,-5.3501,-5.3501,-5.3501,-5.3501,-5.3501,-5.3501,-5.3501,-5.3501,-5.3501,-5.3501,-5.3501,-5.3501,-5.3501,-5.3501,-5.3501,-5.3501,-5.3501,-5.3501,-5.3501,-5.3501,-5.2714,-5.2117,-5.3144,-5.2662,-5.2153,-5.3179,-5.3467,-5.3501,-5.3501,-5.3501,-5.3501,-5.3501,-5.3501,-5.3501,-5.3501,-5.3501,-5.3501,-5.3501,-5.3501,-5.3501,-5.3501,-5.3501,-5.3501,-5.3501,-5.3501,-5.3501,-5.3501,-5.3501,-5.3501,-5.3501,-5.3501,-5.3501,-5.3501,-5.3501,-5.3501,-5.3501,-5.3433,-5.2904,-5.1813,-5.0855,-5.0397,-5.0397,-5.0397,-5.0892,0.0,0.0,0.0,0.0,0.0,0.0,0.0,0.0,0.0,0.0,0.0,0.0,0.0,0.0,0.0,0.0,0.0,0.0,0.0,0.0,0.0,0.0,0.0,-4.9001,-4.9001,-4.9001,-4.9001,-4.9001,-4.9238,-4.939,-4.939,-5.0084,-5.049,-5.049,-5.0963,-5.1352,-5.1606,-5.235,-5.2739,-5.2739,-5.3264,-5.3501,-5.3501,-5.3501,-5.3501,-5.3501,-5.3501,-5.3501,-5.3501,-5.3501,-5.3501,-5.3501,-5.3501,-5.3501,-5.3501,-5.3501,-5.3501,-5.3501,-5.3501,-5.3501,-5.3501,-5.3501,-5.3501,-5.3501,-5.3501,-5.3501,-5.3501,-5.3501,-5.323,-5.3025,-5.3382,-5.3213,-5.3025,-5.3433,-5.3501,-5.3501,-5.3501,-5.3501,-5.3501,-5.3501,-5.3501,-5.3501,-5.3501,-5.3501,-5.3501,-5.3501,-5.3501,-5.3501,-5.3501,-5.3501,-5.3501,-5.3501,-5.3501,-5.3501,-5.3501,-5.3501,-5.3501,-5.3501,-5.3501,-5.3501,-5.3501,-5.3501,-5.3501,-5.3501,-5.3501,-5.3314,-5.2921,-5.2574,-5.2381,-5.2381,-5.2381,-5.2574,-2.5337,0.0,0.0,0.0,0.0,0.0,0.0,0.0,0.0,0.0,0.0,0.0,0.0,0.0,0.0,0.0,0.0,0.0,0.0,0.0,0.0,0.0,0.0,-4.9001,-4.9001,-4.9001,-4.9001,-4.9001,-4.9001,0.0,-4.9001,-4.9458,-4.9729,-4.9729,-5.0456,-5.0845,-5.0845,-5.1572,-5.1944,-5.1944,-5.2723,-5.3112,-5.3112,-5.3382,-5.3501,-5.3501,-5.3501,-5.3501,-5.3501,-5.3501,-5.3501,-5.3501,-5.3501,-5.3501,-5.3501,-5.3501,-5.3501,-5.3501,-5.3501,-5.3501,-5.3501,-5.3501,-5.3501,-5.3501,-5.3501,-5.3501,-5.3501,-5.3501,-5.3501,-5.3501,-5.3501,-5.3501,-5.3501,-5.3501,-5.3501,-5.3501,-5.3501,-5.3501,-5.3501,-5.3501,-5.3501,-5.3501,-5.3501,-5.3501,-5.3501,-5.3501,-5.3501,-5.3501,-5.3501,-5.3501,-5.3501,-5.3501,-5.3501,-5.3501,-5.3501,-5.3501,-5.3501,-5.3501,-5.3501,-5.3501,-5.3501,-5.3501,-5.3501,-5.3501,-5.3501,-5.3501,-5.3501,-5.3501,-5.3501,-5.3501,-5.3501,-5.3501,0.0,0.0,0.0,0.0,0.0,0.0,0.0,0.0,0.0,0.0,0.0,0.0,0.0,0.0,0.0,0.0,0.0,0.0,0.0,0.0,0.0,0.0,0.0,-4.8951,-4.8968,-4.8968,-4.8984,-4.9001,-4.9001,-4.9001,-4.9001,-4.9001,-4.9001,-4.9001,-4.9678,-5.005,-5.005,-5.0811,-5.1183,-5.12,-5.1928,-5.2266,-5.23,-5.3112,-5.3467,-5.3467,-5.3501,-5.3501,-5.3501,-5.3501,-5.3501,-5.3501,-5.3501,-5.3501,-5.3501,-5.3501,-5.3501,-5.3501,-5.3501,-5.3501,-5.3501,-5.3501,-5.3501,-5.3501,-5.3501,-5.3501,-5.3501,-5.3501,-5.3501,-5.3501,-5.3501,-5.3501,-5.3501,-5.3501,-5.3501,-5.3501,-5.3501,-5.3501,-5.3501,-5.3501,-5.3501,-5.3501,-5.3501,-5.3501,-5.3501,-5.3501,-5.3501,-5.3501,-5.3501,-5.3501,-5.3501,-5.3501,-5.3501,-5.3501,-5.3501,-5.3501,-5.3501,-5.3501,-5.3501,-5.3501,-5.3501,-5.3501,-5.3501,-5.3501,-5.3501,-5.3501,-5.3501,-5.3501,-5.3501,-5.3501,-5.3501,-5.3501,-2.3528,0.0,0.0,0.0,0.0,0.0,0.0,0.0,0.0,0.0,0.0,0.0,0.0,0.0,0.0,0.0,0.0,0.0,0.0,0.0,0.0,0.0,0.0,-4.7614,-4.8156,-4.8193,-4.8443,0.0,-4.9001,-4.9001,-4.9001,-4.9001,-4.9001,-4.9001,-4.9204,-4.9306,-4.9306,-5.0033,-5.0388,-5.0405,-5.115,-5.1522,-5.1539,-5.23,-5.2638,-5.2655,-5.3247,-5.3501,-5.3501,-5.3501,-5.3501,-5.3501,-5.3501,-5.3501,-5.3501,-5.3501,-5.3501,-5.3501,-5.3501,-5.3501,-5.3501,-5.3501,-5.3501,-5.3501,-5.3501,-5.3501,-5.3501,-5.3501,-5.3501,-5.3501,-5.3501,-5.3501,-5.3501,-5.3501,-5.3501,-5.3501,-5.3501,-5.3501,-5.3501,-5.3501,-5.3501,-5.3501,-5.3501,-5.3501,-5.3501,-5.3501,-5.3501,-5.3501,-5.3501,-5.3501,-5.3501,-5.3501,-5.3501,-5.3501,-5.3501,-5.3501,-5.3501,-5.3501,-5.3501,-5.3501,-5.3501,-5.3501,-5.3501,-5.3501,-5.3501,-5.3501,-5.3501,-5.3501,-5.3501,-5.3501,-5.3501,-5.3501,-2.4695,-2.571,-2.7215,0.0,0.0,0.0,0.0,-3.2645,0.0,0.0,0.0,0.0,0.0,0.0,0.0,0.0,0.0,0.0,0.0,0.0,0.0,0.0,0.0,-4.6972,-4.7411,-4.7445,-4.7767,-4.8494,-4.8545,-4.868,-4.8984,-4.9001,-4.9001,-4.9001,-4.9001,-4.9001,-4.9001,-4.9424,-4.9644,-4.9644,-5.0388,-5.0744,-5.0777,-5.1505,-5.2012,-5.2334,-5.2807,-5.3196,-5.3501,-5.3501,-5.3501,-5.3501,-5.3501,-5.3501,-5.3501,-5.3501,-5.3501,-5.3501,-5.3501,-5.3501,-5.3501,-5.3501,-5.3501,-5.3501,-5.3501,-5.3501,-5.3501,-5.3501,-5.3501,-5.3501,-5.3501,-5.3501,-5.3501,-5.3501,-5.3501,-5.3501,-5.3501,-5.3501,-5.3501,-5.3501,-5.3501,-5.3501,-5.3501,-5.3501,-5.3501,-5.3501,-5.3501,-5.3501,-5.3501,-5.3501,-5.3501,-5.3501,-5.3501,-5.3501,-5.3501,-5.3501,-5.3501,-5.3501,-5.3501,-5.3501,-5.3501,-5.3501,-5.3501,-5.3501,-5.3501,-5.3501,-5.3501,-5.3501,-5.3501,-5.3501,-5.3501,-5.3501,-2.6674,-2.7181,-2.8568,0.0,0.0,0.0,-3.3605,-3.3271,0.0,0.0,0.0,0.0,0.0,0.0,0.0,0.0,0.0,0.0,0.0,0.0,0.0,0.0,0.0,-4.6583,-4.6667,-4.6667,-4.6972,-4.7703,-4.7838,-4.8176,-4.8849,-4.8968,-4.9001,-4.9001,-4.9001,-4.9001,-4.9001,-4.9001,-4.9001,-4.9018,-4.9661,-4.9965,-4.9999,-5.0744,-5.1454,-5.2063,-5.2232,-5.2706,-5.3382,-5.3467,-5.3501,-5.3501,-5.3501,-5.3501,-5.3501,-5.3501,-5.3501,-5.3501,-5.3501,-5.3501,-5.3501,-5.3501,-5.3501,-5.3501,-5.3501,-5.3501,-5.3501,-5.3501,-5.3501,-5.3501,-5.3501,-5.3501,-5.3501,-5.3501,-5.3501,-5.3501,-5.3501,-5.3501,-5.3501,-5.3501,-5.3501,-5.3501,-5.3501,-5.3501,-5.3501,-5.3501,-5.3501,-5.3501,-5.3501,-5.3501,-5.3501,-5.3501,-5.3501,-5.3501,-5.3501,-5.3501,-5.3501,-5.3501,-5.3501,-5.3501,-5.3501,-5.3501,-5.3501,-5.3501,-5.3501,-5.3501,-5.3501,-5.3501,-5.3501,-5.3501,-5.3501,-5.3501,-2.9516,-3.0294,-3.1075,-2.9585,0.0,0.0,-2.9599,-2.9499,0.0,0.0,0.0,0.0,0.0,0.0,0.0,0.0,0.0,0.0,0.0,0.0,0.0,0.0,0.0,-4.5246,-4.5855,-4.5923,-4.6227,-4.6955,-4.7581,-4.7939,-4.8122,-4.868,-4.9001,-4.9001,-4.9001,-4.9001,-4.9001,-4.9001,-4.9001,-4.9001,-4.9154,-4.9221,-4.9238,-4.9982,-5.0388,-5.0591,-5.1775,-5.2384,-5.2587,-5.323,-5.3501,-5.3501,-5.3501,-5.3501,-5.3501,-5.3501,-5.3501,-5.3501,-5.3501,-5.3501,-5.3501,-5.3501,-5.3501,-5.3501,-5.3501,-5.3501,-5.3501,-5.3501,-5.3501,-5.3501,-5.3501,-5.3501,-5.3501,-5.3501,-5.3501,-5.3501,-5.3501,-5.3501,-5.3501,-5.3501,-5.3501,-5.3501,-5.3501,-5.3501,-5.3501,-5.3501,-5.3501,-5.3501,-5.3501,-5.3501,-5.3501,-5.3501,-5.3501,-5.3501,-5.3501,-5.3501,-5.3501,-5.3501,-5.3501,-5.3501,-5.3501,-5.3501,-5.3501,-5.3501,-5.3501,-5.3501,-5.3501,-5.3501,-5.3501,-5.3501,-5.3501,-5.3501,-3.1596,-3.2002,-3.2577,-3.1461,0.0,0.0,0.0,-3.0345,-3.0818,0.0,0.0,0.0,0.0,0.0,0.0,0.0,0.0,0.0,0.0,0.0,0.0,0.0,0.0,-4.3741,-4.4485,-4.457,-4.5043,-4.616,-4.6938,-4.7361,-4.7361,-4.7699,-4.8071,-4.8443,-4.846,-4.8646,-4.9001,-4.9001,-4.9001,-4.9001,-4.9001,-4.9001,-4.9018,-4.9373,-4.9746,-5.0135,-5.0879,-5.1623,-5.2334,-5.2739,-5.3145,-5.3501,-5.3501,-5.3501,-5.3501,-5.3501,-5.3501,-5.3501,-5.3501,-5.3501,-5.3501,-5.3501,-5.3501,-5.3501,-5.3501,-5.3501,-5.3501,-5.3501,-5.3501,-5.3501,-5.3501,-5.3501,-5.3501,-5.3501,-5.3501,-5.3501,-5.3501,-5.3501,-5.3501,-5.3501,-5.3501,-5.3501,-5.3501,-5.3501,-5.3501,-5.3501,-5.3501,-5.3501,-5.3501,-5.3501,-5.3501,-5.3501,-5.3501,-5.3501,-5.3501,-5.3501,-5.3501,-5.3501,-5.3501,-5.3501,-5.3501,-5.3501,-5.3501,-5.3501,-5.3501,-5.3501,-5.3501,-5.3501,-5.3501,-5.3501,-5.3501,-5.3501,-3.3897,-3.3914,0.0,0.0,0.0,-3.2544,0.0,0.0,0.0,-3.4112,0.0,0.0,0.0,0.0,0.0,0.0,0.0,0.0,0.0,0.0,0.0,0.0,0.0,-4.2523,-4.3149,-4.2946,-4.347,-4.5145,-4.5686,-4.6126,-4.6549,-4.6718,-4.7073,-4.7682,-4.7821,-4.8176,-4.8781,-4.8934,-4.9001,-4.9001,-4.9001,-4.9001,-4.9001,-4.9001,-4.9323,-4.9898,-5.0033,-5.0777,-5.1894,-5.2181,-5.2689,-5.3281,-5.345,-5.3501,-5.3501,-5.3501,-5.3501,-5.3501,-5.3501,-5.3501,-5.3501,-5.3501,-5.3501,-5.3501,-5.3501,-5.3501,-5.3501,-5.3501,-5.3501,-5.3501,-5.3501,-5.3501,-5.3501,-5.3501,-5.3501,-5.3501,-5.3501,-5.3501,-5.3501,-5.3501,-5.3501,-5.3501,-5.3501,-5.3501,-5.3501,-5.3501,-5.3501,-5.3501,-5.3501,-5.3501,-5.3501,-5.3501,-5.3501,-5.3501,-5.3501,-5.3501,-5.3501,-5.3501,-5.3501,-5.3501,-5.3501,-5.3501,-5.3501,-5.3501,-5.3501,-5.3501,-5.3501,-5.3501,-5.3501,-5.3501,-5.3501,-5.3501,0.0,0.0,0.0,0.0,-3.5774,-3.5977,-3.1495,0.0,-3.1904,-3.0937,0.0,0.0,0.0,0.0,0.0,0.0,0.0,0.0,0.0,0.0,0.0,0.0,0.0,-4.232,-4.2405,-4.1221,-4.1356,-4.3494,-4.3132,-4.369,-4.572,-4.6447,-4.6836,-4.6921,-4.7564,-4.7922,-4.8007,-4.868,-4.9001,-4.9001,-4.9001,-4.9001,-4.9001,-4.9001,-4.9052,-4.9171,-4.9813,-5.0185,-5.0439,-5.1758,-5.235,-5.252,-5.323,-5.3501,-5.3501,-5.3501,-5.3501,-5.3501,-5.3501,-5.3501,-5.3501,-5.3501,-5.3501,-5.3501,-5.3501,-5.3501,-5.3501,-5.3501,-5.3501,-5.3501,-5.3501,-5.3501,-5.3501,-5.3501,-5.3501,-5.3501,-5.3501,-5.3501,-5.3501,-5.3501,-5.3501,-5.3501,-5.3501,-5.3501,-5.3501,-5.3501,-5.3501,-5.3501,-5.3501,-5.3501,-5.3501,-5.3501,-5.3501,-5.3501,-5.3501,-5.3501,-5.3501,-5.3501,-5.3501,-5.3501,-5.3501,-5.3501,-5.3501,-5.3501,-5.3501,-5.3501,-5.3501,-5.3501,-5.3501,-5.3501,-5.3501,-5.3501,0.0,0.0,0.0,0.0,0.0,0.0,-3.2692,-3.1833,-3.1715,0.0,0.0,0.0,0.0,0.0,0.0,0.0,-3.2696,0.0,0.0,0.0,0.0,0.0,0.0,0.0,-4.0257,-4.0206,-4.0849,-4.2642,-4.1677,-4.1999,-4.4265,-4.4671,-4.5246,-4.6126,-4.6887,-4.7479,-4.7889,-4.8646,-4.9001,-4.9001,-4.9001,-4.9001,-4.9001,-4.9001,-4.9001,-4.9018,-4.9323,-4.9695,-5.0135,-5.076,-5.1285,-5.1742,-5.2503,-5.3095,-5.3501,-5.3501,-5.3501,-5.3501,-5.3501,-5.3501,-5.3501,-5.3501,-5.3501,-5.3501,-5.3501,-5.3501,-5.3501,-5.3501,-5.3501,-5.3501,-5.3501,-5.3501,-5.3501,-5.3501,-5.3501,-5.3501,-5.3501,-5.3501,-5.3501,-5.3501,-5.3501,-5.3501,-5.3501,-5.3501,-5.3501,-5.3501,-5.3501,-5.3501,-5.3501,-5.3501,-5.3501,-5.3501,-5.3501,-5.3501,-5.3501,-5.3501,-5.3501,-5.3501,-5.3501,-5.3501,-5.3501,-5.3501,-5.3501,-5.3501,-5.3501,-5.3501,-5.3501,-5.3501,-5.3501,-5.3501,-5.3501,-5.3501,-3.8751,0.0,0.0,-3.6992,-3.6045,-3.5109,-3.3237,-3.2442,-3.2341,-3.322,0.0,0.0,0.0,0.0,-3.1427,-3.1749,0.0,-3.3136,0.0,0.0,0.0,0.0,0.0,0.0,0.0,-3.8633,-3.9445,-4.1542,-4.0146,-4.035,-4.2963,-4.3274,-4.3899,-4.5043,-4.6007,-4.6853,-4.7597,-4.8342,-4.8798,-4.9001,-4.9001,-4.9001,-4.9001,-4.9001,-4.9001,-4.9001,-4.9001,-4.9306,-4.9796,-4.9999,-5.0422,-5.0997,-5.1928,-5.2655,-5.3196,-5.3416,-5.3501,-5.3501,-5.3501,-5.3501,-5.3501,-5.3501,-5.3501,-5.3501,-5.3501,-5.3501,-5.3501,-5.3501,-5.3501,-5.3501,-5.3501,-5.3501,-5.3501,-5.3501,-5.3501,-5.3501,-5.3501,-5.3501,-5.3501,-5.3501,-5.3501,-5.3501,-5.3501,-5.3501,-5.3501,-5.3501,-5.3501,-5.3501,-5.3501,-5.3501,-5.3501,-5.3501,-5.3501,-5.3501,-5.3501,-5.3501,-5.3501,-5.3501,-5.3501,-5.3501,-5.3501,-5.3501,-5.3501,-5.3501,-5.3501,-5.3501,-5.3501,-5.3501,-5.3501,-5.3501,-5.3501,-5.3501,-4.0417,-4.0561,-4.0257,-3.6546,-3.5616,-3.4839,-3.1935,-3.2882,-3.4201,-3.3541,-3.5098,-3.6349,-3.5616,-3.4878,-3.4134,-3.344,-3.3372,0.0,0.0,0.0,0.0,0.0,0.0,0.0,0.0,-3.596,-3.6214,0.0,-3.8142,-3.8505,-4.2134,-4.3014,-4.3409,-4.346,-4.4942,-4.6092,-4.6819,-4.7581,-4.8308,-4.9001,-4.9001,-4.9001,-4.9001,-4.9001,-4.9001,-4.9001,-4.9001,-4.9018,-4.9086,-4.9796,-5.0101,-5.027,-5.1725,-5.2317,-5.2435,-5.3213,-5.3501,-5.3501,-5.3501,-5.3501,-5.3501,-5.3501,-5.3501,-5.3501,-5.3501,-5.3501,-5.3501,-5.3501,-5.3501,-5.3501,-5.3501,-5.3501,-5.3501,-5.3501,-5.3501,-5.3501,-5.3501,-5.3501,-5.3501,-5.3501,-5.3501,-5.3501,-5.3501,-5.3501,-5.3501,-5.3501,-5.3501,-5.3501,-5.3501,-5.3501,-5.3501,-5.3501,-5.3501,-5.3501,-5.3501,-5.3501,-5.3501,-5.3501,-5.3501,-5.3501,-5.3501,-5.3501,-5.3501,-5.3501,-5.3501,-5.3501,-5.3501,-5.3501,-5.3501,-5.3501,-5.3501,-5.3501,-4.1677,-4.2083,-4.1871,-3.865,-3.7483,-3.6349,-3.3339,-3.3609,-3.4286,-3.3558,-3.5199,-3.6535,-3.5735,-3.5397,-3.4996,-3.4252,-3.3728,-3.2797,0.0,0.0,0.0,0.0,0.0,0.0,0.0,0.0,0.0,0.0,-3.7483,0.0,-4.1407,-4.2269,-4.2912,-4.3375,-4.4908,-4.5821,-4.6075,-4.731,-4.8024,-4.8261,-4.8781,-4.9001,-4.9001,-4.9001,-4.9001,-4.9001,-4.9001,-4.9001,-4.9018,-4.9272,-4.9373,-4.9526,-5.1014,-5.1589,-5.1742,-5.3027,-5.3501,-5.3501,-5.3501,-5.3501,-5.3501,-5.3501,-5.3501,-5.3501,-5.3501,-5.3501,-5.3501,-5.3501,-5.3501,-5.3501,-5.3501,-5.3501,-5.3501,-5.3501,-5.3501,-5.3501,-5.3501,-5.3501,-5.3501,-5.3501,-5.3501,-5.3501,-5.3501,-5.3501,-5.3501,-5.3501,-5.3501,-5.3501,-5.3501,-5.3501,-5.3501,-5.3501,-5.3501,-5.3501,-5.3501,-5.3501,-5.3501,-5.3501,-5.3501,-5.3501,-5.3501,-5.3501,-5.3501,-5.3501,-5.3501,-5.3501,-5.3501,-5.3501,-5.3501,-5.3501,-5.3501,-5.3501,-4.2439,-4.2844,-4.2733,-4.007,-3.9039,-3.7973,-3.5233,-3.5588,-3.6265,-3.5537,-3.6975,-3.8278,-3.8041,-3.7347,-3.6485,-3.547,-3.4455,-3.2848,0.0,-2.8856,0.0,0.0,0.0,0.0,0.0,0.0,-3.5013,-3.733,-3.6575,0.0,0.0,-4.1373,-4.2252,-4.2997,-4.4248,-4.5162,-4.5703,-4.665,-4.7365,-4.7889,-4.8392,-4.8748,-4.9001,-4.9001,-4.9001,-4.9001,-4.9001,-4.9001,-4.9001,-4.9001,-4.9001,-4.912,-5.0355,-5.098,-5.1371,-5.2942,-5.3501,-5.3501,-5.3501,-5.3501,-5.3501,-5.3501,-5.3501,-5.3501,-5.3501,-5.3501,-5.3501,-5.3501,-5.3501,-5.3501,-5.3501,-5.3501,-5.3501,-5.3501,-5.3501,-5.3501,-5.3501,-5.3501,-5.3501,-5.3501,-5.3501,-5.3501,-5.3501,-5.3501,-5.3501,-5.3501,-5.3501,-5.3501,-5.3501,-5.3501,-5.3501,-5.3501,-5.3501,-5.3501,-5.3501,-5.3501,-5.3501,-5.3501,-5.3501,-5.3501,-5.3501,-5.3501,-5.3501,-5.3501,-5.3501,-5.3501,-5.3501,-5.3501,-5.3501,-5.3501,-5.3501,-5.3501]},{"header":{"parameterUnit":"m.s-1","parameterCategory":1,"la1":30.6,"la2":29.2853,"lo1":-89.7004,"lo2":-87.6739,"dy":0.0162,"dx":0.0183,"nx":112,"ny":82,"refTime":"2024-05-25T12:00:00:Z","depth":0,"parameterNumber":3,"parameterNumberName":"V-component_of_WINDS"},"data":[0.0,0.0,0.0,0.0,0.0,0.0,0.0,0.0,0.0,0.0,0.0,0.0,0.0,0.0,0.0,0.0,0.0,0.0,0.0,0.0,0.0,0.0,0.0,0.0,0.0,0.0,0.0,0.0,0.0,0.0,0.0,0.0,0.0,0.0,0.0,0.0,0.0,0.0,0.0,0.0,0.0,0.0,0.0,0.0,0.0,0.0,0.0,0.0,0.0,0.0,0.0,0.0,0.0,0.0,0.0,0.0,0.0,0.0,0.0,0.0,0.0,0.0,0.0,0.0,0.0,0.0,0.0,0.0,0.0,0.0,0.0,0.0,0.0,0.0,0.0,0.0,0.0,0.0,0.0,0.0,0.0,0.0,0.0,0.0,0.0,0.0,0.0,0.0,0.0,0.0,-2.7505,-3.0771,-3.3357,-3.4806,-3.4806,-3.3759,-3.1725,-2.8561,0.0,0.0,0.0,0.0,0.0,0.0,0.0,0.0,0.0,0.0,0.0,0.0,0.0,0.0,0.0,0.0,0.0,0.0,0.0,0.0,0.0,0.0,0.0,0.0,0.0,0.0,0.0,0.0,0.0,0.0,0.0,0.0,0.0,0.0,0.0,0.0,0.0,0.0,0.0,0.0,0.0,0.0,0.0,0.0,0.0,0.0,0.0,0.0,0.0,0.0,0.0,0.0,0.0,0.0,0.0,0.0,0.0,0.0,0.0,0.0,0.0,0.0,0.0,0.0,0.0,0.0,0.0,0.0,0.0,0.0,0.0,0.0,0.0,0.0,0.0,0.0,0.0,0.0,0.0,0.0,0.0,0.0,0.0,0.0,0.0,0.0,0.0,0.0,0.0,0.0,0.0,0.0,0.0,0.0,0.0,0.0,0.0,0.0,0.0,0.0,0.0,0.0,0.0,0.0,-2.7218,-3.2805,-3.4568,-3.537,-3.537,-3.3985,-3.2064,-2.9679,0.0,0.0,0.0,0.0,0.0,0.0,0.0,0.0,0.0,0.0,0.0,0.0,0.0,0.0,0.0,0.0,0.0,0.0,0.0,0.0,0.0,0.0,0.0,0.0,0.0,0.0,0.0,0.0,0.0,0.0,0.0,0.0,0.0,0.0,0.0,0.0,0.0,0.0,0.0,0.0,0.0,0.0,0.0,0.0,0.0,0.0,0.0,0.0,0.0,0.0,0.0,0.0,0.0,0.0,0.0,0.0,0.0,0.0,0.0,0.0,0.0,0.0,0.0,0.0,0.0,0.0,0.0,0.0,0.0,0.0,0.0,0.0,0.0,0.0,0.0,0.0,0.0,0.0,0.0,0.0,0.0,0.0,0.0,0.0,0.0,0.0,0.0,0.0,0.0,0.0,0.0,0.0,0.0,0.0,0.0,0.0,0.0,0.0,0.0,0.0,0.0,0.0,0.0,-2.7394,-2.9917,-3.3922,-3.5328,-3.5868,-3.552,-3.4299,-3.2328,-2.9503,-2.6979,0.0,0.0,0.0,0.0,0.0,0.0,0.0,0.0,0.0,0.0,0.0,0.0,0.0,0.0,0.0,0.0,0.0,0.0,0.0,0.0,0.0,0.0,0.0,0.0,0.0,0.0,0.0,0.0,0.0,0.0,0.0,0.0,0.0,0.0,0.0,0.0,0.0,0.0,0.0,0.0,0.0,0.0,0.0,0.0,0.0,0.0,0.0,0.0,0.0,0.0,0.0,0.0,0.0,0.0,0.0,0.0,0.0,0.0,0.0,0.0,0.0,0.0,0.0,0.0,0.0,0.0,0.0,0.0,0.0,0.0,0.0,0.0,0.0,0.0,0.0,0.0,0.0,0.0,0.0,0.0,0.0,0.0,0.0,0.0,0.0,0.0,0.0,0.0,0.0,0.0,0.0,0.0,0.0,0.0,0.0,0.0,0.0,0.0,0.0,0.0,0.0,0.0,-3.0796,-3.2591,-3.4655,-3.578,-3.6194,-3.5768,-3.4248,-3.2114,-2.9276,-2.654,0.0,0.0,0.0,0.0,0.0,0.0,0.0,0.0,0.0,0.0,0.0,0.0,0.0,0.0,0.0,0.0,0.0,0.0,0.0,0.0,0.0,0.0,0.0,0.0,0.0,0.0,0.0,0.0,0.0,0.0,0.0,0.0,0.0,0.0,0.0,0.0,0.0,0.0,0.0,0.0,0.0,0.0,0.0,0.0,0.0,0.0,0.0,0.0,0.0,0.0,0.0,0.0,0.0,0.0,0.0,0.0,0.0,0.0,0.0,0.0,0.0,0.0,0.0,0.0,0.0,0.0,0.0,0.0,0.0,0.0,0.0,0.0,0.0,0.0,0.0,0.0,0.0,0.0,0.0,0.0,0.0,0.0,0.0,0.0,0.0,0.0,0.0,0.0,0.0,0.0,0.0,0.0,0.0,0.0,0.0,0.0,0.0,0.0,0.0,0.0,0.0,0.0,-3.0997,-3.3608,-3.5257,-3.6006,-3.6392,-3.6355,-3.3395,-3.1047,-2.9804,-2.5653,0.0,0.0,0.0,0.0,0.0,0.0,0.0,0.0,0.0,0.0,0.0,0.0,0.0,0.0,0.0,0.0,0.0,0.0,0.0,0.0,0.0,0.0,0.0,0.0,0.0,0.0,0.0,0.0,0.0,0.0,0.0,0.0,0.0,0.0,0.0,0.0,0.0,0.0,0.0,0.0,0.0,0.0,0.0,0.0,0.0,0.0,0.0,0.0,0.0,0.0,0.0,0.0,0.0,0.0,0.0,0.0,0.0,0.0,0.0,0.0,0.0,0.0,0.0,0.0,0.0,0.0,0.0,0.0,0.0,0.0,0.0,0.0,0.0,0.0,0.0,0.0,0.0,0.0,0.0,0.0,0.0,0.0,0.0,0.0,0.0,0.0,0.0,0.0,0.0,0.0,0.0,0.0,0.0,0.0,0.0,0.0,0.0,0.0,0.0,0.0,0.0,0.0,-3.0909,-3.3307,0.0,-3.6031,-3.6267,-3.5881,-3.4073,-3.1888,-2.9415,0.0,0.0,0.0,0.0,0.0,0.0,0.0,0.0,0.0,0.0,0.0,0.0,0.0,0.0,0.0,0.0,0.0,0.0,0.0,0.0,0.0,0.0,0.0,0.0,0.0,0.0,0.0,0.0,0.0,0.0,0.0,0.0,0.0,0.0,0.0,0.0,0.0,0.0,0.0,0.0,0.0,0.0,0.0,0.0,0.0,0.0,0.0,0.0,0.0,0.0,0.0,0.0,0.0,0.0,0.0,0.0,0.0,0.0,0.0,0.0,0.0,0.0,0.0,0.0,0.0,0.0,0.0,0.0,0.0,0.0,0.0,0.0,0.0,0.0,0.0,0.0,0.0,0.0,0.0,0.0,0.0,0.0,0.0,0.0,0.0,0.0,0.0,0.0,0.0,0.0,0.0,0.0,0.0,0.0,0.0,0.0,0.0,0.0,0.0,0.0,0.0,0.0,-2.8649,-3.1286,-3.3533,0.0,-3.6132,-3.6144,-3.5545,-3.4048,-3.1838,-2.8813,0.0,0.0,0.0,0.0,0.0,0.0,0.0,0.0,0.0,0.0,0.0,0.0,0.0,0.0,0.0,0.0,0.0,0.0,0.0,0.0,0.0,0.0,0.0,0.0,0.0,0.0,0.0,0.0,0.0,0.0,0.0,0.0,0.0,0.0,0.0,0.0,0.0,0.0,0.0,0.0,0.0,0.0,0.0,0.0,0.0,0.0,0.0,0.0,0.0,0.0,0.0,0.0,0.0,0.0,0.0,0.0,0.0,0.0,0.0,0.0,0.0,0.0,0.0,0.0,0.0,0.0,0.0,0.0,0.0,0.0,0.0,0.0,0.0,0.0,0.0,0.0,0.0,0.0,0.0,0.0,0.0,0.0,0.0,0.0,0.0,0.0,0.0,0.0,0.0,0.0,0.0,0.0,0.0,0.0,0.0,0.0,0.0,0.0,0.0,0.0,0.0,0.0,-2.9302,-3.2202,-3.4537,-3.6229,-3.6405,-3.6132,-3.5533,-3.3006,-3.047,0.0,0.0,0.0,0.0,0.0,0.0,0.0,0.0,0.0,0.0,0.0,0.0,0.0,0.0,0.0,0.0,0.0,0.0,0.0,0.0,0.0,0.0,0.0,0.0,0.0,0.0,0.0,0.0,0.0,0.0,0.0,0.0,0.0,0.0,0.0,0.0,0.0,0.0,0.0,0.0,0.0,0.0,0.0,0.0,0.0,0.0,0.0,0.0,0.0,0.0,0.0,0.0,0.0,0.0,0.0,0.0,0.0,0.0,0.0,0.0,0.0,0.0,0.0,0.0,0.0,0.0,0.0,0.0,0.0,0.0,0.0,0.0,0.0,0.0,0.0,0.0,0.0,0.0,0.0,0.0,0.0,0.0,0.0,0.0,0.0,0.0,0.0,0.0,0.0,0.0,0.0,0.0,0.0,0.0,0.0,0.0,0.0,0.0,0.0,0.0,0.0,0.0,0.0,-2.9352,-3.2541,-3.4964,-3.6267,-3.6405,-3.5981,-3.5006,-3.3495,-3.1135,-2.7745,0.0,0.0,0.0,0.0,0.0,0.0,0.0,0.0,0.0,0.0,0.0,0.0,0.0,0.0,0.0,0.0,0.0,0.0,0.0,0.0,0.0,0.0,0.0,0.0,0.0,0.0,0.0,0.0,0.0,0.0,0.0,0.0,0.0,0.0,0.0,0.0,0.0,0.0,0.0,0.0,0.0,0.0,0.0,0.0,0.0,0.0,0.0,0.0,0.0,0.0,0.0,0.0,0.0,0.0,0.0,0.0,0.0,0.0,0.0,0.0,0.0,0.0,0.0,0.0,0.0,0.0,0.0,0.0,0.0,0.0,0.0,0.0,0.0,0.0,0.0,0.0,0.0,0.0,0.0,0.0,0.0,0.0,0.0,0.0,0.0,0.0,0.0,0.0,0.0,0.0,0.0,0.0,0.0,0.0,0.0,0.0,0.0,0.0,0.0,0.0,0.0,0.0,-2.9365,-3.2679,-3.514,-3.6292,-3.6405,-3.5965,-3.4813,-3.3709,-3.1512,-2.7846,0.0,0.0,0.0,0.0,0.0,0.0,0.0,0.0,0.0,0.0,0.0,0.0,0.0,0.0,0.0,0.0,0.0,0.0,0.0,0.0,0.0,0.0,0.0,0.0,0.0,0.0,0.0,0.0,0.0,0.0,0.0,0.0,0.0,0.0,0.0,0.0,0.0,0.0,0.0,0.0,0.0,0.0,0.0,0.0,0.0,0.0,0.0,0.0,0.0,0.0,0.0,0.0,0.0,0.0,0.0,0.0,0.0,0.0,0.0,0.0,0.0,0.0,0.0,0.0,0.0,0.0,0.0,0.0,0.0,0.0,0.0,0.0,0.0,0.0,0.0,0.0,0.0,0.0,0.0,0.0,0.0,0.0,0.0,0.0,0.0,0.0,0.0,0.0,0.0,0.0,0.0,0.0,0.0,0.0,0.0,0.0,0.0,0.0,0.0,0.0,0.0,0.0,-2.944,-3.2704,-3.514,-3.6292,-3.6405,-3.5943,-3.4889,-3.3784,-3.175,-2.8473,0.0,0.0,0.0,0.0,0.0,0.0,0.0,0.0,0.0,0.0,0.0,0.0,0.0,0.0,0.0,0.0,0.0,0.0,0.0,0.0,0.0,0.0,0.0,0.0,0.0,0.0,0.0,0.0,0.0,0.0,0.0,0.0,0.0,0.0,0.0,0.0,0.0,0.0,0.0,0.0,0.0,0.0,0.0,0.0,0.0,0.0,0.0,0.0,0.0,0.0,0.0,0.0,0.0,0.0,0.0,0.0,0.0,0.0,0.0,0.0,-2.386,0.0,0.0,0.0,0.0,0.0,0.0,0.0,0.0,0.0,0.0,0.0,0.0,0.0,0.0,0.0,0.0,0.0,0.0,0.0,0.0,0.0,0.0,0.0,0.0,0.0,0.0,0.0,0.0,0.0,0.0,0.0,0.0,0.0,0.0,0.0,0.0,0.0,0.0,0.0,0.0,0.0,-3.0005,-3.2943,-3.514,-3.6292,-3.6405,-3.6094,-3.5382,-3.4361,-3.2491,-2.9616,-2.6691,0.0,0.0,0.0,0.0,0.0,0.0,0.0,0.0,0.0,0.0,0.0,0.0,0.0,0.0,0.0,0.0,0.0,0.0,0.0,0.0,0.0,0.0,0.0,0.0,0.0,0.0,0.0,0.0,0.0,0.0,0.0,0.0,0.0,0.0,0.0,0.0,0.0,0.0,0.0,0.0,0.0,0.0,0.0,0.0,0.0,0.0,0.0,0.0,0.0,0.0,0.0,0.0,0.0,0.0,0.0,0.0,0.0,0.0,0.0,0.0,-2.6,0.0,0.0,0.0,0.0,0.0,0.0,0.0,0.0,0.0,0.0,0.0,0.0,0.0,0.0,0.0,0.0,0.0,0.0,0.0,0.0,0.0,0.0,0.0,0.0,0.0,0.0,0.0,0.0,0.0,0.0,0.0,0.0,0.0,0.0,0.0,0.0,0.0,0.0,0.0,0.0,-3.0181,-3.3018,-3.514,-3.6292,-3.6405,-3.6144,-3.5545,-3.4537,-3.3056,-3.1085,-2.8097,0.0,0.0,0.0,0.0,0.0,0.0,0.0,0.0,0.0,0.0,0.0,0.0,0.0,0.0,0.0,0.0,0.0,0.0,0.0,0.0,0.0,0.0,0.0,0.0,0.0,0.0,0.0,0.0,0.0,0.0,0.0,0.0,0.0,0.0,0.0,0.0,0.0,0.0,0.0,0.0,0.0,0.0,0.0,0.0,0.0,0.0,0.0,0.0,0.0,0.0,0.0,0.0,0.0,-3.1035,-3.1788,-3.2127,-3.2679,-3.3257,-3.3677,-3.0884,-2.9942,-3.0193,-2.8096,0.0,0.0,0.0,0.0,0.0,0.0,0.0,0.0,0.0,0.0,0.0,0.0,0.0,0.0,0.0,0.0,0.0,0.0,0.0,0.0,0.0,0.0,-3.0129,-3.111,-3.1725,-3.121,-2.7896,0.0,0.0,0.0,0.0,0.0,0.0,0.0,0.0,0.0,0.0,0.0,-3.0482,-3.3219,-3.5253,-3.6304,-3.6405,-3.6182,-3.5683,-3.4675,-3.3608,-3.2579,-2.9503,-2.7256,0.0,0.0,0.0,0.0,0.0,0.0,0.0,0.0,0.0,0.0,0.0,0.0,0.0,0.0,0.0,0.0,0.0,0.0,0.0,0.0,0.0,0.0,0.0,0.0,0.0,0.0,0.0,0.0,0.0,0.0,0.0,0.0,-2.1584,-2.2913,0.0,0.0,0.0,0.0,0.0,0.0,0.0,0.0,0.0,0.0,0.0,0.0,0.0,-2.9176,-3.0608,-3.2303,-3.3169,-3.3257,-3.4896,-3.5391,-3.4969,-3.5567,-3.6166,-3.6621,-3.6169,0.0,-3.2516,-3.0783,0.0,0.0,0.0,0.0,0.0,0.0,0.0,0.0,0.0,0.0,0.0,0.0,0.0,0.0,0.0,0.0,0.0,0.0,0.0,0.0,0.0,0.0,-3.3953,-3.4104,-3.4555,-3.468,-3.369,-3.0118,-2.6691,-2.541,-2.5063,-2.4596,0.0,0.0,0.0,0.0,0.0,0.0,-3.17,-3.3966,-3.5667,-3.6342,-3.6405,-3.638,-3.6304,-3.524,-3.4349,-3.3709,-3.1022,-2.9164,-2.8474,-2.546,0.0,0.0,0.0,0.0,0.0,0.0,0.0,0.0,0.0,0.0,0.0,0.0,0.0,0.0,0.0,0.0,0.0,0.0,0.0,0.0,0.0,0.0,0.0,0.0,0.0,0.0,0.0,0.0,0.0,-2.1167,-2.3316,-2.4254,-2.5233,-2.554,0.0,0.0,0.0,0.0,0.0,0.0,0.0,0.0,0.0,-3.1732,-3.2019,-3.2637,-3.3665,-3.5064,-3.5742,-3.5755,-3.7172,-3.7651,-3.7437,-3.799,-3.8366,-3.8592,-3.8592,-3.7739,-3.6182,-3.4198,-3.2173,-3.0306,0.0,0.0,0.0,0.0,-2.9872,-2.9945,-3.1647,-3.1729,-3.0947,-3.0005,0.0,0.0,0.0,0.0,0.0,0.0,0.0,-3.0583,-3.1788,-3.3633,-3.5295,-3.5956,-3.6521,-3.6784,-3.6219,-3.4148,-3.1921,-3.0217,-2.9526,-2.8832,-2.7638,-2.7091,0.0,0.0,0.0,-3.0804,-3.2487,-3.4361,-3.5708,-3.6355,-3.6405,-3.6405,-3.6405,-3.5353,-3.4613,-3.4374,-3.234,-3.0771,-2.9878,-2.7847,-2.5778,0.0,0.0,0.0,0.0,0.0,0.0,0.0,0.0,0.0,0.0,0.0,0.0,0.0,0.0,0.0,0.0,0.0,0.0,0.0,0.0,0.0,0.0,0.0,0.0,0.0,0.0,0.0,0.0,-2.3504,-2.5131,-2.6147,-2.7654,-2.8128,0.0,0.0,0.0,0.0,0.0,0.0,-3.2516,-3.3698,-3.4419,-3.4512,-3.506,-3.5692,-3.6335,-3.7211,-3.7688,-3.7839,-3.868,-3.9082,-3.9094,-3.9509,-3.9697,-3.9697,-3.9697,-3.9459,-3.8919,-3.6822,-3.4901,-3.3206,-3.2516,-3.175,-3.1251,-3.2836,-3.3258,-3.3319,-3.5433,-3.562,-3.4731,-3.3796,-3.2754,-3.1574,-2.9905,0.0,0.0,0.0,0.0,-3.2805,-3.4336,-3.5454,-3.6373,-3.7387,-3.8027,-3.8291,-3.7739,-3.7335,-3.6464,-3.4438,-3.3739,-3.3176,-3.2252,-3.1378,0.0,0.0,0.0,-3.2593,-3.3386,-3.4813,-3.5906,-3.6367,-3.6405,-3.6355,-3.6157,-3.5278,-3.4618,-3.4512,-3.3068,-3.1788,-3.0859,-2.9741,-2.7984,-2.5498,0.0,0.0,0.0,0.0,0.0,0.0,0.0,0.0,0.0,0.0,0.0,0.0,0.0,0.0,0.0,0.0,0.0,0.0,0.0,0.0,0.0,0.0,0.0,0.0,0.0,0.0,0.0,0.0,0.0,-3.0001,-3.0868,0.0,0.0,0.0,0.0,-3.311,-3.4804,-3.6173,-3.711,-3.7248,-3.7391,-3.7566,-3.7231,-3.7588,-3.8743,-3.8806,-3.9044,-3.9572,-3.9622,-3.9647,-3.9647,-3.9685,-3.9697,-3.9697,-3.9697,-3.9672,-3.9521,-3.7814,-3.6722,-3.6091,-3.4977,-3.4525,-3.4627,-3.6248,-3.6225,-3.5604,-3.726,-3.681,-3.5608,-3.6621,-3.6194,-3.5232,-3.5119,-3.4367,0.0,0.0,-3.4818,-3.5545,-3.6722,-3.745,-3.804,-3.8642,-3.9207,-3.9459,-3.8957,-3.8806,-3.8282,-3.6656,-3.6616,-3.6795,-3.6681,0.0,-3.6372,-3.5138,-3.5197,-3.5178,-3.4684,-3.5617,-3.638,-3.6405,-3.6405,-3.6157,-3.5583,-3.5006,-3.45,-3.3972,-3.2855,-3.1951,-3.1373,-3.0319,-2.8925,-2.7228,-2.5021,0.0,0.0,0.0,0.0,0.0,0.0,0.0,0.0,0.0,0.0,0.0,0.0,0.0,0.0,0.0,0.0,0.0,0.0,0.0,0.0,0.0,0.0,0.0,0.0,0.0,0.0,0.0,0.0,-3.2243,-3.4143,0.0,-3.3829,-3.507,-3.6327,-3.724,-3.8644,-3.931,-3.8922,-3.9664,-3.9594,-3.8551,-3.8692,-3.8994,-3.9396,-3.9747,-4.0036,-4.0224,-4.0576,-4.0752,-4.0752,-4.0752,-4.0752,-4.0752,-4.0752,-4.0551,-4.0174,-3.9572,-3.8793,-3.7989,-3.755,-3.7161,-3.6945,-3.7873,-3.8005,-3.7813,-3.8786,-3.8474,-3.7626,-3.7299,-3.6923,-3.6533,-3.6182,-3.6044,-3.6056,-3.6257,-3.6709,-3.7299,-3.8078,-3.8466,-3.8705,-3.927,-3.9546,-3.9634,-3.9446,-3.9396,-3.9611,-4.0231,-3.9854,-3.9522,-3.9771,-3.9883,-3.8958,-3.6242,-3.6552,-3.6631,-3.5393,-3.5906,-3.6405,-3.6405,-3.6405,-3.6144,-3.5545,-3.4994,-3.4336,-3.3432,-3.2641,-3.1813,-3.0922,-3.052,-2.9704,-2.8373,-2.6879,-2.4833,0.0,0.0,0.0,0.0,0.0,0.0,0.0,0.0,0.0,0.0,0.0,0.0,0.0,0.0,0.0,0.0,0.0,0.0,0.0,0.0,0.0,0.0,0.0,0.0,0.0,0.0,-3.3021,-3.4337,-3.6626,-3.7749,-3.6911,-3.8392,-3.9768,-4.0629,-4.1576,-4.1664,-4.0683,-4.1232,-4.0808,-3.9234,-3.9685,-3.9973,-3.9973,-4.0513,-4.0802,-4.0802,-4.1112,-4.1288,-4.1288,-4.1288,-4.1288,-4.1288,-4.1288,-4.1075,-4.0802,-4.0802,-4.0249,-3.9408,-3.922,-3.8919,-3.8617,-3.9007,-3.9145,-3.9195,-3.9572,-3.9459,-3.9032,-3.8278,-3.8027,-3.7965,-3.7637,-3.7739,-3.8027,-3.8027,-3.8291,-3.8668,-3.9044,-3.9145,-3.9245,-3.9609,-3.9697,-3.9697,-3.9697,-3.9697,-4.0299,-4.2412,-4.2035,-4.1599,-4.257,-4.2701,-4.1696,-3.8742,-3.8616,-3.8269,-3.6618,-3.64,-3.6405,-3.6405,-3.6405,-3.6056,-3.5282,-3.4718,-3.3972,-3.2855,-3.2252,-3.1537,-3.0658,-3.0432,-2.9892,-2.8913,-2.7469,-2.5724,-2.3672,0.0,0.0,0.0,0.0,0.0,0.0,0.0,0.0,0.0,0.0,0.0,0.0,0.0,0.0,0.0,0.0,0.0,0.0,0.0,0.0,0.0,0.0,0.0,-3.0597,-3.2916,-3.5117,-3.6417,-3.8332,-3.9508,-3.9508,-4.0689,-4.1989,-4.325,-4.335,-4.3099,-4.2499,-4.1909,-4.1032,-3.9761,-4.0237,-4.0526,-4.0538,-4.1037,-4.1313,-4.1313,-4.1326,-4.1338,-4.1338,-4.1338,-4.1338,-4.1338,-4.1338,-4.1326,-4.1313,-4.1313,-4.0987,-4.0488,-3.9936,-3.971,-3.9697,-3.9697,-3.9697,-3.9697,-3.9697,-3.9697,-3.9697,-3.9697,-3.9697,-3.9697,-3.9697,-3.9697,-3.9697,-3.9697,-3.9697,-3.9697,-3.9697,-3.9697,-3.9697,-3.9697,-3.9697,-3.9697,-3.9697,-3.9697,-4.0453,-4.3026,-4.2987,-4.3115,-4.4991,-4.5278,-4.465,-4.2837,-4.1518,0.0,-3.8291,-3.707,-3.6405,-3.6405,-3.6405,-3.5965,-3.4813,-3.4223,-3.3407,-3.2252,-3.1675,-3.1135,-3.0608,-3.008,-2.9528,-2.8925,-2.6779,-2.5385,-2.4838,0.0,0.0,0.0,0.0,0.0,0.0,0.0,0.0,0.0,0.0,0.0,0.0,0.0,0.0,0.0,0.0,0.0,0.0,0.0,0.0,0.0,0.0,-3.2677,-3.2677,-3.5355,-3.7629,-3.8512,-4.0733,-4.2213,-4.2213,-4.2611,-4.3179,-4.4022,-4.3253,-4.2466,-4.19,-4.1709,-4.1164,-4.0327,-4.0438,-4.0714,-4.1062,-4.1656,-4.1932,-4.1932,-4.2333,-4.2522,-4.2522,-4.2522,-4.2522,-4.2522,-4.2522,-4.2296,-4.1932,-4.1932,-4.1605,-4.1012,-4.0513,-4.0049,-3.9697,-3.9697,-3.9697,-3.9697,-3.9697,-3.9697,-3.9697,-3.9697,-3.9697,-3.9697,-3.9697,-3.9697,-3.9697,-3.9697,-3.9697,-3.9697,-3.9697,-3.9697,-3.9697,-3.9697,-3.9697,-3.9697,-3.9697,-3.9697,-4.0453,-4.3026,-4.3365,-4.3807,-4.5687,-4.5254,-4.4021,-4.2217,-4.0504,0.0,-3.7603,-3.6833,-3.6405,-3.6405,-3.6405,-3.5965,-3.4813,-3.4223,-3.3244,-3.1712,-3.1122,-3.0583,-3.0043,-2.988,-2.9716,-2.9566,-2.7758,-2.6553,0.0,0.0,0.0,0.0,0.0,0.0,0.0,0.0,0.0,0.0,0.0,0.0,0.0,0.0,0.0,0.0,0.0,0.0,0.0,0.0,0.0,0.0,-3.3425,-3.5325,-3.5893,-3.7853,-3.9679,-4.0883,-4.2139,-4.3125,-4.3725,-4.3314,-4.3319,-4.3955,-4.2838,-4.1952,-4.1627,-4.1304,-4.0952,-4.0501,-4.0965,-4.1354,-4.1681,-4.2221,-4.2552,-4.2552,-4.2879,-4.2974,-4.2974,-4.2974,-4.2974,-4.2974,-4.2974,-4.2798,-4.2552,-4.2552,-4.2183,-4.1605,0.0,0.0,0.0,0.0,-3.9697,-3.9697,-3.9697,-3.9697,-3.9697,-3.9697,-3.9697,-3.9697,-3.9697,-3.9697,-3.9697,-3.9697,-3.9697,-3.9697,-3.9697,-3.9697,-3.9697,-3.9697,-3.9697,-3.9697,-3.9697,-3.9697,-4.0313,-4.2315,-4.2689,0.0,-4.4868,-4.4945,-4.4357,-4.3043,-4.0811,-3.8974,-3.8011,-3.7017,-3.6405,-3.6405,-3.6405,-3.6006,-3.5094,-3.4349,0.0,0.0,0.0,-3.0256,-2.9465,-2.9428,0.0,0.0,0.0,0.0,0.0,0.0,0.0,0.0,-2.702,-2.7209,0.0,0.0,0.0,0.0,0.0,0.0,0.0,0.0,0.0,0.0,0.0,0.0,0.0,0.0,0.0,0.0,-3.5968,-3.8138,-3.9544,-4.0322,-4.1384,-4.308,-4.2894,-4.3099,-4.4293,-4.3184,-4.2642,-4.3224,-4.2119,-4.1395,-4.1448,0.0,0.0,0.0,0.0,-4.2238,-4.2301,-4.2791,-4.2974,-4.2974,-4.2974,-4.2974,-4.2974,-4.2974,-4.2974,-4.2974,-4.2974,-4.2974,-4.2974,-4.2974,-4.2703,-4.2099,-4.0953,-4.0513,-4.045,-3.9898,-3.9697,-3.9697,-3.9697,0.0,0.0,-3.9697,-3.9697,-3.9697,-3.9697,-3.9697,-3.9697,-3.9697,-3.9697,-3.9697,-3.9697,-3.9697,-3.9697,-3.9697,-3.9697,-3.9697,-3.9697,-3.9697,-4.007,-4.1369,-4.1604,-4.1985,-4.3266,-4.4303,-4.4778,-4.4177,-4.1554,-3.9462,-3.8869,-3.7407,-3.6405,-3.6405,-3.6405,0.0,-3.5545,-3.4587,-3.3508,-3.2378,-3.1298,-3.0256,-2.9214,-2.9164,-2.9164,-2.9164,-2.9716,-3.0218,-3.0708,-3.1173,-3.1468,-3.1501,-2.889,-2.8762,0.0,0.0,0.0,0.0,0.0,0.0,0.0,0.0,0.0,0.0,0.0,0.0,0.0,0.0,0.0,-3.5534,-3.7659,-3.9679,-4.1572,-4.2357,-4.2871,-4.3245,-4.3697,-4.4135,-4.4379,-4.2799,-4.1817,-4.1972,-4.0794,-4.0273,-4.0665,-4.0555,-4.0927,-4.1861,-4.2099,-4.2426,-4.2811,-4.2924,-4.2974,-4.2974,0.0,0.0,-4.2974,-4.2974,-4.2974,-4.2974,-4.2974,-4.2974,-4.2974,-4.2974,-4.2703,-4.2099,-4.0953,-4.0513,-4.045,-3.9898,-3.9697,-3.9697,-3.9697,-3.9697,-3.9697,-3.9697,-3.9697,-3.9697,-3.9697,-3.9697,0.0,-3.9697,-3.9697,-3.9697,-3.9697,-3.9697,-3.9697,-3.9697,-3.9697,-3.9697,-3.9697,-3.9697,-4.007,-4.1369,-4.1604,-4.1985,-4.3266,-4.2834,-4.2274,-4.2167,-4.0015,-3.8333,-3.8182,-3.7165,-3.6405,-3.6405,-3.6405,-3.6144,-3.5545,-3.4893,-3.4085,-3.298,-3.1863,-3.1148,-3.0922,-3.0922,-3.0922,-3.0922,-3.1022,-3.1135,-3.1248,-3.1336,-3.1807,-3.2502,-3.1175,-3.1203,0.0,0.0,0.0,0.0,0.0,0.0,0.0,0.0,0.0,0.0,0.0,-2.9445,0.0,0.0,-3.5639,-3.7629,-3.9334,-4.0965,-4.2626,-4.312,-4.3338,-4.3338,-4.3398,-4.3332,-4.302,-4.1567,-4.0642,-4.0642,-4.0083,-3.9936,-4.0488,-4.0724,-4.1304,-4.2187,-4.2476,-4.2753,-4.2974,-4.2974,-4.2974,-4.2974,-4.2974,-4.2974,-4.2974,-4.2974,-4.2974,-4.2974,-4.2974,-4.2974,-4.2974,-4.2974,-4.2811,-4.2539,-4.1656,-4.1178,-4.0865,-4.0312,-4.0111,-4.0061,-3.9785,-3.9697,-3.9697,-3.9697,-3.9697,-3.9697,-3.9697,-3.9697,-3.9697,-3.9697,-3.9697,-3.9697,-3.9697,-3.9697,-3.9697,-3.9697,-3.9697,-3.9697,-3.9697,-3.9697,-3.989,-4.0554,-4.0642,-4.0844,-4.1505,-4.1082,-4.0882,-4.1505,-3.9822,-3.8329,-3.804,-3.7287,-3.6719,-3.6443,-3.6405,-3.6304,-3.5981,-3.5203,-3.4374,-3.3533,-3.2428,-3.18,-3.18,-3.1537,-3.1386,-3.1386,-3.1662,-3.18,-3.18,-3.2089,-3.2507,-3.2937,-3.2465,-3.2631,0.0,0.0,0.0,0.0,0.0,0.0,0.0,0.0,-2.6641,-2.9217,-3.0672,-3.2048,-3.3903,-3.5789,-3.7659,-3.9499,-4.0599,-4.1689,-4.2941,-4.3108,-4.3021,-4.2869,-4.2523,-4.2127,-4.165,-4.0453,-3.9697,-3.9697,-3.9798,-4.0099,-4.0651,-4.1204,-4.1756,-4.2351,-4.2748,-4.2974,-4.2974,-4.2974,-4.2974,-4.2974,-4.2974,-4.2974,-4.2974,-4.2974,-4.2974,-4.2974,-4.2974,-4.2974,-4.2974,-4.2974,-4.2974,-4.2936,-4.2539,-4.2045,-4.158,-4.0915,-4.0614,-4.045,-4.0011,-3.9785,-3.9697,-3.9697,-3.9697,-3.9697,-3.9697,-3.9697,-3.9697,-3.9697,-3.9697,-3.9697,-3.9697,-3.9697,-3.9697,-3.9697,-3.9697,-3.9697,-3.9697,-3.9697,-3.9697,-3.9697,-3.9697,-3.9697,-3.9697,-3.9697,-4.0032,-4.1082,-3.9878,-3.8693,-3.8228,-3.76,-3.701,-3.6619,-3.6468,-3.6405,-3.6405,-3.5454,-3.4688,-3.4248,-3.3257,-3.2704,-3.2704,-3.2265,-3.1989,-3.1888,-3.2315,-3.2491,-3.239,-3.2855,-3.3131,-3.3275,-3.3275,-3.3437,-2.0578,-2.1536,-2.3272,-2.5674,-2.5854,-2.6677,0.0,0.0,-3.0705,-3.3303,-3.4427,-3.537,-3.6716,-3.8138,-3.9544,-4.0935,-4.0886,-4.1119,-4.2334,-4.2157,-4.1672,-4.0994,-4.1387,-4.1673,-4.1591,-4.0453,-3.9697,-3.9697,-4.0149,-4.0664,-4.1163,-4.1769,-4.2376,-4.2873,-4.2949,-4.2974,-4.2974,-4.2974,-4.2974,-4.2974,-4.2974,-4.2974,-4.2974,-4.2974,-4.2974,-4.2974,-4.2974,-4.2974,-4.2974,-4.2974,-4.2974,-4.2974,-4.2911,-4.2848,-4.2672,-4.163,-4.0887,-4.0513,-4.0438,-4.0111,-3.9697,-3.9697,-3.9697,-3.9697,-3.9697,-3.9697,-3.9697,-3.9697,-3.9697,-3.9697,-3.9697,-3.9697,-3.9697,-3.9697,-3.9697,-3.9697,-3.9697,-3.9697,-3.9697,-3.9697,-3.9697,-3.9697,-3.9697,-3.9697,-3.9736,-3.989,-3.9322,-3.8894,-3.8831,-3.7839,-3.7161,-3.7098,-3.6707,-3.6405,-3.6405,-3.5805,-3.5382,-3.532,-3.4743,-3.4437,-3.4437,-3.4387,-3.4123,-3.3633,-3.3684,-3.347,-3.298,-3.3086,-3.3332,-3.3809,-3.3809,-3.3815,-2.3974,-2.4784,0.0,0.0,-2.9123,-3.0283,-3.3389,-3.3465,-3.3504,-3.5741,-3.6716,-3.7464,-3.8407,-3.9664,-4.0876,0.0,-4.1778,-4.1964,-4.2855,-4.1605,-4.0642,-4.0716,-4.0296,-4.0144,-4.0478,-4.0032,-3.9697,-3.9697,-4.0212,-4.0752,-4.125,-4.1856,-4.2464,-4.2961,-4.2974,-4.2974,-4.2974,-4.2974,-4.2974,-4.2974,-4.2974,-4.2974,-4.2974,-4.2974,-4.2974,-4.2974,-4.2974,-4.2974,-4.2974,-4.2974,-4.2974,-4.2974,-4.2974,-4.2974,-4.2886,-4.2095,-4.1668,-4.1379,-4.0739,-4.0362,-4.0124,-3.9798,-3.9697,-3.9697,-3.9697,-3.9697,-3.9697,-3.9697,-3.9697,-3.9697,-3.9697,-3.9697,-3.9697,-3.9697,-3.9697,-3.9697,-3.9697,-3.9697,-3.9697,-3.9697,-3.9697,-3.9697,-3.9697,-3.9697,-3.9697,-3.9697,-3.9496,-3.9233,-3.8957,-3.8454,-3.7964,-3.7249,-3.6732,-3.6405,-3.6405,-3.6157,-3.6019,-3.6019,-3.5504,-3.5157,-3.5157,-3.4856,-3.4568,-3.4387,-3.4374,-3.4261,-3.4035,-3.4035,-3.4161,-3.4374,-3.4374,-3.455,-2.5806,0.0,0.0,-2.9624,-3.1146,-3.2568,-3.3879,-3.4317,-3.4888,-3.6488,-3.7227,-3.7886,-3.901,-3.9923,-4.0803,-4.174,-4.1619,-4.1685,-4.2303,-4.0635,-3.9537,-4.0207,-3.9293,-3.8856,-3.9421,-3.9597,-3.9697,-3.9697,-4.0337,-4.0862,-4.1263,-4.2007,-4.2627,-4.2961,-4.2974,-4.2974,-4.2974,-4.3124,-4.3212,-4.3212,-4.3363,-4.3426,-4.3426,-4.3275,-4.3124,-4.2974,-4.2974,-4.2974,-4.2974,-4.2974,-4.2974,-4.2974,-4.2974,-4.2974,-4.2924,-4.2577,-4.2338,-4.2099,-4.1241,-4.0764,-4.045,-4.0049,-3.9823,-3.9697,-3.9697,-3.9697,-3.9697,-3.9697,-3.9697,-3.9697,-3.9697,-3.9697,-3.9697,-3.9697,-3.9697,-3.9697,-3.9697,-3.9697,-3.9697,-3.9697,-3.9697,-3.9697,-3.9697,-3.9697,-3.9697,-3.9697,-3.9697,-3.9546,-3.9145,-3.9007,-3.8442,-3.7299,-3.6822,-3.6568,-3.6417,-3.6405,-3.6405,-3.6405,-3.5994,-3.5768,-3.5768,-3.5391,-3.5102,-3.4906,-3.4906,-3.4831,-3.468,-3.468,-3.4756,-3.4906,-3.4906,-3.5207,0.0,0.0,-2.7987,-2.9225,-3.1018,-3.2638,-3.3275,-3.3882,-3.4517,-3.5228,-3.538,-3.6102,-3.839,-3.8488,-3.874,-4.0388,-3.9749,-3.9236,-3.9831,-3.8846,-3.8265,-3.8894,-3.8429,-3.8253,0.0,-3.9383,-3.9697,-3.9697,-4.0701,-4.1263,-4.1288,-4.2371,-4.2961,-4.2974,-4.2974,-4.2974,-4.2974,-4.3514,-4.3777,-4.3777,-4.4317,-4.4568,-4.4556,-4.4016,-4.3476,-4.2974,-4.2974,-4.2974,-4.2974,-4.2974,-4.2974,-4.2974,-4.2974,-4.2974,-4.2974,-4.2961,-4.2678,-4.22,-4.2175,-4.1404,-4.0513,-4.0501,-4.0124,-3.9697,-3.9697,-3.9697,-3.9697,-3.9697,-3.9697,-3.9697,-3.9697,-3.9697,-3.9697,-3.9697,-3.9697,-3.9697,-3.9697,-3.9697,-3.9697,-3.9697,-3.9697,-3.9697,-3.9697,-3.9697,-3.9697,-3.9697,-3.9697,-3.9685,-3.9672,-3.9195,-3.8442,-3.7299,-3.7174,-3.6996,-3.6455,-3.6405,-3.6405,-3.6405,-3.6392,-3.638,-3.638,-3.6367,-3.6056,-3.5483,-3.547,-3.5207,-3.468,-3.468,-3.4956,-3.547,-3.547,-3.5818,0.0,0.0,-2.9183,-3.0345,-3.1865,-3.3367,-3.4424,-3.4823,-3.503,-3.5314,-3.5394,-3.562,-3.6501,-3.6856,-3.7408,-3.8779,-3.8963,-3.9096,-3.9702,-3.9094,-3.8504,-3.8316,-3.8467,0.0,0.0,0.0,0.0,-3.9672,-4.0714,-4.1288,-4.1288,-4.2384,-4.2974,-4.2974,-4.2974,-4.2974,-4.2974,-4.3526,-4.3802,-4.3815,-4.4355,-4.4618,-4.4606,-4.4053,-4.3702,-4.3501,-4.3137,-4.2974,-4.2974,-4.2974,-4.2974,-4.2974,-4.2974,-4.2974,-4.2974,-4.2974,-4.2861,-4.2703,-4.2338,-4.1974,-4.148,-4.0752,-4.0388,-4.0174,-3.9798,-3.9697,-3.9697,-3.9697,-3.9697,-3.9697,-3.9697,-3.9697,-3.9697,-3.9697,-3.9697,-3.9697,-3.9697,-3.9697,-3.9697,-3.9697,-3.9697,-3.9697,-3.9697,-3.9697,-3.9697,-3.9697,-3.9697,-3.9697,-3.9697,-3.9207,-3.873,-3.8341,-3.7965,-3.75,-3.7008,-3.6958,-3.6795,-3.643,-3.6405,-3.6405,-3.6405,-3.6405,-3.6317,-3.6094,-3.6094,-3.5994,-3.5805,-3.5805,-3.5906,-3.6094,-3.6094,-3.6194,0.0,-2.8569,-2.9606,-3.0955,-3.212,-3.3193,-3.4006,-3.4166,-3.4206,-3.4259,-3.3964,-3.3905,-3.4535,-3.4641,-3.5197,-3.696,-3.7661,-3.8277,-3.9068,-3.9027,-3.8781,-3.8366,-3.8467,-3.8492,0.0,0.0,0.0,-3.9647,-4.0714,-4.1288,-4.1288,-4.2384,-4.2974,-4.2974,-4.2974,-4.2974,-4.2974,-4.3714,-4.4305,-4.4706,-4.5058,-4.5121,-4.492,-4.4568,-4.4179,-4.3777,-4.3426,-4.3162,-4.2974,-4.2974,-4.2974,-4.2974,-4.2974,-4.2974,-4.2974,-4.2974,-4.2974,-4.2924,-4.2627,-4.2376,-4.2099,-4.1342,-4.084,-4.045,-4.0099,-3.9848,-3.9697,-3.9697,-3.9697,-3.9697,-3.9697,-3.9697,-3.9697,-3.9697,-3.9697,-3.9697,-3.9697,-3.9697,-3.9697,-3.9697,-3.9697,-3.9697,-3.9697,-3.9697,-3.9697,-3.9697,-3.9697,-3.9697,-3.9697,-3.9383,-3.9094,-3.8944,-3.853,-3.809,-3.7525,-3.7299,-3.7036,-3.6719,-3.6518,-3.6405,-3.6405,-3.6405,-3.6405,-3.6405,-3.6405,-3.6405,-3.6405,-3.6405,-3.6405,-3.6405,-3.6405,-3.6405,-2.8536,-2.8976,-2.944,-3.1035,-3.1825,-3.2215,-3.2215,-3.2215,-3.219,-3.2102,-3.1286,-3.1001,0.0,0.0,-3.2234,-3.4874,-3.5904,-3.6795,-3.7852,-3.853,-3.8957,0.0,0.0,0.0,0.0,0.0,0.0,-3.9697,0.0,-4.1288,-4.1288,-4.2384,-4.2974,-4.2974,-4.2974,-4.2974,-4.2974,-4.4066,-4.5183,-4.6313,-4.6313,-4.6037,-4.5535,-4.5497,-4.4882,-4.384,-4.3815,-4.3489,-4.2974,-4.2974,-4.2974,-4.2974,-4.2974,-4.2974,-4.2974,-4.2974,-4.2974,-4.2974,-4.2974,-4.269,-4.225,-4.2213,-4.1455,-4.0588,-4.0538,-4.0149,-3.9735,-3.9697,-3.9697,-3.9697,-3.9697,-3.9697,-3.9697,-3.9697,-3.9697,-3.9697,-3.9697,-3.9697,-3.9697,-3.9697,-3.9697,-3.9697,-3.9697,-3.9697,-3.9697,-3.9697,-3.9697,-3.9697,-3.9697,-3.9697,-3.9496,-3.902,-3.8957,-3.868,-3.8103,-3.755,-3.7211,-3.7186,-3.6719,-3.6405,-3.6405,-3.6405,-3.6405,-3.6405,-3.6405,-3.6405,-3.6405,-3.6405,-3.6405,-3.6405,-3.6405,-3.6405,-2.934,-3.0156,-3.0959,-3.18,-3.2102,-3.2215,-3.2215,-3.2215,-3.1876,-3.0658,-3.0193,-2.9731,0.0,0.0,0.0,-3.2275,-3.4673,0.0,-3.7852,-3.8856,0.0,0.0,0.0,-3.9157,-3.8944,-3.9245,0.0,0.0,-4.094,-4.1288,-4.1288,-4.2384,-4.2974,-4.2974,-4.2974,-4.2974,-4.2974,-4.4066,-4.5183,-4.6313,-4.6313,-4.6238,-4.6087,-4.5673,-4.5095,-4.4392,-4.3978,-4.3489,-4.2974,-4.2974,-4.2974,-4.2974,-4.2974,-4.2974,-4.2974,-4.2974,-4.2974,-4.2974,-4.2974,-4.2886,-4.2753,-4.2338,-4.2024,-4.158,-4.0764,-4.0413,-4.0224,-3.981,-3.9697,-3.9697,-3.9697,-3.9697,-3.9697,-3.9697,-3.9697,-3.9697,-3.9697,-3.9697,-3.9697,-3.9697,-3.9697,-3.9697,-3.9697,-3.9697,-3.9697,-3.9697,-3.9697,-3.9697,-3.9697,-3.9697,-3.9634,-3.9496,-3.9484,-3.9258,-3.8693,-3.8128,-3.7626,-3.7211,-3.6719,-3.6405,-3.6405,-3.6405,-3.6405,-3.6405,-3.6405,-3.6405,-3.6405,-3.6405,-3.6405,-3.6405,-3.6405,-3.6405,-3.057,-3.1286,-3.1888,-3.2453,-3.2403,-3.2089,-3.1625,-3.1122,-3.0369,-2.8976,-2.8298,0.0,0.0,0.0,0.0,0.0,0.0,0.0,-3.7462,-3.8831,-3.9584,0.0,-3.9509,0.0,-3.927,-3.9735,-4.0187,0.0,-4.0974,-4.1388,-4.1681,-4.2509,-4.2974,-4.2974,-4.2974,-4.3212,-4.3689,-4.4568,-4.5434,-4.6313,-4.6313,-4.6313,-4.6301,-4.5987,-4.5535,-4.497,-4.4405,-4.3853,-4.3325,-4.3074,-4.2974,-4.2974,-4.2974,-4.2974,-4.2974,-4.2974,-4.2974,-4.2974,-4.2974,-4.2974,-4.2924,-4.2678,-4.2401,-4.2099,-4.1417,-4.0902,-4.045,-4.0136,-3.9885,-3.9697,-3.9697,-3.9697,-3.9697,-3.9697,-3.9697,-3.9697,-3.9697,-3.9697,-3.9697,-3.9697,-3.9697,-3.9697,-3.9697,-3.9697,-3.9697,-3.9697,-3.9697,-3.9697,-3.9697,-3.9697,-3.9697,-3.9697,-3.9697,-3.9572,-3.9258,-3.8705,-3.814,-3.7575,-3.7023,-3.6669,-3.6417,-3.6405,-3.6405,-3.6405,-3.6405,-3.6405,-3.6405,-3.6405,-3.6405,-3.6405,-3.6405,-3.6405,-3.1813,-3.2265,-3.2428,-3.2855,-3.2591,-3.1888,-3.0631,-2.954,-2.8461,-2.7218,0.0,0.0,-2.5984,0.0,-2.7996,-3.0156,0.0,-3.524,-3.7036,-3.8617,-3.9609,-3.9685,-3.9697,-3.9722,-3.9798,-4.0237,-4.0576,-4.0727,-4.1178,-4.1656,-4.2187,-4.274,-4.2974,-4.2974,-4.2974,-4.3514,-4.4618,-4.5121,-4.5686,-4.6313,-4.6313,-4.6276,-4.62,-4.62,-4.5861,-4.5234,-4.4731,-4.4204,-4.3652,-4.3175,-4.2974,-4.2974,-4.2974,-4.2974,-4.2974,-4.2974,-4.2974,-4.2974,-4.2974,-4.2974,-4.2974,-4.2974,-4.2715,-4.2301,-4.2238,-4.1442,-4.0614,-4.0538,-4.0124,-3.9697,-3.9697,-3.9697,-3.9697,-3.9697,-3.9697,-3.9697,-3.9697,-3.9697,-3.9697,-3.9697,-3.9697,-3.9697,-3.9697,-3.9697,-3.9697,-3.9697,-3.9697,-3.9697,-3.9697,-3.9697,-3.9697,-3.9697,-3.9697,-3.9697,-3.9697,-3.9195,-3.8655,-3.8153,-3.7525,-3.6973,-3.6543,-3.6455,-3.6405,-3.6405,-3.6405,-3.6405,-3.6405,-3.6405,-3.6405,-3.6405,-3.6405,-3.6405,-3.2014,-3.2554,-3.283,-3.2453,-3.229,-3.1687,-2.964,-2.8712,0.0,0.0,0.0,-2.4662,-2.3835,-2.5674,0.0,-2.9641,0.0,0.0,0.0,0.0,-3.9182,0.0,0.0,0.0,0.0,0.0,0.0,0.0,0.0,-4.2112,-4.22,-4.274,-4.2974,-4.2974,-4.2974,-4.3514,-4.4618,-4.4719,-4.5296,-4.6313,-4.6313,-4.6075,-4.5635,-4.5635,-4.507,-4.4091,-4.3978,0.0,-4.3112,-4.3024,-4.2974,-4.2974,-4.2974,-4.2974,-4.2974,-4.2974,-4.2974,-4.2974,-4.2974,-4.2974,-4.2974,-4.2974,-4.2911,-4.2803,-4.2351,-4.1706,-4.105,-4.0651,-4.0124,-3.9697,-3.9697,-3.9697,-3.9697,-3.9697,-3.9697,-3.9697,-3.9697,-3.9697,-3.9697,-3.9697,-3.9697,-3.9697,-3.9697,-3.9697,-3.9697,-3.9697,-3.9697,-3.9697,-3.9697,-3.9697,-3.9697,-3.9697,-3.9697,-3.9697,-3.9697,-3.9195,-3.8881,-3.873,-3.7751,-3.7149,-3.7048,-3.6656,-3.6405,-3.6405,-3.6405,-3.6405,-3.6405,-3.6405,-3.6405,-3.6405,-3.6405,-3.6405,-3.2428,-3.2867,-3.2943,-3.2353,-3.2001,-3.1135,-2.8637,0.0,0.0,0.0,0.0,-2.3012,-2.2719,0.0,0.0,0.0,0.0,0.0,0.0,0.0,0.0,0.0,0.0,0.0,0.0,0.0,0.0,0.0,0.0,-4.264,-4.264,-4.2836,-4.2974,-4.2974,-4.3263,-4.3664,-4.4192,-4.4782,-4.5347,-4.5886,-4.5886,-4.5748,-4.5485,-4.5171,-4.4744,-4.4217,-4.3928,-4.3652,-4.3376,-4.3099,-4.2974,-4.2974,-4.2974,-4.2974,-4.2974,-4.2974,-4.2974,-4.2974,-4.2974,-4.2974,-4.2974,-4.2974,-4.2974,-4.2924,-4.266,-4.2195,-4.1656,-4.1103,-4.0551,-4.0061,-3.9772,-3.9697,-3.9697,-3.9697,-3.9697,-3.9697,-3.9697,-3.9697,-3.9697,-3.9697,-3.9697,-3.9697,-3.9697,-3.9697,-3.9697,-3.9697,-3.9697,-3.9697,-3.9697,-3.9697,-3.9697,-3.9697,-3.9697,-3.9697,-3.9697,-3.9446,-3.9182,-3.8944,-3.8416,-3.7927,-3.7626,-3.7086,-3.6832,-3.6832,-3.6556,-3.6405,-3.6405,-3.6405,-3.6405,-3.6405,-3.6405,-3.6568,-3.2616,-3.298,-3.2948,-3.2215,-3.1625,-3.0495,-2.7769,-2.6151,0.0,0.0,0.0,-2.1481,-2.2033,0.0,0.0,0.0,0.0,0.0,0.0,0.0,0.0,0.0,0.0,0.0,0.0,0.0,0.0,0.0,0.0,0.0,-4.2974,-4.2974,-4.2974,-4.2974,-4.3401,-4.3677,-4.3802,-4.4681,-4.5183,-4.5309,-4.5309,-4.5246,-4.5108,-4.4656,-4.438,-4.4242,-4.3815,-4.3627,-4.3589,-4.3162,-4.2974,-4.2974,-4.2974,-4.2974,-4.2974,-4.2974,-4.2974,-4.2974,-4.2974,-4.2974,-4.2974,-4.2974,-4.2974,-4.2974,-4.2974,-4.2652,-4.2087,-4.1492,-4.0887,-4.0388,-3.9835,-3.9697,-3.9697,-3.9697,-3.9697,-3.9697,-3.9697,-3.9697,-3.9697,-3.9697,-3.9697,-3.9697,-3.9697,-3.9697,-3.9697,-3.9697,-3.9697,-3.9697,-3.9697,-3.9697,-3.9697,-3.9697,-3.9697,-3.9697,-3.9697,-3.9697,-3.9509,-3.9082,-3.8931,-3.8668,-3.8216,-3.7651,-3.7362,-3.7362,-3.6935,-3.6757,-3.6757,-3.6757,-3.6757,-3.6757,-3.6757,-3.6996,-3.2127,-3.2679,-3.286,-3.1738,-3.1072,-2.9955,-2.7203,0.0,0.0,0.0,-2.1157,-2.0943,-2.1455,-2.2472,0.0,0.0,0.0,0.0,0.0,0.0,0.0,0.0,0.0,0.0,0.0,0.0,0.0,0.0,0.0,0.0,-4.2974,-4.2974,-4.2974,-4.2974,-4.3024,-4.3288,-4.379,-4.3903,-4.4204,-4.4706,-4.4706,-4.4443,-4.3953,-4.3903,-4.3601,-4.3124,-4.3074,-4.3049,0.0,-4.2999,-4.2974,-4.2974,-4.2974,-4.2974,-4.2974,-4.2974,-4.2974,-4.2974,-4.2974,-4.2974,-4.2974,-4.2974,-4.2974,-4.2974,-4.2974,-4.2652,-4.2087,-4.1492,-4.0887,-4.0388,-3.9835,-3.9697,-3.9697,-3.9697,-3.9697,-3.9697,-3.9697,-3.9697,-3.9697,-3.9697,-3.9697,-3.9697,-3.9697,-3.9697,-3.9697,-3.9697,-3.9697,-3.9697,-3.9697,-3.9697,-3.9697,-3.9697,-3.9697,-3.9697,-3.9697,-3.9697,-3.9672,-3.9622,-3.9145,-3.8894,-3.8844,-3.8228,-3.7939,-3.7939,-3.7889,-3.7852,-3.7852,-3.7852,-3.7852,-3.7852,-3.7852,-3.7889,-3.1888,-3.2378,-3.2365,-3.1587,-3.0997,-2.988,-2.7128,0.0,0.0,-2.186,-2.0778,-2.0426,-2.1317,-2.1845,-2.305,0.0,-2.664,-2.8285,0.0,0.0,0.0,0.0,0.0,0.0,0.0,0.0,0.0,0.0,0.0,0.0,-4.2974,-4.2974,-4.2974,-4.2974,-4.2974,-4.3087,-4.3313,-4.3639,-4.3915,-4.4129,-4.4129,-4.4016,-4.379,-4.3463,-4.3187,-4.2974,-4.2974,-4.2974,0.0,-4.2974,-4.2974,-4.2974,-4.2974,-4.2974,-4.2974,-4.2974,-4.2974,-4.2974,-4.2974,-4.2974,-4.2974,-4.2974,-4.2974,-4.2974,-4.2974,-4.2879,-4.2534,-4.1982,-4.1442,-4.0837,-4.0337,-3.9936,-3.9697,-3.9697,-3.9697,-3.9697,-3.9697,-3.9697,-3.9697,-3.9697,-3.9697,-3.9697,-3.9697,-3.9697,-3.9697,-3.9697,-3.9697,-3.9697,-3.9697,-3.9697,-3.9697,-3.9697,-3.9697,-3.9697,-3.9697,-3.9697,-3.9697,-3.9697,-3.9484,-3.9371,-3.9371,-3.8831,-3.853,-3.853,-3.8191,-3.8002,-3.8002,-3.8002,-3.8002,-3.8002,-3.8002,-3.8191,-3.1135,-3.1725,-3.1838,-3.1298,-3.0633,-2.9478,0.0,0.0,-2.3314,-2.1794,-2.0727,-2.0351,-2.1305,-2.1619,-2.2535,-2.4971,-2.5636,-2.7092,-3.0658,0.0,0.0,0.0,0.0,0.0,0.0,0.0,0.0,0.0,0.0,0.0,-4.2974,-4.2974,-4.2974,-4.2974,-4.2974,-4.2974,-4.2974,-4.3363,-4.3551,-4.3551,-4.3551,-4.3551,-4.3539,-4.3162,-4.2974,-4.2974,-4.2974,-4.2974,0.0,-4.2974,-4.2974,-4.2974,-4.2974,-4.2974,-4.2974,-4.2974,-4.2974,-4.2974,-4.2974,-4.2974,-4.2974,-4.2974,-4.2974,-4.2974,-4.2974,-4.2974,-4.2861,-4.2363,-4.1643,-4.0912,-4.0413,-3.9986,-3.9697,-3.9697,-3.9697,-3.9697,-3.9697,-3.9697,-3.9697,-3.9697,-3.9697,-3.9697,-3.9697,-3.9697,-3.9697,-3.9697,-3.9697,-3.9697,-3.9697,-3.9697,-3.9697,-3.9697,-3.9697,-3.9697,-3.9697,-3.9697,-3.9697,-3.9697,-3.9697,-3.9697,-3.9697,-3.932,-3.912,-3.912,-3.8718,-3.8504,-3.8504,-3.8504,-3.8504,-3.8504,-3.8504,-3.8718,-2.9654,-3.0595,-3.1273,-3.0758,-2.974,-2.8511,0.0,-2.4732,-2.2794,-2.1719,-2.1069,-2.0855,-2.1393,-2.1933,-2.2819,-2.4525,-2.5737,-2.7454,-3.0231,0.0,0.0,0.0,0.0,0.0,0.0,0.0,0.0,0.0,0.0,0.0,-4.2974,-4.2974,-4.2974,-4.2974,-4.2974,-4.2974,-4.2974,-4.2986,-4.2986,-4.2986,-4.2986,-4.2986,-4.2986,-4.2974,-4.2974,-4.2974,-4.2974,-4.2974,0.0,-4.2974,-4.2974,-4.2974,-4.2974,-4.2974,-4.2974,-4.2974,-4.2974,-4.2974,-4.2974,-4.2974,-4.2974,-4.2974,-4.2974,-4.2974,-4.2974,-4.2974,-4.2861,-4.2363,-4.1367,-4.04,-3.9848,-3.9697,-3.9697,-3.9697,-3.9697,-3.9697,-3.9697,-3.9697,-3.9697,-3.9697,-3.9697,-3.9697,-3.9697,-3.9697,-3.9697,-3.9697,-3.9697,-3.9697,-3.9697,-3.9697,-3.9697,-3.9697,-3.9697,-3.9697,-3.9697,-3.9697,-3.9697,-3.9697,-3.9697,-3.9697,-3.9697,-3.9685,-3.9685,-3.9685,-3.9685,-3.9672,-3.9672,-3.9672,-3.9672,-3.9672,-3.9672,-3.9685,-2.7821,-2.8599,-2.9013,-2.8473,-2.7783,-2.6904,-2.5636,-2.3904,-2.2343,-2.1644,-2.1081,-2.0855,-2.1393,-2.1945,-2.31,-2.5548,-2.6273,0.0,0.0,0.0,0.0,0.0,0.0,0.0,0.0,0.0,0.0,0.0,0.0,0.0,-4.2974,-4.2974,-4.2974,-4.2974,-4.2974,-4.2974,-4.2974,-4.2974,-4.2974,-4.2974,-4.2974,-4.2974,-4.2974,-4.2974,-4.2974,-4.2974,-4.2974,-4.2974,-4.2974,-4.2974,-4.2974,-4.2974,-4.2974,-4.2974,-4.2974,-4.2974,-4.2974,-4.2974,-4.2974,-4.2974,-4.2974,-4.2974,-4.2974,-4.2974,-4.2974,-4.2974,-4.2785,-4.1856,-4.1342,-4.0865,-3.9936,-3.9697,-3.9697,-3.9697,-3.9697,-3.9697,-3.9697,-3.9697,-3.9697,-3.9697,-3.9697,-3.9697,-3.9697,-3.9697,-3.9697,-3.9697,-3.9697,-3.9697,-3.9697,-3.9697,-3.9697,-3.9697,-3.9697,-3.9697,-3.9697,-3.9697,-3.9697,-3.9697,-3.9697,-3.9697,-3.9697,-3.9697,-3.9697,-3.9697,-3.9697,-3.9697,-3.9697,-3.9697,-3.9697,-3.9697,-3.9697,-3.9697,0.0,-2.6681,-2.7322,-2.6677,-2.6099,-2.5453,-2.4693,-2.3107,-2.1695,-2.1274,-2.1094,-2.1106,-2.1458,-2.2108,-2.3326,-2.5485,-2.6223,0.0,0.0,0.0,0.0,0.0,0.0,0.0,0.0,0.0,0.0,0.0,0.0,0.0,-4.2974,-4.2974,-4.2974,-4.2974,-4.2974,-4.2974,-4.2974,-4.2974,-4.2974,-4.2974,-4.2974,-4.2974,-4.2974,-4.2974,-4.2974,-4.2974,-4.2974,-4.2974,0.0,-4.2974,-4.2974,-4.2974,-4.2974,-4.2974,-4.2974,-4.2974,-4.2974,-4.2974,-4.2974,-4.2974,-4.2974,-4.2974,-4.2974,-4.2974,-4.2974,-4.2891,-4.2484,-4.1539,-4.1137,-4.0827,-3.9923,-3.9697,-3.9697,-3.9697,-3.9697,-3.9697,-3.9697,-3.9697,-3.9697,-3.9697,-3.9697,-3.9697,-3.9697,-3.9697,-3.9697,-3.9697,-3.9697,-3.9697,-3.9697,-3.9697,-3.9697,-3.9697,-3.9697,-3.9697,-3.9697,-3.9697,-3.9697,-3.9697,-3.9697,-3.9697,-3.9697,-3.9697,-3.9697,-3.9697,-3.9697,-3.9697,-3.9697,-3.9697,-3.9697,-3.9697,-3.9697,-3.9697,0.0,0.0,0.0,0.0,0.0,-2.3917,-2.3778,-2.2244,0.0,-2.073,-2.1039,-2.1412,-2.1581,-2.2376,-2.3429,-2.4703,-2.5832,0.0,0.0,0.0,0.0,0.0,0.0,0.0,0.0,0.0,0.0,0.0,0.0,0.0,-4.2974,-4.2974,-4.2974,-4.2974,-4.2974,-4.2974,-4.2974,-4.2974,-4.2974,-4.2974,-4.2974,-4.2974,-4.2974,-4.2974,-4.2974,0.0,-4.2974,-4.2974,-4.2974,-4.2974,-4.2974,-4.2974,-4.2974,-4.2974,-4.2974,-4.2974,-4.2974,-4.2974,-4.2974,-4.2974,-4.2974,-4.2992,-4.2886,-4.2861,-4.2861,-4.259,-4.2087,-4.1492,-4.0887,-4.0388,-3.9835,-3.9697,-3.9697,-3.9697,-3.9697,-3.9697,-3.9697,-3.9697,-3.9697,-3.9697,-3.9697,-3.9697,-3.9697,-3.9697,-3.9697,-3.9697,-3.9697,-3.9697,-3.9697,-3.9697,-3.9697,-3.9697,-3.9697,-3.9697,-3.9697,-3.9697,-3.9697,-3.9697,-3.9697,-3.9697,-3.9697,-3.9697,-3.9697,-3.9697,-3.9697,-3.9697,-3.9697,-3.9697,-3.9697,-3.9697,-3.9697,-3.9697,-1.8754,0.0,-2.1471,-2.0849,-2.0572,-2.0595,0.0,-2.0123,-1.9383,0.0,0.0,0.0,0.0,-2.2323,-2.2959,0.0,0.0,0.0,0.0,0.0,0.0,0.0,0.0,0.0,0.0,0.0,0.0,0.0,0.0,-4.259,-4.2949,-4.2974,-4.2974,-4.2974,-4.2974,-4.2974,-4.2974,-4.2974,-4.2974,-4.2974,-4.2974,-4.2974,-4.2974,-4.2974,-4.2974,-4.2974,-4.2974,-4.2974,-4.2974,-4.2974,-4.2974,-4.2974,-4.2974,-4.2974,-4.2974,-4.2974,-4.2974,-4.2974,-4.2974,-4.2974,-4.2911,-4.2539,-4.207,-4.1731,-4.1731,-4.1919,-4.2087,-4.1492,-4.0887,-4.0388,-3.9835,-3.9697,-3.9697,-3.9697,-3.9697,-3.9697,-3.9697,-3.9697,-3.9697,-3.9697,-3.9697,-3.9697,-3.9697,-3.9697,-3.9697,-3.9697,-3.9697,-3.9697,-3.9697,-3.9697,-3.9697,-3.9697,-3.9697,-3.9697,-3.9697,-3.9697,-3.9697,-3.9697,-3.9697,-3.9697,-3.9697,-3.9697,-3.9697,-3.9697,-3.9697,-3.9697,-3.9697,-3.9697,-3.9697,-3.9697,-3.9697,-3.9697,-1.634,-1.8177,-2.0171,-1.9458,-1.9299,-1.943,-1.9998,0.0,0.0,0.0,0.0,0.0,0.0,0.0,0.0,0.0,0.0,0.0,0.0,0.0,0.0,0.0,0.0,0.0,0.0,0.0,0.0,0.0,0.0,-4.202,-4.2627,-4.2652,-4.2778,-4.2974,-4.2974,-4.2974,-4.2974,-4.2974,-4.2974,-4.2974,-4.2974,-4.2974,-4.2974,-4.2974,-4.2974,-4.2974,-4.2974,-4.2974,-4.2974,-4.2974,-4.2974,-4.2974,-4.2974,-4.2974,-4.2974,-4.2974,-4.2974,-4.2974,-4.2974,-4.2811,-4.2564,-4.1957,-4.158,-4.1288,-4.1288,-4.1367,-4.1342,-4.104,-4.0563,-4.0074,-3.9772,-3.9697,-3.9697,-3.9697,-3.9697,-3.9697,-3.9697,-3.9697,-3.9697,-3.9697,-3.9697,-3.9697,-3.9697,-3.9697,-3.9697,-3.9697,-3.9697,-3.9697,-3.9697,-3.9697,-3.9697,-3.9697,-3.9697,-3.9697,-3.9697,-3.9697,-3.9697,-3.9697,-3.9697,-3.9697,-3.9697,-3.9697,-3.9697,-3.9697,-3.9697,-3.9697,-3.9697,-3.9697,-3.9697,-3.9697,-3.9697,-3.9697,-1.5206,-1.7582,-1.9987,-1.9036,-1.8903,-1.9111,-1.9427,0.0,0.0,0.0,0.0,0.0,0.0,0.0,0.0,0.0,0.0,0.0,0.0,0.0,0.0,0.0,0.0,0.0,0.0,0.0,0.0,0.0,0.0,-4.1455,-4.2049,-4.2087,-4.2246,-4.271,-4.2811,-4.2737,-4.2501,-4.2575,-4.2613,-4.2613,-4.2613,-4.2737,-4.2974,-4.2974,-4.2974,-4.2974,-4.2974,0.0,-4.2974,-4.2974,-4.2974,-4.2974,-4.2974,-4.2974,-4.2974,-4.2886,-4.2848,-4.2836,-4.276,-4.2371,-4.1886,-4.1367,-4.11,-4.1037,-4.1037,-4.0764,-4.0388,-4.0388,-4.0061,-3.9697,-3.9697,-3.9697,-3.9697,-3.9697,-3.9697,-3.9697,-3.9697,-3.9697,-3.9697,-3.9697,-3.9697,-3.9697,-3.9697,-3.9697,-3.9697,-3.9697,-3.9697,-3.9697,-3.9697,-3.9697,-3.9697,-3.9697,-3.9697,-3.9697,-3.9697,-3.9697,-3.9697,-3.9697,-3.9697,-3.9697,-3.9697,-3.9697,-3.9697,-3.9697,-3.9697,-3.9697,-3.9697,-3.9697,-3.9697,-3.9697,-3.9697,-3.9697,-1.6068,-1.7392,-1.8092,-1.6872,-1.7147,-1.7768,-1.8041,0.0,0.0,0.0,0.0,0.0,0.0,0.0,0.0,0.0,0.0,0.0,0.0,0.0,0.0,0.0,0.0,0.0,0.0,0.0,0.0,0.0,0.0,-4.0877,-4.143,-4.1467,-4.1451,-4.1539,-4.2045,-4.1694,-4.0278,-4.0733,-4.0949,-4.0949,-4.0949,-4.1659,-4.2974,-4.2974,-4.2974,-4.2974,0.0,-4.2974,-4.2974,-4.2974,-4.2974,-4.2974,-4.2974,-4.2974,-4.2924,-4.2502,-4.2338,-4.2275,-4.1756,-4.1229,-4.0752,-4.0664,-4.0325,-3.9948,-3.9948,-3.9885,-3.9823,-3.9823,-3.976,-3.9697,-3.9697,-3.9697,-3.9697,-3.9697,-3.9697,-3.9697,-3.9697,-3.9697,-3.9697,-3.9697,-3.9697,-3.9697,-3.9697,-3.9697,-3.9697,-3.9697,-3.9697,-3.9697,-3.9697,-3.9697,-3.9697,-3.9697,-3.9697,-3.9697,-3.9697,-3.9697,-3.9697,-3.9697,-3.9697,-3.9697,-3.9697,-3.9697,-3.9697,-3.9697,-3.9697,-3.9697,-3.9697,-3.9697,-3.9697,-3.9697,-3.9697,-3.9697,-1.5047,-1.6268,-1.7285,-1.7148,-1.8149,-1.9092,-1.8944,0.0,0.0,0.0,0.0,0.0,0.0,0.0,0.0,0.0,0.0,0.0,0.0,0.0,0.0,0.0,0.0,0.0,0.0,0.0,0.0,0.0,0.0,-3.9972,-3.9665,-3.969,-3.9419,-3.8955,-3.9193,-3.8568,-3.6954,-3.7177,-3.7967,-3.9288,-4.0175,-4.1019,-4.1728,-4.2613,-4.2811,-4.259,-4.259,-4.2359,-4.2095,-4.2095,-4.2095,-4.2095,-4.2095,-4.2095,-4.2057,-4.1806,-4.1706,-4.163,-4.1078,-4.0727,-4.0463,-4.0174,-3.9898,-3.9697,-3.9697,-3.9697,-3.9697,-3.9697,-3.9697,-3.9697,-3.9697,-3.9697,-3.9697,-3.9697,-3.9697,-3.9697,-3.9697,-3.9697,-3.9697,-3.9697,-3.9697,-3.9697,-3.9697,-3.9697,-3.9697,-3.9697,-3.9697,-3.9697,-3.9697,-3.9697,-3.9697,-3.9697,-3.9697,-3.9697,-3.9697,-3.9697,-3.9697,-3.9697,-3.9697,-3.9697,-3.9697,-3.9697,-3.9697,-3.9697,-3.9697,-3.9697,-3.9697,-3.9697,-3.9697,-3.9697,-3.9697,-3.9697,-1.4494,-1.5683,-1.696,-1.8047,0.0,-2.0107,-2.0078,-1.9736,0.0,0.0,0.0,0.0,0.0,0.0,0.0,0.0,0.0,0.0,0.0,0.0,0.0,0.0,0.0,0.0,0.0,0.0,0.0,0.0,0.0,-3.9263,-3.8156,-3.8113,-3.7625,-3.6545,-3.6669,-3.5925,-3.4322,-3.4438,-3.543,-3.7343,-3.857,-3.9568,-4.028,-4.1519,-4.2058,-4.1969,-4.1969,-4.1731,-4.1288,-4.0939,-4.0765,-4.0752,-4.0414,-4.0395,-4.0579,-4.0579,-4.0719,-4.0902,-4.0475,-4.0325,-4.0249,-3.9835,-3.9697,-3.9697,-3.9697,-3.9697,-3.9697,-3.9697,-3.9697,-3.9697,-3.9697,-3.9697,-3.9697,-3.9697,-3.9697,-3.9697,-3.9697,-3.9697,-3.9697,-3.9697,-3.9697,-3.9697,-3.9697,-3.9697,-3.9697,-3.9697,-3.9697,-3.9697,-3.9697,-3.9697,-3.9697,-3.9697,-3.9697,-3.9697,-3.9697,-3.9697,-3.9697,-3.9697,-3.9697,-3.9697,-3.9697,-3.9697,-3.9697,-3.9697,-3.9697,-3.9697,-3.9697,-3.9697,-3.9697,-3.9697,-3.9697,-3.9697,-1.5966,-1.6599,-1.7096,-1.8779,-1.8984,0.0,-2.0282,-2.0185,0.0,-2.0888,0.0,0.0,0.0,0.0,0.0,0.0,0.0,0.0,0.0,0.0,0.0,0.0,0.0,0.0,0.0,0.0,0.0,0.0,-3.9697,-3.9089,-3.7631,-3.7578,-3.6881,-3.5444,-3.5893,-3.5384,-3.3791,-3.428,-3.4581,-3.4762,-3.488,-3.6432,-3.9197,-3.9308,-4.0105,-4.1338,-4.1338,-4.1326,-4.1168,-3.9831,-3.9256,-3.9133,-3.7745,-3.7748,-3.8527,-3.8527,-3.9067,-3.981,-3.9772,-3.9747,-3.9747,-3.971,-3.9697,-3.9697,-3.9697,-3.9697,-3.9697,-3.9697,-3.9697,-3.9697,-3.9697,-3.9697,-3.9697,-3.9697,-3.9697,-3.9697,-3.9697,-3.9697,-3.9697,-3.9697,-3.9697,-3.9697,-3.9697,-3.9697,-3.9697,-3.9697,-3.9697,-3.9697,-3.9697,-3.9697,-3.9697,-3.9697,-3.9697,-3.9697,-3.9697,-3.9697,-3.9697,-3.9697,-3.9697,-3.9697,-3.9697,-3.9697,-3.9697,-3.9697,-3.9697,-3.9697,-3.9697,-3.9697,-3.9697,-3.9697,-3.9697,-3.9697,-1.5156,-1.6113,-1.7048,-1.8481,-1.9365,0.0,0.0,-2.1711,-2.2178,-2.3037,-2.334,0.0,0.0,0.0,0.0,0.0,0.0,0.0,0.0,0.0,0.0,0.0,0.0,0.0,0.0,0.0,0.0,0.0,-3.8856,-3.7701,-3.6217,-3.5277,-3.4069,-3.2597,-3.2762,-3.2578,-3.1951,-3.218,-3.226,-3.227,-3.3769,-3.5125,-3.6263,-3.7292,-3.7876,-3.8052,-3.8052,-3.7876,-3.7516,-3.6957,-3.6736,-3.667,-3.6116,-3.6102,-3.6559,-3.7481,-3.8029,-3.8465,-3.9362,-3.9697,-3.9697,-3.9697,-3.9077,-3.8348,-3.8348,-3.8348,-3.8348,-3.8348,-3.8961,-3.9697,-3.9697,-3.9697,-3.9697,-3.9697,-3.9697,-3.9697,-3.9697,-3.9697,-3.9697,-3.9697,-3.9697,-3.9697,-3.9697,-3.9697,-3.9697,-3.9697,-3.9697,-3.9697,-3.9697,-3.9697,-3.9697,-3.9697,-3.9697,-3.9697,-3.9697,-3.9697,-3.9697,-3.9697,-3.9697,-3.9697,-3.9697,-3.9697,-3.9697,-3.9697,-3.9697,-3.9697,-3.9697,-3.9697,-3.9697,-3.9697,-3.9697,-3.9697,-1.4824,-1.584,-1.7009,-1.8286,0.0,0.0,-2.1982,-2.2744,-2.3531,-2.46,0.0,0.0,0.0,0.0,0.0,0.0,0.0,0.0,0.0,0.0,0.0,0.0,0.0,0.0,0.0,0.0,0.0,-3.8319,-3.737,-3.6151,-3.4681,-3.3631,-3.2416,-3.0947,-3.0889,-3.0889,-3.0889,-3.0889,-3.0889,-3.0898,-3.2596,-3.3613,-3.4117,-3.5193,-3.5757,-3.5848,-3.5848,-3.5657,-3.5233,-3.4792,-3.4359,-3.3923,-3.3923,-3.447,-3.5398,-3.6433,-3.7412,-3.836,-3.9362,-3.9697,-3.9697,-3.9697,-3.8687,-3.7518,-3.7518,-3.7518,-3.7518,-3.7518,-3.8582,-3.9697,-3.9697,-3.9697,-3.9697,-3.9697,-3.9697,-3.9697,-3.9697,-3.9697,-3.9697,-3.9697,-3.9697,-3.9697,-3.9697,-3.9697,-3.9697,-3.9697,-3.9297,-3.9193,-3.9633,-3.9297,-3.9193,-3.9633,-3.9697,-3.9697,-3.9697,-3.9245,-3.9193,-3.9697,-3.9245,-3.9193,-3.9685,-3.9697,-3.9697,-3.9697,-3.9697,-3.9697,-3.9697,-3.9697,-3.9697,-3.9697,-3.9697,-3.9697,-1.541,-1.6034,0.0,0.0,0.0,0.0,-2.2613,-2.3164,-2.3717,-2.5343,0.0,0.0,0.0,0.0,0.0,0.0,0.0,0.0,0.0,0.0,0.0,0.0,0.0,0.0,0.0,0.0,-3.5288,-3.5288,-3.53,-3.4626,-3.3191,-3.3077,-3.2426,-3.0947,-3.0889,-3.0889,-3.0889,-3.0889,-3.0889,-3.0889,-3.0889,-3.1662,-3.3077,-3.3077,-3.3856,-3.5245,-3.5245,-3.5245,-3.5123,-3.3687,-3.2207,-3.0889,-3.0889,-3.2711,-3.5288,-3.5288,-3.7156,-3.9685,-3.9697,-3.9697,-3.9685,-3.9685,-3.8687,-3.7465,-3.7465,-3.7465,-3.7465,-3.7465,-3.8518,-3.9685,-3.9697,-3.9697,-3.9697,-3.9697,-3.9697,-3.9697,-3.9697,-3.9697,-3.9697,-3.9697,-3.9697,-3.9697,-3.9697,-3.9697,-3.9697,-3.9697,-3.8465,-3.8019,-3.9465,-3.8413,-3.8084,-3.953,-3.9697,-3.9697,-3.9697,-3.8348,-3.8125,-3.9581,-3.8295,-3.8137,-3.9633,-3.9697,-3.9697,-3.9697,-3.9697,-3.9697,-3.9697,-3.9697,-3.9697,-3.9697,-3.9697,-3.9697,-1.541,-1.6494,0.0,0.0,0.0,0.0,0.0,-2.3828,0.0,0.0,0.0,0.0,0.0,0.0,0.0,0.0,0.0,0.0,0.0,0.0,0.0,0.0,0.0,0.0,0.0,0.0,-3.5288,-3.5288,-3.4359,-3.3575,-3.3124,-3.2092,-3.1325,-3.0889,-3.0889,-3.0889,-3.0889,-3.0889,-3.0889,-3.0889,-3.0889,-3.1112,-3.1546,-3.1546,-3.1767,-3.2217,-3.2217,-3.2217,-3.216,-3.171,-3.1267,-3.0889,-3.0889,-3.2045,-3.3856,-3.4902,-3.6487,-3.8295,-3.9362,-3.9025,-3.8137,-3.8137,-3.6422,-3.4392,-3.4392,-3.4392,-3.4615,-3.5661,-3.6984,-3.8413,-3.9413,-3.9697,-3.9697,-3.9697,-3.9697,-3.9697,-3.9697,-3.9697,-3.9697,-3.9697,-3.9697,-3.9697,-3.9697,-3.9697,-3.9697,-3.9697,-3.8465,-3.7305,-3.6661,-3.8031,-3.8804,-3.8243,-3.9077,-3.9697,-3.9697,-3.8348,-3.769,-3.8125,-3.6769,-3.7103,-3.9581,-3.9697,-3.9697,-3.9697,-3.9697,-3.9697,-3.9697,-3.9697,-3.9697,-3.9697,-3.9697,-3.9697,-1.6094,0.0,0.0,0.0,0.0,0.0,0.0,0.0,0.0,0.0,0.0,0.0,0.0,0.0,0.0,0.0,0.0,0.0,0.0,0.0,0.0,0.0,0.0,0.0,0.0,-3.354,-3.354,-3.354,-3.2701,-3.2207,-3.2207,-3.1383,-3.0889,-3.0889,-3.0889,-3.0889,-3.0889,-3.0889,-3.0889,-3.0889,-3.0889,-3.0889,-3.0889,-3.0889,-3.0889,-3.0889,-3.0889,-3.0889,-3.0889,-3.0889,-3.0889,-3.0889,-3.0889,-3.1825,-3.3191,-3.4069,-3.5332,-3.6757,-3.7648,-3.737,-3.6649,-3.6649,-3.5057,-3.3077,-3.3077,-3.3077,-3.3293,-3.4191,-3.5497,-3.6984,-3.8465,-3.8804,-3.8973,-3.9581,-3.9697,-3.9697,-3.9697,-3.9245,-3.8804,-3.8804,-3.836,-3.8149,-3.8752,-3.836,-3.8372,-3.953,-3.8465,-3.6984,-3.5508,-3.737,-3.8687,-3.8413,-3.9193,-3.9465,-3.8856,-3.7477,-3.6649,-3.6649,-3.5233,-3.5781,-3.8687,-3.8804,-3.9077,-3.9697,-3.9697,-3.9697,-3.9697,-3.9697,-3.9697,-3.9697,-3.9697,-3.9697,0.0,0.0,0.0,0.0,0.0,0.0,0.0,0.0,0.0,0.0,0.0,0.0,0.0,0.0,0.0,0.0,0.0,0.0,0.0,0.0,0.0,0.0,0.0,0.0,-3.0889,-3.0889,-3.0889,-3.0889,-3.0889,-3.0889,-3.0889,-3.0889,-3.0889,-3.0889,-3.0889,-3.0889,-3.0889,-3.0889,-3.0889,-3.0889,-3.0889,-3.0889,-3.0889,-3.0889,-3.0889,-3.0889,-3.0889,-3.0889,-3.0889,-3.0889,-3.0889,-3.0889,-3.0889,-3.1825,-3.3077,-3.3077,-3.4013,-3.5288,-3.5288,-3.5233,-3.5068,-3.5068,-3.4069,-3.2918,-3.2918,-3.2918,-3.2918,-3.3077,-3.4069,-3.5453,-3.7079,-3.7518,-3.7849,-3.9193,-3.953,-3.953,-3.953,-3.836,-3.7305,-3.7305,-3.6325,-3.589,-3.7091,-3.6325,-3.6337,-3.8752,-3.819,-3.6865,-3.5123,-3.6433,-3.7967,-3.9193,-3.9413,-3.8973,-3.7624,-3.6162,-3.5233,-3.5123,-3.3744,-3.417,-3.6972,-3.7358,-3.819,-3.9697,-3.9697,-3.9697,-3.9697,-3.9697,-3.9697,-3.9697,-3.9697,-3.9697,0.0,0.0,0.0,0.0,0.0,0.0,0.0,0.0,0.0,0.0,0.0,0.0,0.0,0.0,0.0,0.0,0.0,0.0,0.0,0.0,0.0,0.0,0.0,0.0,-3.0889,-3.0889,-3.0889,-3.0889,-3.0889,-3.0889,-3.0889,-3.0889,-3.0889,-3.0889,-3.0889,-3.0889,-3.0889,-3.0889,-3.0889,-3.0889,-3.0889,-3.0889,-3.0889,-3.0889,-3.0889,-3.0889,-3.0889,-3.0889,-3.0889,-3.0889,-3.0889,-3.0889,-3.0889,-3.1825,-3.3077,-3.3077,-3.4013,-3.5288,-3.5288,-3.4515,-3.3575,-3.3575,-3.2587,-3.1383,-3.1383,-3.1383,-3.1604,-3.2747,-3.335,-3.4181,-3.6811,-3.7518,-3.7583,-3.7914,-3.7967,-3.7967,-3.7967,-3.6823,-3.5781,-3.5781,-3.6433,-3.6757,-3.5945,-3.6487,-3.6487,-3.4781,-3.6205,-3.6151,-3.2322,-3.5167,-3.7198,-3.6337,-3.7263,-3.7849,-3.7518,-3.6162,-3.4792,-3.3631,-3.2207,-3.215,-3.3957,-3.6259,-3.819,-3.9697,-3.9697,-3.9697,-3.9697,-3.9697,-3.9697,-3.9697,-3.9697,-3.9697,0.0,0.0,0.0,0.0,0.0,0.0,0.0,0.0,0.0,0.0,0.0,0.0,0.0,0.0,0.0,0.0,0.0,0.0,0.0,0.0,0.0,0.0,0.0,-3.0557,-3.0557,-3.0762,-3.0889,-3.0889,-3.0889,-3.0889,-3.0889,-3.0889,-3.0889,-3.0889,-3.0889,-3.0889,-3.0889,-3.0889,-3.0889,-3.0889,-3.0889,-3.0889,-3.0889,-3.0889,-3.0889,-3.0889,-3.0889,-3.0889,-3.0889,-3.0889,-3.0889,-3.0889,-3.0889,-3.1383,-3.2045,-3.2045,-3.254,-3.3201,-3.3201,-3.2711,-3.2045,-3.2045,-3.1546,-3.0889,-3.0889,-3.0889,-3.1054,-3.1815,-3.253,-3.3631,-3.5879,-3.6433,-3.6595,-3.7358,-3.7518,-3.7305,-3.6595,-3.5277,-3.4236,-3.4236,-3.4292,-3.4348,-3.4236,-3.5453,-3.5442,-3.2483,-3.3957,-3.4559,-3.2264,-3.3957,-3.5387,-3.5288,-3.5999,-3.6151,-3.5431,-3.4681,-3.3631,-3.215,-3.1334,-3.1546,-3.3021,-3.4559,-3.6422,-3.8582,-3.8635,-3.8961,-3.9697,-3.9697,-3.9697,-3.9697,-3.9697,-3.9697,0.0,0.0,0.0,0.0,0.0,0.0,0.0,0.0,0.0,0.0,0.0,0.0,0.0,0.0,0.0,0.0,0.0,0.0,0.0,0.0,0.0,0.0,0.0,-3.0088,-3.0088,-3.0439,-3.0664,-3.0664,-3.0732,-3.0771,-3.0771,-3.085,-3.0889,-3.0889,-3.0889,-3.0889,-3.0889,-3.0889,-3.0889,-3.0889,-3.0889,-3.0889,-3.0889,-3.0889,-3.0889,-3.0889,-3.0889,-3.0889,-3.0889,-3.0889,-3.0889,-3.0889,-3.0889,-3.0889,-3.0889,-3.0889,-3.0889,-3.0889,-3.0889,-3.0889,-3.0889,-3.0889,-3.0889,-3.0889,-3.0889,-3.0889,-3.0889,-3.0889,-3.1988,-3.335,-3.4626,-3.5123,-3.5563,-3.653,-3.6757,-3.6422,-3.5178,-3.3744,-3.269,-3.269,-3.171,-3.1383,-3.2861,-3.3912,-3.3698,-3.1276,-3.215,-3.3021,-3.2747,-3.2964,-3.3575,-3.4792,-3.4902,-3.4414,-3.318,-3.3077,-3.2473,-3.0995,-3.0889,-3.1441,-3.269,-3.269,-3.4013,-3.6692,-3.724,-3.8072,-3.931,-3.9581,-3.9697,-3.9697,-3.9697,-3.9581,0.0,0.0,0.0,0.0,0.0,0.0,0.0,0.0,0.0,0.0,0.0,0.0,0.0,0.0,0.0,0.0,0.0,0.0,0.0,0.0,0.0,0.0,0.0,-2.9658,-2.9658,-2.9763,-2.9746,-2.9746,-3.0088,-3.0293,-3.0293,-3.0674,-3.0889,-3.0889,-3.0889,-3.0889,-3.0889,-3.0889,-3.0889,-3.0889,-3.0889,-3.0889,-3.0889,-3.0889,-3.0889,-3.0889,-3.0889,-3.0889,-3.0889,-3.0889,-3.0889,-3.0889,-3.0889,-3.0889,-3.0889,-3.0889,-3.0889,-3.0889,-3.0889,-3.0889,-3.0889,-3.0889,-3.0889,-3.0889,-3.0889,-3.0889,-3.0889,-3.0889,-3.1988,-3.3134,-3.335,-3.4348,-3.5013,-3.3957,-3.3677,-3.362,-3.3462,-3.2207,-3.116,-3.116,-3.1054,-3.1383,-3.2861,-3.2207,-3.1334,-3.0947,-3.215,-3.2644,-3.1392,-3.2311,-3.3191,-3.335,-3.3406,-3.3293,-3.3134,-3.3077,-3.2473,-3.0995,-3.0889,-3.1005,-3.116,-3.116,-3.1988,-3.362,-3.6205,-3.7571,-3.7796,-3.9077,-3.9697,-3.9697,-3.9697,-3.9025,0.0,0.0,0.0,0.0,0.0,0.0,0.0,0.0,0.0,0.0,0.0,0.0,0.0,0.0,0.0,0.0,0.0,0.0,0.0,0.0,0.0,0.0,0.0,-2.9209,-2.9209,-2.9434,-2.9626,-2.9626,-2.9736,-2.9844,-2.9844,-3.0264,-3.0508,-3.0508,-3.0752,-3.0889,-3.0889,-3.0889,-3.0889,-3.0889,-3.0889,-3.0889,-3.0889,-3.0889,-3.0889,-3.0889,-3.0889,-3.0889,-3.0889,-3.0889,-3.0889,-3.0889,-3.0889,-3.0889,-3.0889,-3.0889,-3.0889,-3.0889,-3.0889,-3.0889,-3.0889,-3.0889,-3.0889,-3.0889,-3.0889,-3.0889,-3.0889,-3.0889,-3.1988,-3.3077,-3.3077,-3.3575,-3.3901,-3.3237,-3.2473,-3.1883,-3.1883,-3.1392,-3.0889,-3.0889,-3.0889,-3.1112,-3.1767,-3.1334,-3.0889,-3.0889,-3.1441,-3.1604,-3.1005,-3.1498,-3.1883,-3.1883,-3.1883,-3.1883,-3.1883,-3.1883,-3.1604,-3.0947,-3.0889,-3.0889,-3.0889,-3.0889,-3.1228,-3.1883,-3.3957,-3.5442,-3.6271,-3.693,-3.721,-3.721,-3.721,-3.6876,0.0,0.0,0.0,0.0,0.0,0.0,0.0,0.0,0.0,0.0,0.0,0.0,0.0,0.0,0.0,0.0,0.0,0.0,0.0,0.0,0.0,0.0,0.0,-2.876,-2.876,-2.9053,-2.9248,-2.9248,-2.9346,-2.9404,-2.9404,-2.9805,-3.0039,-3.0039,-3.0371,-3.0605,-3.0713,-3.083,-3.0889,-3.0889,-3.0889,-3.0889,-3.0889,-3.0889,-3.0889,-3.0889,-3.0889,-3.0889,-3.0889,-3.0889,-3.0889,-3.0889,-3.0889,-3.0889,-3.0889,-3.0889,-3.0889,-3.0889,-3.0889,-3.0889,-3.0889,-3.0889,-3.0889,-3.0889,-3.0889,-3.0889,-3.0889,-3.0889,-3.1988,-3.3021,-3.2644,-3.2804,-3.3021,-3.2644,-3.171,-3.0889,-3.0889,-3.0889,-3.0889,-3.0889,-3.0889,-3.0889,-3.0889,-3.0889,-3.0889,-3.0889,-3.0889,-3.0889,-3.0889,-3.0889,-3.0889,-3.0889,-3.0889,-3.0889,-3.0889,-3.0889,-3.0889,-3.0889,-3.0889,-3.0889,-3.0889,-3.0889,-3.0889,-3.0889,-3.1988,-3.3247,-3.4736,-3.5123,-3.5288,-3.5288,-3.5288,-3.5068,0.0,0.0,0.0,0.0,0.0,0.0,0.0,0.0,0.0,0.0,0.0,0.0,0.0,0.0,0.0,0.0,0.0,0.0,0.0,0.0,0.0,0.0,0.0,-2.833,-2.833,-2.834,-2.8359,-2.8359,-2.873,-2.8955,-2.8955,-2.9365,-2.96,-2.96,-2.9629,-2.9834,-3.0234,-3.0674,-3.0889,-3.0889,-3.0889,-3.0889,-3.0889,-3.0889,-3.0889,-3.0889,-3.0889,-3.0889,-3.0889,-3.0889,-3.0889,-3.0889,-3.0889,-3.0889,-3.0889,-3.0889,-3.0889,-3.0889,-3.0889,-3.0889,-3.0889,-3.0889,-3.0889,-3.0889,-3.0889,-3.0889,-3.0889,-3.0889,-3.1988,-3.2804,-3.1383,-3.2035,-3.2747,-3.1325,-3.0947,-3.0889,-3.0889,-3.0889,-3.0889,-3.0889,-3.0889,-3.0889,-3.0889,-3.0889,-3.0889,-3.0889,-3.0889,-3.0889,-3.0889,-3.0889,-3.0889,-3.0889,-3.0889,-3.0889,-3.0889,-3.0889,-3.0889,-3.0889,-3.0889,-3.0889,-3.0889,-3.0889,-3.0889,-3.0889,-3.1005,-3.171,-3.3247,-3.4626,-3.5288,-3.5288,-3.5288,-3.457,0.0,0.0,0.0,0.0,0.0,0.0,0.0,0.0,0.0,0.0,0.0,0.0,0.0,0.0,0.0,0.0,0.0,0.0,0.0,0.0,0.0,0.0,0.0,-2.8291,-2.8291,-2.8291,-2.8291,-2.8291,-2.8428,-2.8516,-2.8516,-2.8916,-2.915,-2.915,-2.9424,-2.9648,-2.9795,-3.0225,-3.0449,-3.0449,-3.0752,-3.0889,-3.0889,-3.0889,-3.0889,-3.0889,-3.0889,-3.0889,-3.0889,-3.0889,-3.0889,-3.0889,-3.0889,-3.0889,-3.0889,-3.0889,-3.0889,-3.0889,-3.0889,-3.0889,-3.0889,-3.0889,-3.0889,-3.0889,-3.0889,-3.0889,-3.0889,-3.0889,-3.1276,-3.1546,-3.1054,-3.1267,-3.1546,-3.1005,-3.0889,-3.0889,-3.0889,-3.0889,-3.0889,-3.0889,-3.0889,-3.0889,-3.0889,-3.0889,-3.0889,-3.0889,-3.0889,-3.0889,-3.0889,-3.0889,-3.0889,-3.0889,-3.0889,-3.0889,-3.0889,-3.0889,-3.0889,-3.0889,-3.0889,-3.0889,-3.0889,-3.0889,-3.0889,-3.0889,-3.0889,-3.117,-3.172,-3.2217,-3.2493,-3.2493,-3.2493,-3.2217,-1.4591,0.0,0.0,0.0,0.0,0.0,0.0,0.0,0.0,0.0,0.0,0.0,0.0,0.0,0.0,0.0,0.0,0.0,0.0,0.0,0.0,0.0,0.0,-2.8291,-2.8291,-2.8291,-2.8291,-2.8291,-2.8291,0.0,-2.8291,-2.8555,-2.8711,-2.8711,-2.9131,-2.9355,-2.9355,-2.9775,-2.999,-2.999,-3.0439,-3.0664,-3.0664,-3.082,-3.0889,-3.0889,-3.0889,-3.0889,-3.0889,-3.0889,-3.0889,-3.0889,-3.0889,-3.0889,-3.0889,-3.0889,-3.0889,-3.0889,-3.0889,-3.0889,-3.0889,-3.0889,-3.0889,-3.0889,-3.0889,-3.0889,-3.0889,-3.0889,-3.0889,-3.0889,-3.0889,-3.0889,-3.0889,-3.0889,-3.0889,-3.0889,-3.0889,-3.0889,-3.0889,-3.0889,-3.0889,-3.0889,-3.0889,-3.0889,-3.0889,-3.0889,-3.0889,-3.0889,-3.0889,-3.0889,-3.0889,-3.0889,-3.0889,-3.0889,-3.0889,-3.0889,-3.0889,-3.0889,-3.0889,-3.0889,-3.0889,-3.0889,-3.0889,-3.0889,-3.0889,-3.0889,-3.0889,-3.0889,-3.0889,-3.0889,-3.0889,-3.0889,0.0,0.0,0.0,0.0,0.0,0.0,0.0,0.0,0.0,0.0,0.0,0.0,0.0,0.0,0.0,0.0,0.0,0.0,0.0,0.0,0.0,0.0,0.0,-2.8262,-2.8271,-2.8271,-2.8281,-2.8291,-2.8291,-2.8291,-2.8291,-2.8291,-2.8291,-2.8291,-2.8682,-2.8896,-2.8896,-2.9336,-2.9551,-2.956,-2.998,-3.0176,-3.0195,-3.0664,-3.0869,-3.0869,-3.0889,-3.0889,-3.0889,-3.0889,-3.0889,-3.0889,-3.0889,-3.0889,-3.0889,-3.0889,-3.0889,-3.0889,-3.0889,-3.0889,-3.0889,-3.0889,-3.0889,-3.0889,-3.0889,-3.0889,-3.0889,-3.0889,-3.0889,-3.0889,-3.0889,-3.0889,-3.0889,-3.0889,-3.0889,-3.0889,-3.0889,-3.0889,-3.0889,-3.0889,-3.0889,-3.0889,-3.0889,-3.0889,-3.0889,-3.0889,-3.0889,-3.0889,-3.0889,-3.0889,-3.0889,-3.0889,-3.0889,-3.0889,-3.0889,-3.0889,-3.0889,-3.0889,-3.0889,-3.0889,-3.0889,-3.0889,-3.0889,-3.0889,-3.0889,-3.0889,-3.0889,-3.0889,-3.0889,-3.0889,-3.0889,-3.0889,-1.3584,0.0,0.0,0.0,0.0,0.0,0.0,0.0,0.0,0.0,0.0,0.0,0.0,0.0,0.0,0.0,0.0,0.0,0.0,0.0,0.0,0.0,0.0,-2.749,-2.7803,-2.7894,-2.7969,0.0,-2.8291,-2.8291,-2.8291,-2.8291,-2.8291,-2.8291,-2.8408,-2.8467,-2.8467,-2.8887,-2.9092,-2.9101,-2.9531,-2.9746,-2.9756,-3.0195,-3.0391,-3.04,-3.0742,-3.0889,-3.0889,-3.0889,-3.0889,-3.0889,-3.0889,-3.0889,-3.0889,-3.0889,-3.0889,-3.0889,-3.0889,-3.0889,-3.0889,-3.0889,-3.0889,-3.0889,-3.0889,-3.0889,-3.0889,-3.0889,-3.0889,-3.0889,-3.0889,-3.0889,-3.0889,-3.0889,-3.0889,-3.0889,-3.0889,-3.0889,-3.0889,-3.0889,-3.0889,-3.0889,-3.0889,-3.0889,-3.0889,-3.0889,-3.0889,-3.0889,-3.0889,-3.0889,-3.0889,-3.0889,-3.0889,-3.0889,-3.0889,-3.0889,-3.0889,-3.0889,-3.0889,-3.0889,-3.0889,-3.0889,-3.0889,-3.0889,-3.0889,-3.0889,-3.0889,-3.0889,-3.0889,-3.0889,-3.0889,-3.0889,-1.4258,-1.4844,-1.5713,0.0,0.0,0.0,0.0,-1.8848,0.0,0.0,0.0,0.0,0.0,0.0,0.0,0.0,0.0,0.0,0.0,0.0,0.0,0.0,0.0,-2.7119,-2.7373,-2.7393,-2.7578,-2.7998,-2.8027,-2.8105,-2.8281,-2.8291,-2.8291,-2.8291,-2.8291,-2.8291,-2.8291,-2.8535,-2.8662,-2.8662,-2.9092,-2.9297,-2.9316,-2.9736,-3.0029,-3.0215,-3.0488,-3.0713,-3.0889,-3.0889,-3.0889,-3.0889,-3.0889,-3.0889,-3.0889,-3.0889,-3.0889,-3.0889,-3.0889,-3.0889,-3.0889,-3.0889,-3.0889,-3.0889,-3.0889,-3.0889,-3.0889,-3.0889,-3.0889,-3.0889,-3.0889,-3.0889,-3.0889,-3.0889,-3.0889,-3.0889,-3.0889,-3.0889,-3.0889,-3.0889,-3.0889,-3.0889,-3.0889,-3.0889,-3.0889,-3.0889,-3.0889,-3.0889,-3.0889,-3.0889,-3.0889,-3.0889,-3.0889,-3.0889,-3.0889,-3.0889,-3.0889,-3.0889,-3.0889,-3.0889,-3.0889,-3.0889,-3.0889,-3.0889,-3.0889,-3.0889,-3.0889,-3.0889,-3.0889,-3.0889,-3.0889,-3.0889,-1.54,-1.5733,-1.6535,0.0,0.0,0.0,-1.9451,-1.9209,0.0,0.0,0.0,0.0,0.0,0.0,0.0,0.0,0.0,0.0,0.0,0.0,0.0,0.0,0.0,-2.6894,-2.6943,-2.6943,-2.7119,-2.7611,-2.7689,-2.7885,-2.8203,-2.8271,-2.8291,-2.8291,-2.8291,-2.8291,-2.8291,-2.8291,-2.8291,-2.8301,-2.8672,-2.8848,-2.8867,-2.9297,-2.9707,-3.0059,-3.0156,-3.043,-3.082,-3.0869,-3.0889,-3.0889,-3.0889,-3.0889,-3.0889,-3.0889,-3.0889,-3.0889,-3.0889,-3.0889,-3.0889,-3.0889,-3.0889,-3.0889,-3.0889,-3.0889,-3.0889,-3.0889,-3.0889,-3.0889,-3.0889,-3.0889,-3.0889,-3.0889,-3.0889,-3.0889,-3.0889,-3.0889,-3.0889,-3.0889,-3.0889,-3.0889,-3.0889,-3.0889,-3.0889,-3.0889,-3.0889,-3.0889,-3.0889,-3.0889,-3.0889,-3.0889,-3.0889,-3.0889,-3.0889,-3.0889,-3.0889,-3.0889,-3.0889,-3.0889,-3.0889,-3.0889,-3.0889,-3.0889,-3.0889,-3.0889,-3.0889,-3.0889,-3.0889,-3.0889,-3.0889,-3.0889,-1.7041,-1.749,-1.7896,-1.7038,0.0,0.0,-1.7132,-1.7031,0.0,0.0,0.0,0.0,0.0,0.0,0.0,0.0,0.0,0.0,0.0,0.0,0.0,0.0,0.0,-2.6123,-2.6475,-2.6514,-2.6689,-2.7109,-2.7471,-2.7748,-2.7783,-2.8105,-2.8291,-2.8291,-2.8291,-2.8291,-2.8291,-2.8291,-2.8291,-2.8291,-2.8379,-2.8418,-2.8428,-2.8857,-2.9092,-2.9209,-2.9893,-3.0244,-3.0361,-3.0732,-3.0889,-3.0889,-3.0889,-3.0889,-3.0889,-3.0889,-3.0889,-3.0889,-3.0889,-3.0889,-3.0889,-3.0889,-3.0889,-3.0889,-3.0889,-3.0889,-3.0889,-3.0889,-3.0889,-3.0889,-3.0889,-3.0889,-3.0889,-3.0889,-3.0889,-3.0889,-3.0889,-3.0889,-3.0889,-3.0889,-3.0889,-3.0889,-3.0889,-3.0889,-3.0889,-3.0889,-3.0889,-3.0889,-3.0889,-3.0889,-3.0889,-3.0889,-3.0889,-3.0889,-3.0889,-3.0889,-3.0889,-3.0889,-3.0889,-3.0889,-3.0889,-3.0889,-3.0889,-3.0889,-3.0889,-3.0889,-3.0889,-3.0889,-3.0889,-3.0889,-3.0889,-3.0889,-1.8242,-1.8477,-1.8809,-1.8164,0.0,0.0,0.0,-1.7519,-1.7793,0.0,0.0,0.0,0.0,0.0,0.0,0.0,0.0,0.0,0.0,0.0,0.0,0.0,0.0,-2.5254,-2.5684,-2.5732,-2.6006,-2.665,-2.71,-2.7344,-2.7344,-2.7539,-2.7754,-2.7969,-2.7978,-2.8086,-2.8291,-2.8291,-2.8291,-2.8291,-2.8291,-2.8291,-2.8301,-2.8506,-2.8721,-2.8945,-2.9375,-2.9805,-3.0215,-3.0449,-3.0684,-3.0889,-3.0889,-3.0889,-3.0889,-3.0889,-3.0889,-3.0889,-3.0889,-3.0889,-3.0889,-3.0889,-3.0889,-3.0889,-3.0889,-3.0889,-3.0889,-3.0889,-3.0889,-3.0889,-3.0889,-3.0889,-3.0889,-3.0889,-3.0889,-3.0889,-3.0889,-3.0889,-3.0889,-3.0889,-3.0889,-3.0889,-3.0889,-3.0889,-3.0889,-3.0889,-3.0889,-3.0889,-3.0889,-3.0889,-3.0889,-3.0889,-3.0889,-3.0889,-3.0889,-3.0889,-3.0889,-3.0889,-3.0889,-3.0889,-3.0889,-3.0889,-3.0889,-3.0889,-3.0889,-3.0889,-3.0889,-3.0889,-3.0889,-3.0889,-3.0889,-3.0889,-1.957,-1.958,0.0,0.0,0.0,-1.8789,0.0,0.0,0.0,-1.9744,0.0,0.0,0.0,0.0,0.0,0.0,0.0,0.0,0.0,0.0,0.0,0.0,0.0,-2.4551,-2.4912,-2.4795,-2.5098,-2.6064,-2.6377,-2.6631,-2.6875,-2.6973,-2.7178,-2.7529,-2.7679,-2.7885,-2.8164,-2.8252,-2.8291,-2.8291,-2.8291,-2.8291,-2.8291,-2.8291,-2.8476,-2.8809,-2.8887,-2.9316,-2.9961,-3.0127,-3.042,-3.0762,-3.0859,-3.0889,-3.0889,-3.0889,-3.0889,-3.0889,-3.0889,-3.0889,-3.0889,-3.0889,-3.0889,-3.0889,-3.0889,-3.0889,-3.0889,-3.0889,-3.0889,-3.0889,-3.0889,-3.0889,-3.0889,-3.0889,-3.0889,-3.0889,-3.0889,-3.0889,-3.0889,-3.0889,-3.0889,-3.0889,-3.0889,-3.0889,-3.0889,-3.0889,-3.0889,-3.0889,-3.0889,-3.0889,-3.0889,-3.0889,-3.0889,-3.0889,-3.0889,-3.0889,-3.0889,-3.0889,-3.0889,-3.0889,-3.0889,-3.0889,-3.0889,-3.0889,-3.0889,-3.0889,-3.0889,-3.0889,-3.0889,-3.0889,-3.0889,-3.0889,0.0,0.0,0.0,0.0,-2.0654,-2.0771,-1.8184,0.0,-1.8373,-1.7861,0.0,0.0,0.0,0.0,0.0,0.0,0.0,0.0,0.0,0.0,0.0,0.0,0.0,-2.4434,-2.4482,-2.3799,-2.3877,-2.5174,-2.4902,-2.5225,-2.6396,-2.6816,-2.7041,-2.709,-2.7461,-2.7738,-2.7787,-2.8105,-2.8291,-2.8291,-2.8291,-2.8291,-2.8291,-2.8291,-2.832,-2.8389,-2.876,-2.8975,-2.9121,-2.9883,-3.0225,-3.0322,-3.0732,-3.0889,-3.0889,-3.0889,-3.0889,-3.0889,-3.0889,-3.0889,-3.0889,-3.0889,-3.0889,-3.0889,-3.0889,-3.0889,-3.0889,-3.0889,-3.0889,-3.0889,-3.0889,-3.0889,-3.0889,-3.0889,-3.0889,-3.0889,-3.0889,-3.0889,-3.0889,-3.0889,-3.0889,-3.0889,-3.0889,-3.0889,-3.0889,-3.0889,-3.0889,-3.0889,-3.0889,-3.0889,-3.0889,-3.0889,-3.0889,-3.0889,-3.0889,-3.0889,-3.0889,-3.0889,-3.0889,-3.0889,-3.0889,-3.0889,-3.0889,-3.0889,-3.0889,-3.0889,-3.0889,-3.0889,-3.0889,-3.0889,-3.0889,-3.0889,0.0,0.0,0.0,0.0,0.0,0.0,-1.8922,-1.8379,-1.8311,0.0,0.0,0.0,0.0,0.0,0.0,0.0,-1.8877,0.0,0.0,0.0,0.0,0.0,0.0,0.0,-2.3242,-2.3213,-2.3584,-2.4619,-2.4062,-2.4248,-2.5557,-2.5791,-2.6123,-2.6631,-2.707,-2.7412,-2.7718,-2.8086,-2.8291,-2.8291,-2.8291,-2.8291,-2.8291,-2.8291,-2.8291,-2.8301,-2.8476,-2.8691,-2.8945,-2.9307,-2.9609,-2.9873,-3.0312,-3.0654,-3.0889,-3.0889,-3.0889,-3.0889,-3.0889,-3.0889,-3.0889,-3.0889,-3.0889,-3.0889,-3.0889,-3.0889,-3.0889,-3.0889,-3.0889,-3.0889,-3.0889,-3.0889,-3.0889,-3.0889,-3.0889,-3.0889,-3.0889,-3.0889,-3.0889,-3.0889,-3.0889,-3.0889,-3.0889,-3.0889,-3.0889,-3.0889,-3.0889,-3.0889,-3.0889,-3.0889,-3.0889,-3.0889,-3.0889,-3.0889,-3.0889,-3.0889,-3.0889,-3.0889,-3.0889,-3.0889,-3.0889,-3.0889,-3.0889,-3.0889,-3.0889,-3.0889,-3.0889,-3.0889,-3.0889,-3.0889,-3.0889,-3.0889,-2.2373,0.0,0.0,-2.1357,-2.081,-2.0321,-1.9189,-1.873,-1.8672,-1.918,0.0,0.0,0.0,0.0,-1.8144,-1.833,0.0,-1.9131,0.0,0.0,0.0,0.0,0.0,0.0,0.0,-2.2305,-2.2773,-2.3984,-2.312,-2.3237,-2.4805,-2.5047,-2.5409,-2.6006,-2.6562,-2.7051,-2.748,-2.791,-2.8174,-2.8291,-2.8291,-2.8291,-2.8291,-2.8291,-2.8291,-2.8291,-2.8291,-2.8467,-2.875,-2.8867,-2.9111,-2.9443,-2.998,-3.04,-3.0713,-3.084,-3.0889,-3.0889,-3.0889,-3.0889,-3.0889,-3.0889,-3.0889,-3.0889,-3.0889,-3.0889,-3.0889,-3.0889,-3.0889,-3.0889,-3.0889,-3.0889,-3.0889,-3.0889,-3.0889,-3.0889,-3.0889,-3.0889,-3.0889,-3.0889,-3.0889,-3.0889,-3.0889,-3.0889,-3.0889,-3.0889,-3.0889,-3.0889,-3.0889,-3.0889,-3.0889,-3.0889,-3.0889,-3.0889,-3.0889,-3.0889,-3.0889,-3.0889,-3.0889,-3.0889,-3.0889,-3.0889,-3.0889,-3.0889,-3.0889,-3.0889,-3.0889,-3.0889,-3.0889,-3.0889,-3.0889,-3.0889,-2.3276,-2.3418,-2.3242,-2.1153,-2.0615,-2.0165,-1.8437,-1.8984,-1.9746,-1.9365,-2.0264,-2.0986,-2.0615,-2.0137,-1.9707,-1.9307,-1.9268,0.0,0.0,0.0,0.0,0.0,0.0,0.0,0.0,-2.0762,-2.0908,0.0,-2.2021,-2.2175,-2.4326,-2.4834,-2.5125,-2.5155,-2.5947,-2.6611,-2.7031,-2.7471,-2.7891,-2.8291,-2.8291,-2.8291,-2.8291,-2.8291,-2.8291,-2.8291,-2.8291,-2.8301,-2.834,-2.875,-2.8926,-2.9023,-2.9863,-3.0205,-3.0273,-3.0723,-3.0889,-3.0889,-3.0889,-3.0889,-3.0889,-3.0889,-3.0889,-3.0889,-3.0889,-3.0889,-3.0889,-3.0889,-3.0889,-3.0889,-3.0889,-3.0889,-3.0889,-3.0889,-3.0889,-3.0889,-3.0889,-3.0889,-3.0889,-3.0889,-3.0889,-3.0889,-3.0889,-3.0889,-3.0889,-3.0889,-3.0889,-3.0889,-3.0889,-3.0889,-3.0889,-3.0889,-3.0889,-3.0889,-3.0889,-3.0889,-3.0889,-3.0889,-3.0889,-3.0889,-3.0889,-3.0889,-3.0889,-3.0889,-3.0889,-3.0889,-3.0889,-3.0889,-3.0889,-3.0889,-3.0889,-3.0889,-2.4062,-2.4297,-2.4235,-2.2314,-2.1641,-2.0986,-1.9248,-1.9404,-1.9795,-1.9375,-2.0322,-2.1094,-2.0683,-2.0488,-2.0205,-1.9775,-1.9473,-1.8936,0.0,0.0,0.0,0.0,0.0,0.0,0.0,0.0,0.0,0.0,-2.1641,0.0,-2.3906,-2.4404,-2.4775,-2.5106,-2.5928,-2.6455,-2.6602,-2.7314,-2.7796,-2.7933,-2.8164,-2.8291,-2.8291,-2.8291,-2.8291,-2.8291,-2.8291,-2.8291,-2.8301,-2.8447,-2.8506,-2.8594,-2.9453,-2.9785,-2.9873,-3.0615,-3.0889,-3.0889,-3.0889,-3.0889,-3.0889,-3.0889,-3.0889,-3.0889,-3.0889,-3.0889,-3.0889,-3.0889,-3.0889,-3.0889,-3.0889,-3.0889,-3.0889,-3.0889,-3.0889,-3.0889,-3.0889,-3.0889,-3.0889,-3.0889,-3.0889,-3.0889,-3.0889,-3.0889,-3.0889,-3.0889,-3.0889,-3.0889,-3.0889,-3.0889,-3.0889,-3.0889,-3.0889,-3.0889,-3.0889,-3.0889,-3.0889,-3.0889,-3.0889,-3.0889,-3.0889,-3.0889,-3.0889,-3.0889,-3.0889,-3.0889,-3.0889,-3.0889,-3.0889,-3.0889,-3.0889,-3.0889,-2.4502,-2.4736,-2.4734,-2.3135,-2.2539,-2.1924,-2.0342,-2.0547,-2.0937,-2.0518,-2.1348,-2.21,-2.1963,-2.1562,-2.1064,-2.0478,-1.9893,-1.8965,0.0,-1.666,0.0,0.0,0.0,0.0,0.0,0.0,-2.0215,-2.1553,-2.1064,0.0,0.0,-2.3887,-2.4394,-2.4824,-2.5547,-2.6074,-2.6387,-2.6934,-2.7415,-2.7718,-2.7939,-2.8144,-2.8291,-2.8291,-2.8291,-2.8291,-2.8291,-2.8291,-2.8291,-2.8291,-2.8291,-2.8359,-2.9072,-2.9434,-2.9734,-3.0566,-3.0889,-3.0889,-3.0889,-3.0889,-3.0889,-3.0889,-3.0889,-3.0889,-3.0889,-3.0889,-3.0889,-3.0889,-3.0889,-3.0889,-3.0889,-3.0889,-3.0889,-3.0889,-3.0889,-3.0889,-3.0889,-3.0889,-3.0889,-3.0889,-3.0889,-3.0889,-3.0889,-3.0889,-3.0889,-3.0889,-3.0889,-3.0889,-3.0889,-3.0889,-3.0889,-3.0889,-3.0889,-3.0889,-3.0889,-3.0889,-3.0889,-3.0889,-3.0889,-3.0889,-3.0889,-3.0889,-3.0889,-3.0889,-3.0889,-3.0889,-3.0889,-3.0889,-3.0889,-3.0889,-3.0889,-3.0889]}]]